GFSSW_sfc_thetae_000.txt.gz
Theta_e
318 318 318 318 319 319 317 316 316 315 315 315 315 316 315 315 315 313 306 312 316 324 318 308 309 309 307 302 303 301 292 290 293 296 297 300 300 299 304 308 310 311 314 316 315
319 319 318 319 317 317 316 316 315 316 315 316 315 315 314 314 312 312 320 325 326 325 308 306 304 306 301 299 302 297 292 293 298 300 297 297 298 300 302 309 310 313 317 316 313
319 319 319 318 317 317 316 316 315 316 314 314 314 314 314 314 312 312 325 326 327 323 308 310 309 306 301 299 298 294 292 296 297 300 298 296 297 299 300 302 312 312 313 313 312
317 317 317 317 317 316 316 315 315 315 314 313 313 313 314 312 300 307 326 328 329 316 310 310 307 304 300 298 299 292 295 297 297 297 296 296 297 297 297 301 316 317 317 315 313
315 315 315 316 317 316 315 314 314 313 312 312 312 313 311 310 307 314 327 329 324 316 310 308 307 303 298 297 297 294 295 297 298 300 297 298 296 297 296 302 318 318 318 316 316
314 314 315 315 317 316 315 314 313 313 311 311 312 313 308 302 314 312 317 318 313 311 311 310 307 306 301 299 296 297 297 296 297 298 298 297 296 298 297 301 316 317 316 317 317
315 315 315 315 317 316 314 314 313 312 310 311 311 311 311 310 314 311 311 310 311 312 309 309 310 304 302 299 300 298 293 294 294 297 296 299 294 294 300 301 313 316 316 317 317
314 315 316 316 315 313 313 313 312 310 310 310 311 310 306 316 312 309 308 308 311 311 310 310 309 306 301 300 299 296 294 289 295 298 299 296 290 297 298 299 301 307 313 313 314
315 316 316 315 314 313 312 311 310 310 310 310 307 309 302 317 307 310 308 307 310 311 309 310 307 300 300 293 290 292 287 290 293 299 297 295 291 296 298 298 297 297 300 305 309
315 315 315 314 313 312 311 310 313 311 311 313 313 306 311 309 307 307 308 309 308 307 306 303 300 295 294 291 285 288 289 288 291 294 296 293 292 297 298 301 303 305 307 309 308
315 316 315 315 314 313 310 307 304 303 309 301 304 307 306 307 307 305 308 307 307 304 297 301 295 291 293 295 296 296 292 291 291 296 295 294 294 296 301 305 304 305 307 307 306
315 315 315 314 314 313 308 312 311 310 300 310 311 308 309 306 303 304 309 303 303 297 299 296 292 297 299 300 298 297 294 293 295 298 295 294 293 297 302 302 304 305 305 305 306
314 315 314 313 313 309 308 312 319 317 300 303 306 305 306 308 302 302 306 304 300 297 296 293 296 301 300 297 296 296 294 293 293 295 294 296 292 296 299 300 302 302 304 306 306
313 314 312 312 309 312 310 316 317 313 291 296 301 304 307 307 302 306 307 304 302 297 297 296 301 300 298 296 296 293 298 297 295 291 286 292 284 292 296 298 300 302 303 305 305
313 313 311 312 309 314 317 323 320 312 279 298 302 310 306 303 304 303 307 306 299 297 298 296 297 297 296 296 298 296 299 296 295 291 289 290 287 290 296 294 296 298 301 302 304
313 313 311 311 311 316 324 320 308 292 281 297 302 301 299 302 303 303 304 307 305 300 299 298 301 298 297 300 300 300 298 297 295 292 283 291 289 288 292 295 298 299 300 302 302
313 313 311 321 316 323 322 306 291 283 300 294 297 301 299 298 301 301 299 297 295 291 292 297 297 299 301 297 300 297 293 286 284 281 281 294 290 291 297 299 300 300 300 301 301
314 312 313 321 328 323 312 300 285 296 295 299 299 300 297 299 299 300 297 293 297 297 293 291 288 296 300 296 293 294 292 284 280 278 285 291 286 289 298 302 303 303 301 302 302
313 314 321 322 326 317 305 288 292 296 299 298 299 296 296 299 299 297 294 294 295 296 292 291 291 298 298 298 298 295 288 293 287 284 282 286 290 295 299 298 300 301 302 300 299
313 312 311 323 321 311 300 294 300 302 302 300 294 297 293 295 296 296 295 298 298 298 298 295 289 295 298 301 300 294 296 288 285 278 277 283 286 288 293 295 296 296 296 298 299
313 301 309 324 311 302 292 296 302 303 305 299 297 295 297 295 296 295 296 298 301 300 298 297 292 291 297 294 292 294 292 292 290 284 278 275 282 293 295 296 295 296 297 297 298
309 298 316 308 293 297 296 304 302 302 305 303 303 301 297 298 297 296 296 298 303 301 293 296 290 282 291 296 297 294 293 291 281 284 281 278 282 295 295 297 298 298 298 299 299
304 306 317 306 286 285 302 303 303 301 301 302 301 302 302 298 294 298 298 302 301 299 296 295 288 281 287 294 295 293 294 295 290 283 282 276 280 297 297 297 298 296 297 297 297
307 295 302 305 301 300 299 299 299 304 303 303 302 303 300 298 300 296 297 302 300 298 300 300 293 286 283 287 289 286 290 293 290 280 282 282 287 292 294 294 296 296 296 295 295
308 298 299 288 293 301 302 301 299 298 303 303 300 301 298 292 295 295 298 298 300 300 299 296 287 289 290 292 291 290 289 289 288 288 283 287 288 292 294 294 295 296 296 295 294
306 302 301 294 299 300 300 299 299 300 300 299 298 301 300 294 296 294 297 296 295 298 297 295 285 284 284 292 291 287 289 290 290 290 289 291 289 295 295 296 295 294 294 294 294
313 309 304 297 295 296 295 300 301 302 301 303 301 298 295 299 300 300 300 301 300 297 291 288 283 281 281 285 285 280 287 291 291 292 290 284 291 294 293 294 292 292 293 292 292

GFSSW_sfc_thetae_003.txt.gz
Theta_e
318 318 318 318 317 317 318 316 316 316 315 315 314 315 315 314 313 312 306 310 314 322 318 306 305 307 307 301 299 297 291 288 291 294 294 298 300 301 309 313 311 312 312 323 325
319 319 319 319 318 317 317 316 315 315 315 314 314 314 314 313 309 309 318 323 324 325 305 304 302 305 299 299 298 295 288 292 297 298 295 297 306 306 308 309 310 309 312 321 322
319 319 320 318 318 317 317 316 316 316 315 314 313 313 313 313 307 308 324 324 327 322 306 307 305 303 298 297 295 293 291 295 296 300 300 297 298 299 307 305 310 308 310 316 320
318 318 317 317 317 317 317 316 316 315 315 313 313 312 313 309 296 306 326 328 328 312 307 306 303 300 298 296 297 291 295 295 296 298 296 296 296 300 299 310 314 314 312 313 314
316 316 316 316 316 317 316 315 315 314 313 312 311 311 309 307 306 312 329 329 315 310 305 305 303 301 297 297 296 292 293 294 296 297 295 296 294 297 295 306 316 314 312 312 313
315 314 315 315 315 316 316 314 313 312 312 311 310 311 306 298 311 311 316 314 313 309 307 306 304 305 300 297 294 296 294 293 295 296 295 295 294 294 296 312 313 313 311 311 312
314 314 315 314 315 316 315 314 313 312 310 310 310 310 310 304 311 310 313 312 311 309 306 309 309 304 299 296 297 296 292 293 292 294 294 297 292 292 297 312 312 312 313 313 313
314 314 314 314 314 314 313 312 312 311 310 310 310 309 303 313 312 310 305 306 308 311 310 307 307 304 299 298 297 293 291 288 293 295 295 294 289 294 297 311 310 311 310 312 311
313 313 315 315 314 312 312 311 310 309 309 310 305 307 301 314 306 307 306 305 307 308 307 308 305 298 298 292 289 289 285 288 291 296 294 293 290 295 295 303 299 303 305 306 307
314 315 315 315 313 311 310 310 310 310 309 311 311 302 307 303 305 306 306 306 306 306 304 303 299 294 293 289 283 286 287 286 289 292 294 291 291 296 300 301 301 302 302 303 305
315 316 315 314 313 311 308 306 302 301 306 298 301 305 306 311 305 304 306 306 305 302 295 298 294 289 290 292 293 292 289 289 289 294 294 292 294 297 300 303 302 302 302 302 303
315 315 315 314 313 312 306 309 308 309 302 307 308 307 309 305 300 302 307 301 300 295 297 295 290 294 298 298 296 294 291 290 293 296 295 295 293 296 299 299 302 302 301 302 303
314 315 314 313 313 309 305 308 316 313 300 300 306 304 304 306 300 300 304 302 298 295 295 292 294 299 298 296 295 294 291 291 291 295 296 295 292 293 297 299 301 302 302 302 303
314 314 312 312 307 309 308 313 315 308 290 294 299 301 305 305 300 304 305 302 300 295 296 295 300 298 296 294 294 291 296 295 293 291 287 291 283 290 294 296 299 300 301 302 304
313 313 312 312 308 313 316 321 317 308 278 295 300 307 303 302 301 301 306 304 296 296 297 294 295 296 295 294 297 295 297 294 294 288 288 288 285 288 294 293 296 298 301 303 301
313 313 311 310 308 313 321 312 306 290 280 295 300 298 298 300 300 301 303 306 303 298 297 296 298 297 295 298 297 298 296 295 293 290 282 289 287 286 290 293 296 298 301 302 301
313 312 311 316 316 322 316 304 288 283 297 293 295 298 297 296 299 299 297 295 294 290 290 294 295 297 298 295 297 295 292 284 283 280 280 291 288 288 295 297 298 298 299 299 301
312 311 311 313 323 318 308 296 285 294 294 297 297 297 295 297 297 298 295 292 295 295 291 289 286 294 297 294 291 292 291 284 279 277 282 290 284 289 296 299 300 300 300 299 303
311 309 315 321 323 313 303 286 291 295 296 296 297 294 294 297 296 295 292 292 294 295 291 289 289 296 296 296 296 292 286 291 284 283 281 284 288 293 296 297 298 299 299 296 296
313 309 309 320 313 308 298 293 299 301 300 298 292 295 291 293 294 294 293 297 296 296 296 294 287 293 296 298 297 293 295 286 283 277 276 282 284 285 291 294 295 294 295 295 296
308 298 304 316 305 298 289 294 302 302 303 297 295 294 295 293 294 293 294 297 299 299 297 295 289 289 295 292 290 292 290 289 288 282 277 275 282 290 293 294 293 294 295 295 295
304 292 312 304 293 293 293 301 303 299 303 302 301 298 295 297 295 295 295 296 301 299 292 294 289 282 289 295 296 292 290 288 279 282 279 277 281 292 294 295 295 295 295 295 295
302 306 316 303 286 283 296 303 301 299 299 300 299 300 300 297 293 296 296 300 298 297 294 294 287 281 287 292 293 290 292 291 287 282 282 275 279 294 294 294 295 294 295 294 294
302 295 301 302 296 293 295 297 297 302 301 301 300 301 298 297 298 295 296 299 297 297 300 298 290 285 282 286 288 285 289 290 288 279 281 280 284 290 291 292 293 293 293 293 293
304 295 299 290 293 300 300 299 297 296 300 301 298 299 297 291 293 293 296 296 297 299 298 294 286 287 288 289 289 288 288 289 288 287 283 285 286 290 292 292 293 293 293 293 292
304 298 298 292 297 298 297 299 298 298 299 297 297 299 298 293 295 293 295 293 292 297 295 292 285 283 284 289 289 285 287 287 288 288 288 288 287 292 293 294 292 293 292 291 292
307 307 301 293 293 295 294 299 299 300 301 301 300 297 293 297 298 298 298 298 297 296 289 286 282 280 278 283 283 278 285 289 288 290 289 284 290 292 292 293 291 291 291 291 292

GFSSW_sfc_thetae_006.txt.gz
Theta_e
319 320 318 319 318 318 317 316 316 315 315 315 314 314 315 314 313 311 304 310 311 322 316 304 303 304 303 299 298 294 289 287 293 297 299 300 303 303 312 312 312 312 316 324 333
320 320 320 320 319 318 318 317 316 316 315 315 314 313 314 313 308 306 316 323 323 324 303 302 300 303 298 297 297 293 288 290 294 297 304 307 305 308 310 309 308 309 321 329 332
319 319 318 319 319 318 318 317 316 316 315 314 313 313 312 312 305 306 323 324 325 321 304 305 303 302 296 295 294 291 290 293 297 298 299 301 300 305 309 304 308 311 318 323 327
319 317 317 318 318 317 317 316 316 315 314 314 313 312 312 309 294 305 328 326 327 312 305 303 302 297 295 294 296 291 294 295 296 299 297 300 297 307 301 307 313 318 321 320 322
317 316 316 316 316 316 316 316 315 314 314 312 312 311 308 305 304 314 330 328 316 307 304 303 300 299 296 298 295 293 293 295 296 296 294 296 297 302 295 309 312 315 319 318 319
315 314 315 314 315 316 315 315 314 313 312 311 310 311 303 299 309 316 319 312 310 306 304 304 303 303 300 296 295 296 292 292 295 293 292 294 293 293 295 310 309 312 314 314 317
315 314 314 315 315 314 315 314 313 312 311 310 310 309 306 304 309 310 314 309 310 308 304 306 305 301 299 295 297 295 291 293 293 293 292 296 291 290 298 309 308 308 309 308 310
315 314 314 314 313 314 314 313 312 312 310 310 311 308 303 312 312 311 305 304 309 309 307 308 308 304 299 298 295 291 290 287 291 293 293 292 286 292 303 308 306 307 309 308 308
314 313 313 313 313 313 312 311 311 310 310 310 305 304 301 312 306 305 305 304 306 306 307 308 305 298 296 291 288 288 284 286 289 294 293 292 288 295 297 306 302 302 304 306 306
314 313 313 314 314 312 311 310 309 310 309 310 309 300 304 301 306 304 305 305 304 305 303 301 297 294 293 289 284 284 285 285 287 291 294 291 292 297 299 301 300 299 301 303 303
314 315 315 314 314 311 308 305 300 300 304 297 298 300 304 306 305 302 304 304 304 302 295 297 293 288 289 291 291 290 288 286 287 293 294 292 292 295 299 299 298 299 300 300 302
314 314 315 314 313 311 308 304 305 307 300 307 307 306 308 306 299 300 306 300 299 294 295 294 290 293 296 296 294 292 289 288 291 295 294 293 291 293 296 297 298 299 299 300 301
314 314 314 314 313 310 305 306 314 310 300 300 305 304 303 305 299 299 303 300 297 294 293 291 293 297 296 295 294 292 289 289 290 295 294 293 291 292 296 299 301 301 300 301 301
313 313 312 312 307 306 305 310 315 308 289 294 297 300 303 303 298 302 303 301 298 293 294 294 297 296 294 293 293 289 294 293 292 290 286 290 283 289 293 295 298 299 299 300 301
312 313 312 311 306 311 314 320 314 304 277 294 298 305 301 300 299 299 305 302 295 295 295 293 294 294 293 293 295 293 295 293 290 287 287 287 285 286 293 293 295 297 299 299 299
312 312 312 310 306 311 318 309 303 289 280 292 298 296 297 299 298 300 302 304 300 297 296 294 297 295 294 296 295 297 295 293 291 288 281 286 285 284 289 293 295 297 300 300 299
312 312 311 313 314 320 312 301 288 282 295 291 293 296 295 295 297 297 295 294 292 289 289 293 293 295 296 293 295 294 290 283 282 279 280 289 286 287 293 295 298 298 298 299 299
311 311 310 312 314 314 304 294 283 292 292 295 295 295 293 295 295 295 293 291 294 293 289 287 284 292 296 293 291 289 290 283 279 276 281 288 284 288 295 297 299 299 299 298 299
310 309 308 318 314 309 299 283 288 292 295 294 295 292 292 295 295 294 291 291 292 293 290 287 287 293 294 295 294 290 285 290 284 282 280 283 287 292 295 295 297 297 297 297 295
309 309 309 316 310 306 294 290 297 301 298 296 290 293 290 292 292 292 291 295 294 296 295 293 286 291 294 296 296 292 293 284 282 277 275 280 283 285 290 293 295 294 294 294 295
304 298 303 315 303 297 287 292 300 303 301 295 293 293 292 292 293 292 292 295 297 297 296 292 289 288 292 290 288 290 288 287 286 281 276 273 281 289 292 295 293 293 294 294 294
298 292 308 303 293 291 290 299 302 298 301 300 298 296 293 295 293 293 293 295 298 298 291 292 288 282 287 293 294 291 288 286 278 280 278 275 280 290 291 294 294 293 294 293 293
299 305 313 302 285 283 293 299 301 297 298 298 297 298 298 295 291 294 295 298 296 295 293 293 286 281 285 289 291 289 290 288 285 282 281 275 279 292 293 292 293 292 292 293 293
303 296 301 298 294 292 292 294 296 300 299 299 298 299 297 295 296 294 294 297 296 296 299 296 288 284 281 284 286 285 289 288 286 278 280 280 282 289 290 290 291 292 292 291 291
299 296 300 289 292 293 294 296 295 295 299 299 297 297 295 290 291 291 294 294 296 299 296 292 285 285 286 288 287 286 286 288 286 285 282 284 284 287 291 290 292 292 292 291 291
302 296 294 293 298 298 294 296 296 296 297 295 295 297 296 292 294 292 294 291 290 296 292 290 283 283 284 287 287 285 286 286 287 286 286 285 286 292 292 292 291 292 291 291 291
304 304 298 290 292 294 292 298 298 299 298 299 298 295 292 296 297 296 296 295 295 294 287 284 282 280 277 282 281 278 284 286 286 287 287 284 288 291 290 292 292 291 291 291 291

GFSSW_sfc_thetae_009.txt.gz
Theta_e
319 319 319 319 319 319 319 319 317 317 316 315 315 314 314 313 312 310 305 311 313 323 317 307 307 308 308 306 304 300 297 297 299 302 304 309 311 309 317 315 315 315 325 329 335
319 319 320 319 319 319 319 318 317 317 316 315 314 313 313 312 308 305 315 321 322 324 307 305 303 307 304 304 304 301 297 297 301 307 307 309 308 313 313 313 311 320 329 334 333
318 318 319 319 319 318 318 317 317 316 316 314 314 313 312 311 305 307 322 323 324 321 308 308 307 307 302 303 302 299 298 298 299 304 312 308 305 312 313 310 313 319 323 327 329
318 317 318 317 317 317 317 316 316 316 315 314 313 312 312 308 298 309 329 325 326 311 308 306 305 302 301 300 301 298 299 298 303 302 303 306 308 312 312 310 317 326 329 328 326
317 316 316 316 316 316 315 314 315 315 314 313 312 311 308 305 306 318 329 327 320 308 307 305 303 303 300 301 299 298 298 298 298 299 305 302 307 311 302 314 321 327 328 329 329
316 315 315 315 315 315 314 314 314 314 313 311 310 311 304 300 312 322 321 317 312 308 306 306 304 305 303 300 300 301 298 297 298 297 298 300 298 303 304 314 320 324 325 325 325
316 315 315 314 314 314 314 314 314 313 311 310 309 308 305 305 312 318 316 313 311 309 306 307 308 305 304 299 300 298 296 297 298 298 298 300 297 295 305 312 315 320 318 318 318
316 314 313 313 313 313 313 313 313 312 310 310 310 307 304 315 316 312 311 310 312 311 309 310 309 306 303 301 299 296 296 293 297 299 298 298 293 300 304 311 309 311 313 314 313
314 313 313 312 312 312 313 312 311 310 309 310 306 305 304 314 309 310 309 307 308 309 310 309 309 304 300 297 295 294 291 292 295 299 298 299 294 302 305 309 307 309 311 312 312
314 313 313 313 313 312 311 310 309 309 309 310 309 303 306 304 309 306 310 309 308 306 305 304 301 299 296 295 289 291 291 292 293 296 300 299 297 302 304 308 306 307 309 310 310
314 313 314 314 314 311 308 306 303 302 304 302 303 302 304 309 307 306 308 309 308 306 300 301 297 295 296 296 294 293 293 292 293 298 299 296 297 300 303 304 305 306 307 309 309
314 314 315 314 313 310 309 304 305 310 305 307 307 307 308 309 303 304 311 306 304 299 300 299 295 298 299 299 296 296 293 293 296 298 299 298 297 300 302 302 304 305 307 308 308
314 314 314 313 311 308 306 306 314 315 305 302 307 305 306 308 302 302 308 306 301 298 297 296 297 300 299 297 297 295 294 292 294 298 299 299 296 298 302 304 304 305 306 307 308
313 313 313 312 306 307 305 312 312 314 294 296 299 303 305 305 302 306 307 305 301 296 298 299 300 298 297 297 297 294 296 297 296 295 292 295 289 295 300 301 303 304 305 306 306
312 313 312 311 307 308 315 322 313 308 283 297 300 308 304 302 302 304 308 305 299 298 299 297 298 297 297 297 299 296 299 297 295 293 293 293 293 293 299 299 301 303 304 305 305
312 312 312 310 309 311 317 314 308 293 284 295 300 299 300 301 301 303 305 306 303 299 300 298 301 299 299 299 299 300 298 297 295 294 289 291 291 292 295 299 301 303 304 305 305
312 312 311 312 311 320 315 305 292 286 297 293 296 299 298 298 299 299 298 298 297 294 293 296 296 299 301 298 299 299 296 290 288 288 287 292 290 294 298 300 303 303 304 305 306
311 311 311 312 314 312 306 297 287 292 293 297 297 297 296 298 298 297 296 295 298 296 293 291 290 296 299 298 296 295 296 291 283 284 288 291 289 295 298 301 305 305 306 305 305
311 309 309 314 315 311 301 287 288 293 297 295 297 294 296 298 297 297 295 294 296 297 294 292 291 297 298 299 299 294 292 295 288 285 286 289 292 297 298 298 301 302 303 303 304
308 306 309 318 316 307 296 290 296 301 300 298 292 295 293 295 295 295 295 298 297 300 299 296 290 295 297 300 299 297 296 290 289 282 280 285 287 291 294 297 300 300 302 302 302
307 304 308 314 307 300 291 292 301 305 302 297 295 295 295 295 296 295 295 298 300 299 300 296 295 293 296 294 294 294 292 290 290 287 283 281 287 296 297 299 299 301 301 301 300
301 295 310 305 296 294 293 298 302 302 303 303 300 298 296 297 296 295 295 298 301 302 297 296 294 290 291 296 298 296 293 292 287 284 284 284 287 295 296 298 301 299 299 300 300
298 306 315 305 289 288 295 300 303 300 300 301 300 301 302 298 294 297 297 301 299 299 297 297 292 288 290 293 296 294 293 291 289 288 285 287 287 295 296 296 299 299 298 298 298
305 299 304 299 296 294 294 296 297 301 301 301 300 302 300 298 298 296 297 300 300 299 299 299 291 290 287 289 291 290 292 291 291 287 286 288 290 292 295 295 296 297 297 297 296
301 298 303 293 292 294 296 296 297 297 301 301 300 300 298 294 295 294 297 297 299 299 298 296 290 290 289 290 291 290 291 290 289 290 289 289 288 292 296 297 296 296 296 295 295
299 297 295 296 297 295 294 297 297 299 300 299 298 300 300 295 297 295 296 295 295 298 295 293 288 288 288 289 289 289 290 290 290 290 289 290 290 296 296 297 295 295 295 295 295
305 303 300 290 295 294 293 296 298 301 300 301 300 298 296 299 300 298 298 297 298 296 291 289 287 286 283 285 285 284 288 290 290 291 293 289 295 296 294 295 296 296 296 295 296

GFSSW_sfc_thetae_012.txt.gz
Theta_e
320 320 320 320 320 319 319 319 318 318 318 317 316 315 315 314 313 314 309 314 316 324 320 316 315 314 313 309 311 309 301 300 305 308 309 315 310 316 319 318 321 321 326 331 337
319 319 320 320 319 319 319 318 317 318 317 317 316 314 314 313 312 310 319 323 323 325 313 311 309 310 307 307 309 306 302 302 311 313 310 311 311 314 315 317 316 324 331 336 338
319 319 319 319 319 318 318 317 317 317 317 316 315 314 313 313 310 312 325 323 324 323 314 312 311 310 305 307 307 306 302 307 312 312 312 310 310 314 316 315 317 322 329 331 333
318 318 319 318 317 318 317 315 316 317 316 315 314 313 313 313 300 314 330 325 326 319 313 311 310 306 303 302 307 303 305 305 311 314 313 310 312 315 316 314 321 329 333 332 330
317 317 318 316 316 316 315 315 315 316 315 314 312 312 313 310 309 323 327 326 319 314 311 309 307 306 301 304 305 303 304 304 305 309 313 312 313 314 311 320 328 330 331 331 329
316 316 316 316 315 315 315 315 314 314 313 312 311 310 311 304 316 324 323 318 315 312 312 312 308 309 305 305 304 305 303 302 303 307 307 309 310 312 310 322 325 327 327 329 329
315 316 316 315 315 315 315 314 314 313 312 310 310 311 309 309 317 324 320 317 316 314 312 314 311 307 308 304 305 304 300 302 302 307 305 309 302 303 311 318 322 323 326 328 328
316 316 315 314 313 314 313 314 313 311 311 310 310 311 308 318 321 318 318 316 317 316 314 314 314 309 308 305 302 300 302 297 301 304 303 302 297 305 313 316 319 322 323 323 322
315 315 314 313 312 313 313 312 311 310 309 311 312 310 307 318 313 314 317 310 314 314 314 312 312 307 305 302 298 299 295 297 298 304 303 303 299 305 314 315 315 319 321 321 320
315 314 313 313 312 313 311 311 310 310 311 313 314 309 313 308 314 311 315 313 310 311 308 308 307 304 303 300 293 294 295 297 297 302 303 301 302 306 313 315 315 316 318 319 319
314 314 314 313 313 311 310 312 309 308 310 308 307 307 307 313 314 310 313 312 311 308 303 305 301 298 300 301 300 299 298 297 300 304 303 302 302 304 310 314 314 315 317 318 318
314 314 314 314 313 311 312 310 312 317 307 312 311 310 312 312 307 309 315 308 308 302 304 301 298 302 304 302 301 299 298 298 300 303 304 303 303 305 307 310 314 315 316 317 318
314 314 314 313 311 310 311 311 321 320 311 307 311 308 309 311 306 306 311 308 304 302 302 300 302 304 303 301 300 300 299 299 298 302 304 304 301 303 306 308 310 313 315 317 318
314 313 313 311 308 314 310 316 318 319 301 300 304 308 309 310 304 310 312 309 305 301 303 303 304 303 303 300 301 298 301 301 300 299 295 303 293 302 305 306 309 311 314 316 318
313 313 311 311 316 311 320 328 325 318 288 302 303 312 309 306 306 307 313 310 302 302 304 300 301 302 301 301 303 300 303 303 301 300 299 298 296 301 305 303 307 310 313 314 315
312 313 311 310 317 320 324 326 321 301 287 298 304 303 304 305 305 308 309 311 309 304 305 303 306 305 303 304 304 304 303 302 301 300 293 297 297 297 302 305 308 311 311 312 312
312 313 312 317 315 324 329 319 300 292 300 297 299 302 303 301 302 305 304 303 301 298 298 301 301 304 306 302 304 304 301 293 291 291 291 297 295 298 304 306 310 310 310 311 311
311 312 312 318 323 324 319 305 291 295 297 301 301 302 300 302 301 302 302 301 303 302 299 296 294 300 303 303 300 302 301 294 285 288 291 296 292 299 304 307 312 312 311 311 311
311 311 310 319 320 321 310 299 295 298 302 299 300 298 299 301 301 302 301 301 302 303 297 296 294 302 302 304 303 299 297 301 294 293 292 295 298 303 304 305 308 310 309 309 310
311 309 314 325 325 317 307 297 299 305 304 302 295 299 296 299 298 299 300 302 301 304 306 301 294 300 301 304 303 301 302 295 297 286 284 291 293 295 300 302 306 307 308 309 310
314 308 320 329 322 311 302 300 303 310 308 301 299 298 299 299 300 298 299 302 304 303 305 303 300 297 301 299 299 298 297 296 297 294 287 285 292 302 302 305 305 307 308 310 310
313 304 321 319 306 306 302 302 304 307 307 305 304 302 301 302 300 300 299 302 306 305 301 302 301 296 297 301 303 301 299 297 292 289 292 292 291 301 304 305 307 308 309 311 311
307 312 319 313 300 304 303 303 307 305 304 305 303 305 306 303 299 302 302 303 303 304 303 303 299 293 294 298 300 299 299 298 297 296 290 291 292 301 303 304 306 308 309 309 309
310 305 312 309 308 304 301 301 301 306 305 306 305 307 305 302 304 301 302 302 303 304 299 302 300 297 293 295 299 296 298 298 297 292 291 293 294 298 300 302 304 306 308 308 307
312 307 310 302 302 304 304 302 300 301 306 307 304 305 305 300 301 301 303 301 303 300 303 303 297 296 295 295 295 296 297 297 295 296 292 294 294 297 300 302 305 306 306 306 304
308 307 308 306 304 302 299 300 300 303 304 303 304 305 306 303 303 301 303 302 301 303 303 300 297 295 293 294 294 293 296 298 297 297 296 296 296 303 304 304 304 304 304 303 302
316 312 311 298 303 301 300 301 301 307 305 306 308 306 304 305 307 308 306 305 304 303 301 299 295 292 290 291 292 290 294 296 297 299 298 294 299 302 301 302 303 304 303 303 303

GFSSW_sfc_thetae_015.txt.gz
Theta_e
319 319 320 321 320 320 320 319 318 319 319 318 318 317 315 315 314 315 312 316 318 325 320 317 314 316 314 311 311 312 302 300 303 308 312 315 312 317 319 316 320 324 325 330 337
320 319 320 321 319 319 319 318 318 318 318 318 317 315 315 314 313 312 321 326 323 326 315 312 311 312 308 309 309 305 301 303 311 311 312 314 312 314 313 314 318 322 330 335 337
319 319 319 319 319 318 318 317 317 318 318 317 316 315 315 314 312 314 328 325 324 325 317 314 313 310 307 309 307 306 303 308 312 313 315 312 311 315 311 309 318 321 327 332 333
319 318 318 318 319 318 317 316 316 317 317 316 315 314 313 315 304 319 329 325 325 320 316 312 310 307 305 303 308 304 307 309 312 312 310 309 313 314 310 308 315 327 330 328 331
318 317 318 317 317 317 316 315 316 316 316 314 313 313 314 313 313 326 326 326 318 317 313 309 308 307 303 305 306 305 307 307 311 313 312 313 311 312 314 319 325 330 329 327 329
318 317 317 317 317 316 316 315 315 315 314 313 312 311 313 307 319 325 320 318 317 316 312 312 309 310 306 306 305 307 307 306 309 310 311 310 310 311 315 320 323 325 322 323 324
318 316 316 317 316 315 315 315 315 314 312 312 311 313 312 312 320 325 319 316 316 315 311 314 314 309 310 306 309 306 302 305 307 308 308 312 303 307 316 319 319 320 321 322 322
318 316 315 315 314 314 314 314 313 312 311 310 310 315 310 321 322 320 322 318 319 318 316 317 316 312 309 309 306 302 303 299 305 308 309 308 299 309 316 317 317 319 321 322 323
317 316 315 314 314 313 313 312 311 311 310 311 314 314 310 317 315 317 320 314 316 317 316 314 314 309 309 303 300 301 295 298 300 307 307 305 301 310 315 316 316 318 321 321 322
317 315 314 314 313 313 312 311 311 310 312 316 316 312 316 309 315 314 318 316 314 313 311 310 309 305 305 302 292 295 297 299 299 304 304 301 303 308 313 313 316 317 320 320 321
316 315 314 314 314 312 310 314 311 311 313 311 310 310 309 315 317 313 315 313 314 312 305 307 302 298 301 303 302 301 299 298 301 304 302 301 303 305 312 312 313 315 317 319 321
315 314 314 314 314 312 314 312 315 320 311 313 312 311 314 314 308 310 316 308 308 303 307 303 298 304 305 303 301 300 298 299 302 304 304 302 302 306 310 311 314 314 315 317 320
314 314 314 314 312 311 314 314 323 323 312 310 312 310 311 314 307 308 312 310 306 303 302 300 302 305 303 301 299 300 298 300 299 303 305 303 302 305 308 311 314 316 318 318 320
314 314 313 311 308 317 313 319 321 320 304 303 306 310 312 312 306 312 313 310 305 302 303 301 306 302 301 300 302 298 304 302 300 300 295 304 293 302 307 307 310 313 316 318 320
313 313 311 311 321 313 324 328 324 323 290 304 306 315 311 307 307 309 314 310 302 303 303 302 303 303 301 302 305 302 305 303 303 301 300 300 296 297 306 304 307 311 314 317 320
313 313 311 312 315 323 327 333 326 304 289 300 306 304 305 307 305 309 308 312 310 304 306 302 309 306 305 306 306 306 304 303 303 301 294 297 297 297 303 306 309 312 315 317 319
313 313 312 318 315 327 331 324 302 293 302 298 300 303 303 302 303 305 303 303 299 296 298 302 303 306 307 303 306 305 301 293 291 292 291 299 297 299 304 308 310 312 314 316 317
312 311 313 319 323 329 328 311 294 298 299 303 301 302 300 302 302 303 302 299 304 304 298 296 295 303 307 305 301 302 301 293 286 288 291 300 293 299 308 309 311 315 315 316 314
311 313 313 317 322 324 316 300 298 298 303 300 301 298 299 301 301 302 302 301 303 305 298 297 296 305 305 306 305 301 298 303 297 297 293 295 299 305 307 307 309 313 314 313 313
314 309 313 322 324 320 309 299 302 305 305 303 296 300 297 300 298 300 301 304 304 307 309 302 295 302 304 306 306 304 305 296 296 287 286 292 294 295 302 304 307 311 312 312 313
315 308 319 325 323 312 302 302 304 309 308 302 300 299 300 300 300 299 300 305 307 306 308 304 300 300 303 301 300 301 299 299 299 297 289 287 293 302 301 305 306 310 312 313 313
313 303 324 328 306 309 304 305 304 308 311 306 306 303 301 302 301 300 299 302 309 308 302 305 302 298 299 304 306 305 302 301 294 291 294 294 292 304 305 306 308 309 312 314 314
309 311 325 323 303 307 307 305 306 307 307 306 303 305 305 302 298 301 302 307 309 308 304 306 300 295 296 301 303 299 301 301 299 299 292 291 293 305 305 305 307 309 311 313 314
311 304 313 314 314 308 304 303 303 309 307 308 305 308 306 304 306 303 304 305 307 308 300 304 302 298 294 297 301 298 299 301 299 294 294 295 296 300 302 303 305 307 310 312 313
311 307 311 303 307 308 307 304 301 302 308 310 307 305 304 301 303 303 306 304 306 301 305 306 299 300 301 300 299 299 299 299 297 298 295 296 296 299 301 303 305 307 308 309 311
309 308 312 310 309 307 303 303 302 304 306 305 305 305 306 303 305 302 306 306 304 307 306 306 300 299 297 300 299 297 299 298 299 299 298 298 297 304 305 305 305 306 307 307 309
318 317 314 306 309 305 305 303 304 308 309 309 308 307 306 308 312 312 312 311 309 307 305 304 301 296 291 296 296 291 297 298 299 301 300 296 301 304 303 303 304 305 307 307 308

GFSSW_sfc_thetae_018.txt.gz
Theta_e
320 321 320 319 321 319 320 319 318 319 319 319 318 317 317 316 314 313 309 315 318 326 321 316 312 312 313 309 310 309 299 297 300 303 304 312 311 316 320 317 315 319 322 330 336
320 319 320 318 318 318 319 318 317 318 318 318 318 317 317 315 311 311 319 328 325 327 313 311 308 309 308 307 308 304 299 300 311 311 306 309 310 313 313 316 317 316 318 333 334
320 319 319 318 317 318 318 317 317 317 318 318 317 316 315 313 312 315 329 326 326 323 313 315 313 310 305 307 306 304 299 305 309 311 312 311 311 313 310 309 315 318 325 329 329
320 319 319 319 318 317 316 316 316 317 317 316 316 315 315 313 303 317 329 327 327 317 313 313 310 305 303 302 307 301 305 306 309 314 312 311 313 310 308 310 314 320 326 328 328
319 319 318 317 317 317 315 315 316 316 316 315 314 313 313 312 313 324 330 325 316 315 313 310 306 305 302 305 305 303 306 308 312 312 312 313 310 310 309 314 316 319 321 326 327
319 318 317 317 317 315 316 315 315 315 316 314 313 312 312 307 320 324 321 317 313 313 313 310 308 309 306 304 303 306 307 307 309 310 312 309 309 312 312 315 314 320 321 323 323
319 318 317 317 317 316 315 314 315 315 314 313 312 312 311 310 321 323 318 314 316 315 310 312 313 309 309 305 308 307 302 305 307 308 309 310 307 306 314 316 318 317 319 319 320
319 318 316 315 315 315 314 314 315 314 313 312 311 313 308 321 323 320 321 317 317 316 314 316 316 311 308 311 306 302 303 297 304 307 309 309 298 307 316 315 314 315 316 317 318
318 318 316 315 314 314 314 314 313 313 312 312 312 314 310 320 315 317 319 316 316 316 316 315 313 308 308 302 299 300 294 297 300 307 306 305 300 307 314 314 313 316 316 318 318
318 317 316 315 314 313 313 313 313 311 312 315 315 309 316 310 315 314 318 317 313 313 311 310 308 304 304 300 292 294 295 297 298 302 305 301 301 306 310 313 314 315 316 318 318
317 317 315 314 314 313 310 312 310 309 312 308 310 309 310 314 317 313 316 314 314 310 304 307 301 298 301 303 302 300 298 297 300 304 302 300 301 305 309 311 312 314 316 317 318
317 316 315 314 314 313 313 312 316 320 310 313 309 312 314 315 308 311 315 308 308 303 306 302 298 303 305 304 302 300 298 297 300 302 301 300 300 303 308 309 312 313 315 317 319
316 315 314 314 313 312 313 313 321 320 310 311 309 309 311 313 307 307 311 309 305 302 302 299 302 306 303 302 299 299 298 298 298 300 301 301 298 301 306 310 311 313 315 316 318
315 314 313 312 308 317 313 317 318 322 302 304 305 309 311 312 305 312 313 309 306 302 302 302 306 303 301 299 300 297 303 301 300 298 293 302 291 300 303 305 308 311 313 315 318
314 313 312 311 318 313 322 321 325 322 290 305 306 315 312 306 306 308 314 310 303 302 304 300 301 301 299 301 304 299 304 302 301 298 298 296 294 298 303 301 306 310 314 316 319
313 313 312 312 314 318 324 330 324 303 289 300 306 304 304 305 305 308 308 310 309 303 305 302 307 306 304 305 305 306 303 303 301 299 290 295 293 296 298 301 306 309 313 316 318
313 313 312 318 313 324 325 324 301 292 302 299 300 303 302 301 302 303 303 301 299 295 297 300 301 305 307 301 305 303 298 291 289 289 290 299 295 297 303 306 308 310 312 316 319
312 312 312 317 322 326 325 310 292 297 299 302 302 302 299 302 301 301 301 298 302 301 297 295 294 302 305 302 299 301 298 293 282 284 291 298 292 297 308 310 309 313 315 317 317
311 313 313 316 320 323 313 298 297 300 302 301 300 297 298 301 301 300 299 298 301 303 296 294 295 305 306 306 304 298 297 302 295 293 292 293 297 304 306 306 307 312 314 314 315
312 309 310 320 322 316 307 299 302 306 304 303 296 299 296 299 298 299 299 302 301 305 305 300 292 303 304 305 305 302 304 296 297 287 285 290 293 295 302 303 306 309 312 313 314
312 305 316 323 321 310 300 302 305 308 307 302 299 298 299 299 299 298 299 303 305 306 307 303 300 299 303 300 297 300 297 298 297 298 291 288 291 301 301 304 306 308 313 313 313
311 299 320 324 302 303 303 305 305 306 308 306 305 302 300 302 299 299 298 302 309 307 301 304 300 298 298 304 305 303 301 299 296 292 296 294 291 304 304 305 308 308 311 314 314
305 308 322 320 296 300 306 305 306 305 306 306 303 305 305 302 298 301 301 309 310 306 303 305 299 293 295 301 304 300 300 301 301 300 294 291 293 304 304 303 306 308 310 313 314
307 300 310 314 307 304 304 302 302 308 306 307 305 306 303 301 303 300 302 306 309 308 302 308 301 296 293 296 301 298 299 299 298 295 294 293 294 299 302 303 304 306 308 310 312
310 304 309 301 304 306 307 304 301 301 307 308 304 303 303 300 301 301 304 305 307 302 305 305 297 299 299 300 300 300 299 299 297 298 293 296 296 299 301 303 305 307 308 307 308
305 306 310 306 307 306 305 304 302 303 305 304 304 304 305 302 303 301 304 306 304 306 305 306 300 301 299 300 300 297 299 299 298 298 298 298 297 303 305 305 305 305 306 307 306
311 315 311 305 305 305 305 306 304 306 308 308 307 306 304 308 311 312 313 312 309 307 305 305 303 298 293 296 295 290 297 298 299 300 299 294 300 304 303 303 305 305 305 307 307

GFSSW_sfc_thetae_024.txt.gz
Theta_e
322 322 321 320 319 318 317 317 316 317 317 317 317 318 317 317 314 309 303 309 311 322 320 308 307 305 303 300 302 297 290 287 289 300 302 309 308 314 314 310 311 314 320 322 326
323 322 321 320 319 318 317 317 315 315 317 317 317 317 317 316 307 305 314 322 322 326 309 304 303 302 296 296 298 295 289 291 299 306 303 306 305 309 310 310 309 314 321 324 323
323 322 321 320 319 318 317 316 315 315 315 317 317 317 316 313 305 311 326 323 326 325 307 307 306 302 296 296 297 295 292 301 305 309 307 304 306 311 310 307 309 314 316 320 320
321 321 320 320 319 318 317 315 314 314 316 316 316 316 315 308 299 308 329 328 328 314 308 304 302 298 295 295 298 294 298 305 307 310 308 308 309 306 304 311 313 321 321 320 319
320 319 319 320 319 318 316 315 314 314 315 316 316 315 308 305 308 321 327 327 315 310 305 304 303 302 296 297 297 295 301 306 308 310 309 312 306 305 308 311 315 322 321 318 318
319 318 318 319 318 317 316 315 314 314 315 315 315 313 305 299 318 321 316 312 309 306 307 306 305 304 299 298 296 300 305 305 308 308 308 304 306 306 308 314 316 320 319 318 318
320 318 318 318 317 316 316 315 314 314 315 315 314 309 304 300 316 316 313 308 306 307 304 308 307 303 303 300 304 301 300 305 307 306 305 305 301 304 309 313 313 315 320 321 320
320 318 317 316 316 315 314 313 313 314 315 314 313 306 300 315 313 312 311 309 309 308 308 309 309 305 303 303 301 296 298 294 303 306 306 302 294 303 310 312 312 314 316 316 322
320 318 316 315 314 314 313 313 313 314 315 314 305 305 303 318 313 316 312 308 308 308 308 311 306 302 301 296 292 293 287 291 298 306 304 299 296 304 309 311 310 309 311 313 319
319 318 316 315 314 313 312 313 313 312 311 311 309 299 306 306 313 312 311 312 308 307 306 304 299 296 295 292 286 289 289 289 293 297 301 296 295 305 308 310 309 308 309 309 314
319 318 316 315 313 312 310 306 303 304 303 300 299 301 305 310 312 308 310 309 308 304 297 300 293 290 293 296 299 297 294 290 292 298 296 296 299 304 307 308 308 308 310 309 312
318 317 316 315 313 313 308 303 306 306 300 309 308 307 309 310 303 307 310 303 303 297 300 296 292 298 302 302 298 297 294 293 295 297 295 294 296 303 305 306 307 307 309 310 311
317 317 315 313 312 309 305 306 313 310 300 306 311 309 310 307 303 304 306 303 301 298 297 292 297 303 302 300 297 296 294 294 293 293 294 293 290 298 303 305 306 309 311 312 312
316 315 313 312 306 308 306 312 312 310 294 299 305 309 306 306 301 308 307 303 300 298 297 296 301 300 299 298 298 291 298 297 296 291 286 291 283 293 298 302 305 308 308 309 311
315 314 311 312 307 308 312 313 310 309 278 299 305 311 305 302 302 302 308 304 298 299 297 295 297 297 297 297 299 295 299 297 296 292 290 291 288 290 296 295 302 306 309 306 310
314 313 311 310 308 307 312 313 313 292 282 299 303 300 299 301 302 302 302 305 305 300 299 297 300 300 299 302 300 301 298 297 295 291 283 292 288 287 294 297 300 304 309 309 310
314 313 312 312 305 312 315 312 293 287 298 297 297 299 298 297 299 299 297 295 294 290 291 295 297 300 303 297 299 299 291 284 283 281 281 294 290 291 297 300 300 301 303 307 312
313 312 312 312 311 312 315 304 287 293 296 301 299 298 295 297 297 297 295 292 294 294 291 290 288 298 303 299 295 295 292 284 280 279 285 293 288 293 300 302 304 303 304 309 311
312 310 310 311 311 312 307 293 289 296 299 297 297 294 293 297 296 295 293 293 295 295 290 290 291 301 302 303 301 295 290 295 289 289 285 288 293 297 300 300 301 303 305 308 309
307 307 308 311 312 309 301 293 296 303 303 299 293 295 290 293 293 292 292 296 296 298 300 296 290 298 302 303 301 298 298 289 288 282 280 285 286 290 296 298 301 301 302 307 308
305 300 309 313 311 301 293 294 299 304 305 301 297 295 294 293 294 292 293 296 298 300 302 299 293 294 300 297 295 294 291 292 292 286 281 279 284 292 297 299 299 301 303 306 308
302 294 310 313 295 296 295 298 299 302 305 304 303 299 294 295 294 293 294 297 302 302 297 299 295 286 294 300 300 297 294 293 283 284 283 281 285 295 296 298 300 302 304 308 309
297 300 310 308 289 290 297 299 300 299 302 302 300 302 300 296 292 295 297 304 304 302 299 299 291 283 287 292 297 294 295 296 293 286 284 279 284 296 295 295 299 299 304 308 309
299 293 301 302 300 292 293 295 295 301 300 303 302 303 299 296 298 296 298 303 305 303 302 301 293 288 283 287 292 290 294 295 292 282 284 284 288 294 294 294 296 298 301 305 308
299 295 298 291 294 294 294 296 294 294 302 303 300 301 298 292 294 294 300 300 303 301 301 298 290 291 292 295 295 293 293 294 292 291 285 289 290 294 295 295 295 297 298 302 304
296 298 300 296 297 294 294 293 293 296 299 298 299 300 299 294 296 294 300 298 297 299 297 298 290 290 289 293 293 291 293 293 293 293 292 291 291 295 295 295 296 297 298 297 299
300 303 302 296 296 293 292 294 294 297 300 301 301 300 297 299 302 302 304 304 302 298 295 294 289 285 284 288 288 283 289 291 293 293 293 287 291 295 294 296 295 296 298 298 299

GFSSW_sfc_thetae_027.txt.gz
Theta_e
322 322 321 321 319 318 318 318 317 316 315 315 317 317 317 317 314 308 302 308 310 320 320 306 305 303 302 299 299 294 288 285 287 295 300 307 305 311 312 308 315 319 318 323 327
323 323 322 321 319 319 318 317 316 316 315 315 316 316 317 316 307 304 314 319 321 322 306 302 301 299 295 295 296 292 287 289 294 304 302 305 305 308 307 308 313 317 323 325 323
323 322 322 321 320 319 318 317 316 316 315 315 316 317 316 313 304 309 326 322 324 323 305 305 304 300 294 294 294 292 290 294 304 307 306 304 306 310 308 304 310 314 317 319 319
322 321 321 320 320 319 317 316 316 316 315 315 316 316 315 307 295 306 328 325 326 317 306 302 300 296 294 293 295 291 296 302 305 308 306 304 306 304 305 309 316 317 319 319 319
320 320 320 320 320 319 317 316 316 315 315 314 316 315 307 300 302 318 327 326 319 308 304 302 301 299 295 295 295 294 296 298 307 308 307 310 305 305 306 317 318 320 319 318 318
320 319 319 319 319 318 316 315 315 314 314 314 315 314 303 292 313 319 317 312 308 304 303 303 303 303 299 296 295 298 301 304 306 306 308 305 306 306 307 319 318 318 316 315 317
321 319 318 318 318 317 316 315 314 314 314 314 314 309 302 296 314 313 313 308 305 305 304 306 306 302 301 298 303 301 301 304 304 305 304 306 302 303 309 317 317 316 316 316 318
321 320 317 317 316 315 314 314 313 314 314 314 312 304 300 310 311 311 309 308 307 306 305 306 306 303 300 301 300 295 296 293 300 305 306 300 294 303 309 311 312 316 315 316 317
319 319 317 315 315 314 313 313 313 314 314 314 303 303 301 314 310 315 311 307 307 306 306 309 304 300 299 294 290 291 287 290 298 306 303 298 295 303 308 310 310 312 316 317 317
317 318 318 315 314 313 312 313 313 311 310 311 308 296 301 303 310 311 310 309 306 305 304 302 297 294 293 291 285 288 289 288 291 299 301 297 294 302 307 309 311 307 309 315 317
316 318 318 316 314 312 309 305 302 303 304 297 296 296 301 308 309 307 309 308 306 302 295 298 293 289 292 294 295 294 292 291 292 296 298 297 295 301 304 307 305 306 307 308 317
315 316 317 315 314 312 307 301 304 306 298 306 306 304 307 309 304 304 308 302 301 296 298 294 291 296 299 298 298 297 293 292 295 295 295 292 293 300 304 307 306 306 307 308 315
313 316 316 314 312 309 303 305 312 310 296 302 308 307 308 309 304 301 305 302 298 296 296 291 295 300 299 297 295 294 292 292 293 291 293 292 291 299 304 303 305 306 308 309 310
312 314 314 312 306 307 306 312 312 309 292 296 304 307 309 305 300 307 305 303 299 296 296 294 299 298 297 296 296 291 296 295 294 289 285 289 282 290 300 302 303 304 306 308 309
312 313 312 312 306 307 311 312 310 307 277 295 303 311 304 300 300 302 305 302 296 297 296 294 296 295 295 296 297 293 297 295 294 290 288 289 286 288 296 298 302 304 305 307 308
312 313 312 310 307 308 310 314 311 289 279 294 303 298 297 299 299 300 301 303 301 298 297 295 299 298 297 300 299 298 296 294 292 289 282 289 286 286 291 297 302 306 306 307 305
311 313 311 312 304 311 313 312 293 282 295 295 296 297 295 295 296 298 295 295 293 289 289 293 295 298 301 296 297 296 290 283 282 281 280 291 288 290 295 298 298 300 304 308 307
310 312 312 312 311 310 315 303 287 292 293 301 297 296 293 296 295 296 293 291 293 292 289 288 286 296 300 296 293 293 290 283 279 278 283 291 286 291 298 301 300 300 302 303 306
309 309 310 312 312 309 307 292 288 293 299 294 295 292 291 295 294 294 292 291 293 295 289 288 289 299 301 302 299 295 289 293 287 285 283 285 291 294 298 298 299 300 304 304 307
301 302 306 314 312 306 299 293 296 300 302 300 291 293 289 292 292 291 291 294 294 296 297 294 288 296 300 300 300 296 297 287 287 281 280 283 284 286 295 297 299 299 303 305 307
300 297 306 313 311 299 290 293 298 303 303 299 296 293 293 291 292 290 291 294 296 295 298 296 291 290 297 294 293 293 290 290 290 285 280 278 283 291 294 297 298 297 301 305 307
298 290 308 312 297 295 290 295 299 300 302 302 302 299 294 293 292 291 291 295 298 300 295 297 291 284 291 297 298 295 293 291 282 283 281 280 284 294 295 297 297 299 301 302 307
293 297 308 307 291 290 294 296 299 298 298 299 299 300 298 293 289 293 294 300 301 299 296 297 290 282 287 292 294 292 293 294 290 285 283 279 283 294 294 294 295 298 300 303 307
295 290 299 301 299 294 291 293 295 301 299 300 299 301 298 294 295 293 295 301 302 300 301 299 291 288 284 288 291 288 292 293 291 282 283 282 287 292 294 294 295 295 297 301 305
295 292 295 291 292 295 294 293 293 294 299 298 295 298 297 291 292 292 297 298 300 300 298 297 290 289 290 291 293 292 292 292 290 289 285 288 288 293 293 294 294 294 296 300 303
291 294 299 293 296 294 294 292 292 296 296 294 293 298 297 294 294 292 297 296 296 297 295 296 287 289 288 291 291 289 292 292 291 291 290 290 289 293 293 293 294 295 296 297 300
298 300 299 294 293 292 291 292 293 298 298 299 299 298 296 298 300 298 300 300 300 297 293 292 288 285 283 286 286 283 287 290 291 292 292 287 291 293 293 294 293 294 296 297 299

GFSSW_sfc_thetae_030.txt.gz
Theta_e
322 322 322 321 320 319 318 318 317 316 315 315 315 316 317 317 314 306 301 307 309 319 319 305 303 302 300 297 296 293 287 284 286 290 296 306 304 308 314 313 316 319 318 322 324
323 323 323 322 320 319 318 318 316 316 316 315 315 316 317 316 307 303 313 318 321 322 304 301 299 298 294 293 295 291 287 288 293 295 300 304 304 307 308 310 313 317 323 325 323
324 323 322 321 320 319 319 317 316 316 316 315 315 317 316 312 302 306 325 322 323 320 304 304 302 299 292 293 293 290 289 293 296 304 304 302 304 308 307 304 313 313 319 320 321
323 322 321 321 320 319 318 316 316 316 315 315 315 316 315 307 294 303 328 325 325 315 304 300 299 295 292 291 294 290 294 296 299 307 304 303 305 304 306 308 317 319 320 318 318
321 321 321 321 320 319 317 316 316 315 315 315 315 315 307 297 297 317 327 326 316 308 303 300 299 297 293 293 293 292 294 298 304 307 307 307 305 306 310 314 318 319 318 318 319
319 320 320 320 319 318 317 316 315 315 314 314 315 314 303 291 308 317 316 309 308 304 301 301 301 301 298 296 293 296 297 301 305 306 307 305 305 307 312 316 316 316 316 316 317
318 319 319 319 318 317 317 315 314 314 314 314 314 309 302 296 311 310 311 307 306 304 302 304 305 300 299 296 300 300 299 302 303 303 303 306 300 303 314 316 314 314 313 315 317
317 318 318 318 317 316 315 314 314 314 314 314 313 305 299 308 309 311 308 307 305 305 303 304 304 301 298 299 297 293 295 290 302 304 304 300 293 304 315 315 312 313 314 314 316
315 315 316 317 316 315 314 314 313 314 314 314 304 304 296 310 306 311 310 306 305 304 304 307 303 298 297 293 289 290 285 289 296 305 302 298 293 304 312 313 313 313 313 313 314
314 315 315 316 315 314 312 313 312 311 311 311 308 296 297 300 307 309 309 308 305 303 302 300 296 293 292 290 284 287 287 287 290 299 300 295 294 301 307 309 311 312 314 315 315
314 315 315 316 316 313 308 304 299 300 303 299 295 294 297 306 309 305 308 307 304 301 294 297 292 288 291 293 293 293 291 289 291 295 299 298 295 300 304 306 308 309 312 314 316
314 313 314 316 315 312 306 300 303 304 298 304 304 302 304 309 304 305 308 301 299 294 296 294 290 295 296 296 295 294 291 291 293 294 296 292 293 298 302 306 309 308 309 311 314
312 312 312 315 313 309 302 303 311 309 297 300 305 304 305 308 303 303 303 300 297 294 294 291 293 298 297 295 294 292 291 291 291 291 290 290 289 296 302 303 305 307 309 310 310
311 311 311 313 307 304 302 310 312 309 291 294 301 305 307 307 300 306 304 302 297 295 295 293 297 297 295 294 295 289 295 293 292 288 284 288 282 288 297 301 302 303 304 306 308
310 311 311 312 304 304 309 310 309 305 276 295 301 310 306 300 299 301 304 301 295 296 295 293 294 294 293 294 296 293 295 293 293 289 287 288 285 287 295 298 302 305 303 305 307
309 310 311 311 309 306 310 311 309 290 277 291 301 299 297 298 298 298 299 301 299 296 295 294 297 296 295 297 297 297 294 292 291 288 282 287 285 285 289 297 303 306 306 305 305
309 310 311 313 306 308 312 308 294 283 293 291 296 296 294 293 295 295 294 294 291 288 288 291 293 296 298 293 296 293 288 282 281 281 281 290 287 289 294 295 298 302 304 305 306
308 309 310 312 312 307 312 300 285 290 291 298 297 294 291 293 293 294 292 290 291 291 288 287 285 295 298 295 292 291 290 282 278 277 281 289 284 289 296 298 299 299 299 301 304
308 303 305 309 312 310 304 289 287 291 297 294 294 290 290 293 293 292 291 290 292 294 288 286 287 296 298 299 295 292 287 291 285 284 282 284 289 293 294 297 299 299 300 298 302
301 300 299 312 313 307 297 290 294 297 301 300 289 292 287 290 290 291 289 293 292 296 296 293 286 294 297 298 297 293 295 287 285 281 279 282 283 285 291 295 298 299 301 301 303
300 294 298 312 311 300 289 291 295 302 302 298 296 293 291 290 291 289 290 292 295 293 295 293 289 288 295 293 291 291 289 288 289 284 280 277 282 290 292 294 295 297 300 301 305
297 287 305 310 295 295 291 293 297 300 303 300 300 298 295 292 290 290 290 293 296 297 293 295 289 282 290 294 296 293 291 290 282 283 281 280 282 293 292 293 294 295 298 299 304
291 293 306 304 287 290 294 295 296 297 298 298 297 299 297 292 288 291 292 296 298 296 294 296 288 281 285 289 292 291 292 291 288 284 282 278 283 293 293 293 295 295 297 300 303
292 285 296 299 297 292 291 292 291 300 298 299 297 299 296 294 293 290 292 298 299 297 300 299 290 287 284 286 290 288 291 291 290 282 283 282 286 291 293 293 294 294 293 295 302
293 288 295 289 290 292 293 292 291 291 298 299 295 296 295 291 290 291 295 296 298 300 296 295 288 288 289 290 291 291 291 290 289 288 285 287 286 291 293 293 294 293 293 296 300
289 290 296 294 292 292 293 291 291 293 295 294 293 295 296 293 293 290 295 294 294 296 294 294 288 287 287 290 290 289 290 290 290 289 288 288 288 293 292 292 293 292 296 297 299
294 295 295 292 291 289 290 291 292 296 297 298 297 295 293 296 300 298 298 298 297 295 292 291 287 285 284 286 286 283 287 290 289 290 291 286 291 292 291 292 291 292 296 296 295

GFSSW_sfc_thetae_036.txt.gz
Theta_e
324 324 324 323 322 321 320 319 319 318 318 318 318 317 317 317 315 314 311 315 316 319 318 314 313 312 312 309 310 309 300 300 299 300 303 312 311 316 320 319 320 322 324 324 323
322 324 325 324 322 321 320 319 318 318 318 318 318 317 317 317 314 311 317 320 322 324 313 309 307 309 308 307 309 305 301 298 303 304 303 310 313 314 315 317 317 318 322 323 322
319 320 322 324 322 321 320 319 318 318 318 317 317 317 317 316 310 314 322 321 323 321 312 312 309 308 305 307 306 305 301 304 304 305 306 310 312 315 313 312 317 314 317 320 321
317 318 319 321 323 322 320 318 318 318 318 317 317 317 316 315 299 317 328 324 325 318 312 309 307 305 303 302 306 301 305 305 305 308 309 310 314 313 314 316 321 320 320 319 319
315 316 317 319 321 321 319 318 318 317 317 316 316 316 314 306 304 322 329 324 320 314 311 309 307 307 303 304 305 302 305 306 308 307 312 313 311 312 315 322 323 321 319 318 319
315 315 316 317 319 320 319 318 317 317 316 316 316 315 310 300 315 323 321 318 316 313 310 311 309 310 306 305 304 305 306 309 309 311 313 311 312 314 317 322 318 320 318 318 319
315 315 315 315 316 317 318 318 316 316 316 316 315 313 307 305 316 322 317 315 315 313 309 311 312 309 308 305 307 306 305 307 309 311 310 313 308 311 317 319 318 318 318 319 320
314 314 314 313 314 315 316 316 316 316 316 315 314 312 304 312 316 317 318 315 315 315 312 312 312 310 308 309 306 303 305 298 306 309 310 311 302 313 316 315 314 314 316 317 318
313 313 313 313 313 314 315 316 315 315 314 314 312 310 303 312 309 313 318 313 314 313 312 311 311 309 307 302 301 302 297 297 302 309 309 309 303 314 317 313 312 313 313 315 317
311 311 312 313 313 313 314 313 315 312 314 314 311 304 306 302 309 315 316 315 311 310 308 308 309 304 303 301 294 296 297 299 301 307 308 305 304 313 316 313 313 314 313 314 316
311 311 311 312 312 313 315 318 311 308 310 307 306 304 301 309 315 313 316 312 313 310 304 307 302 298 300 302 302 300 298 297 301 305 304 303 304 309 314 314 314 315 316 315 316
312 310 311 312 311 313 317 311 310 311 302 309 308 308 310 308 305 311 316 309 308 303 306 303 299 302 302 303 302 301 298 298 301 302 302 302 302 307 313 315 316 316 317 319 320
311 310 310 310 311 313 315 314 317 315 305 305 309 307 307 309 304 307 312 310 306 303 303 301 302 304 302 302 300 301 299 298 298 300 302 301 299 303 309 314 316 318 319 320 320
310 310 310 309 308 314 311 316 317 316 298 296 301 306 308 309 304 311 312 309 305 302 304 303 305 302 302 300 302 297 302 300 299 298 294 300 293 300 305 308 312 315 316 319 320
310 309 309 309 307 310 313 318 317 314 283 298 302 312 309 304 304 305 313 309 303 302 303 300 302 301 300 301 303 299 303 301 300 299 297 297 294 298 302 304 308 313 316 318 320
310 309 309 309 308 313 316 319 315 296 283 294 303 302 302 304 303 305 306 309 309 304 304 303 306 305 303 304 304 305 302 301 301 299 292 295 295 297 300 302 305 310 315 318 320
309 309 308 308 304 316 318 313 295 287 295 293 298 302 300 299 300 302 301 301 299 296 297 301 301 304 305 302 304 303 300 292 290 290 289 297 295 298 303 305 306 308 311 317 320
308 308 308 307 310 312 311 301 286 290 292 299 300 300 297 298 299 300 299 298 302 301 297 294 292 300 304 303 300 300 300 293 284 286 290 296 291 299 305 307 309 311 311 313 317
308 304 307 307 310 308 301 288 287 291 297 295 297 296 296 297 298 299 298 298 301 302 296 295 294 302 304 305 304 300 296 301 294 295 292 294 297 303 304 305 307 309 310 312 314
303 299 301 310 311 303 293 290 292 297 299 299 292 296 294 296 294 297 296 300 300 303 305 300 293 301 303 306 305 302 304 295 297 287 285 291 293 295 299 301 304 306 308 311 314
301 292 301 310 309 294 286 292 295 299 302 299 297 295 296 297 296 296 296 298 303 302 305 302 299 298 302 300 299 300 298 299 298 296 289 287 292 302 302 303 304 307 308 311 313
297 286 305 306 290 291 288 295 297 297 303 302 303 301 297 297 297 296 295 298 304 305 299 303 300 294 297 302 304 303 300 300 294 291 294 293 292 304 306 306 306 307 307 310 313
292 292 304 301 285 287 293 294 297 296 297 300 300 303 304 300 295 297 297 304 304 303 301 303 297 291 293 297 301 298 300 300 299 298 293 292 293 305 305 306 307 307 308 308 311
291 285 293 295 296 292 291 291 291 298 298 300 301 303 302 300 300 296 296 300 303 304 302 303 299 295 290 294 298 296 298 300 299 294 294 295 296 301 304 305 307 308 309 309 308
292 289 293 284 289 292 294 292 289 290 297 300 299 300 300 296 297 297 297 300 300 300 303 304 295 297 297 298 298 297 297 298 297 298 295 297 298 301 304 306 307 307 306 306 307
289 292 295 293 292 290 291 292 291 292 295 294 296 300 301 297 298 296 299 300 299 302 302 303 296 298 295 298 297 295 298 298 299 299 299 299 299 305 307 307 306 305 305 307 309
299 299 297 292 292 290 288 292 292 294 296 298 298 298 298 299 303 303 303 302 302 302 301 300 299 295 291 296 295 291 296 298 299 301 301 296 301 305 304 305 306 305 307 307 308

GFSSW_sfc_thetae_039.txt.gz
Theta_e
322 323 325 325 324 322 322 321 320 319 319 319 319 319 319 318 316 318 315 317 318 322 319 316 315 315 314 311 312 311 302 299 300 301 302 312 312 319 321 319 322 326 327 327 325
319 320 321 323 323 322 322 321 320 319 319 319 318 318 318 317 316 313 319 322 321 323 316 312 310 312 309 310 310 306 302 300 305 306 305 309 312 316 315 317 319 318 323 324 324
317 317 318 319 322 322 322 320 319 319 319 319 318 318 317 317 313 314 322 323 324 323 317 313 311 310 307 309 308 307 302 305 306 308 309 309 312 316 314 312 317 318 318 321 322
315 315 314 316 319 321 321 320 319 320 319 318 318 318 317 317 301 321 326 324 324 319 313 311 309 306 306 304 308 303 306 307 308 308 309 310 315 313 316 318 325 323 322 322 320
315 315 314 314 316 319 319 319 319 319 318 318 317 317 317 310 309 326 329 324 318 317 312 309 308 308 305 305 307 305 306 308 310 310 311 314 312 313 316 322 323 322 320 319 319
315 315 315 314 315 316 317 318 318 318 318 318 317 315 314 304 315 323 322 317 317 314 313 313 312 312 309 307 306 307 307 309 310 311 314 312 312 315 318 322 320 320 319 318 318
313 314 314 314 314 315 315 316 317 317 317 317 317 316 309 308 316 322 320 317 317 316 312 314 315 311 311 306 310 308 305 308 309 311 311 314 305 311 318 320 318 316 316 315 317
313 313 313 313 313 314 314 315 315 317 317 316 316 315 306 316 317 318 320 315 316 317 315 316 316 313 310 311 308 304 306 301 306 309 311 306 297 313 318 317 315 315 316 315 318
313 312 312 312 313 313 313 315 316 317 315 314 313 311 305 314 309 315 321 314 314 315 316 314 313 310 310 304 301 303 297 301 302 309 309 309 300 313 317 313 311 314 314 314 317
312 312 311 312 312 312 311 314 317 313 315 318 315 308 310 306 310 311 321 318 313 312 309 309 309 305 305 302 294 297 298 300 301 306 308 306 304 313 316 314 313 310 311 311 314
312 312 311 311 312 311 313 318 312 312 313 307 308 305 305 310 315 312 315 315 313 310 303 309 303 300 302 304 303 303 300 299 302 308 305 304 305 307 315 314 313 313 313 314 316
312 312 311 311 311 311 315 310 311 313 303 309 309 310 312 310 307 309 316 309 308 303 306 305 301 305 306 304 302 302 300 299 302 304 304 303 303 307 314 314 315 314 315 315 316
311 312 311 310 311 310 313 313 320 318 303 304 309 308 308 311 305 307 313 310 306 304 304 302 304 306 303 301 300 301 299 300 299 303 305 303 300 303 310 315 317 316 317 317 317
309 310 310 310 306 310 311 317 319 320 298 298 304 307 310 309 304 311 314 310 307 303 304 304 307 303 301 300 302 297 303 302 300 299 295 303 293 300 305 308 313 316 317 317 318
310 308 310 308 308 310 316 321 321 318 284 300 303 313 309 304 304 306 314 310 304 303 305 302 303 302 300 301 304 300 305 302 302 300 299 299 295 298 303 303 307 313 316 317 319
310 310 309 308 309 310 314 320 318 296 284 296 304 302 303 304 303 307 307 311 310 305 305 304 308 306 304 305 305 306 303 303 303 300 293 297 297 295 300 302 305 310 314 317 318
308 309 308 309 304 313 312 311 293 286 296 294 297 302 302 300 301 303 301 302 299 296 298 301 303 306 307 302 305 304 300 292 291 291 291 299 296 298 302 306 306 307 312 316 319
307 308 308 307 311 312 305 298 285 290 292 300 299 302 298 300 300 301 300 298 303 302 299 295 294 302 306 303 301 301 300 294 284 289 291 299 292 298 306 308 309 310 312 314 318
307 307 305 308 312 311 295 286 289 292 296 296 299 297 298 299 299 299 299 298 301 302 296 296 296 305 305 306 305 301 297 303 296 298 293 296 299 303 305 305 307 308 312 314 314
304 302 302 309 311 304 291 287 293 296 297 298 293 298 295 298 296 298 298 301 300 304 305 301 295 302 304 306 306 303 306 296 297 288 287 292 295 296 301 303 305 306 308 312 315
302 294 303 308 310 295 284 291 296 299 299 295 295 295 297 298 299 297 298 301 303 303 304 302 299 299 303 301 299 300 300 301 300 297 290 289 293 304 303 305 304 307 308 310 312
298 289 305 308 290 292 286 294 296 298 300 298 301 299 297 298 298 297 297 301 305 305 299 303 300 295 298 304 305 303 301 301 295 293 296 295 294 306 306 307 307 308 309 311 313
292 293 308 305 284 289 292 292 295 295 297 297 297 301 303 299 296 300 300 304 305 304 302 304 299 293 294 300 303 301 303 303 302 301 295 292 294 306 306 306 307 308 310 311 311
292 286 294 296 297 293 290 291 290 296 296 299 297 300 299 299 302 298 300 303 306 305 304 305 300 296 292 295 300 297 299 301 300 296 295 295 297 302 304 306 308 309 311 311 312
293 291 293 285 290 294 294 292 290 290 297 299 297 296 297 295 296 298 301 302 303 302 304 304 297 298 299 299 299 299 299 299 298 299 295 297 298 302 306 306 307 310 309 309 310
288 293 296 293 293 292 292 291 290 292 294 295 295 297 299 296 298 297 300 301 299 302 301 305 297 299 296 299 298 296 299 299 299 299 299 299 299 306 308 308 307 308 308 309 310
296 301 296 293 291 291 292 292 291 294 296 298 297 297 297 300 303 305 306 304 304 302 301 301 299 296 292 297 297 293 297 298 299 301 300 296 302 306 306 306 307 308 309 310 311

GFSSW_sfc_thetae_045.txt.gz
Theta_e
318 318 318 318 318 318 320 320 321 321 321 321 321 320 320 320 317 313 309 316 317 325 319 312 309 309 308 303 303 300 290 289 293 296 299 308 307 311 312 315 317 320 319 322 326
315 315 316 315 316 316 317 319 319 320 320 321 321 320 320 319 312 309 318 325 324 324 309 307 305 306 300 300 300 295 289 293 301 299 299 307 306 307 308 307 311 316 321 324 324
314 315 314 315 316 316 316 316 317 319 319 320 320 320 319 317 309 311 324 326 325 322 309 309 310 304 299 299 300 297 292 299 301 303 302 300 306 312 307 303 311 310 316 320 319
314 312 313 315 315 316 315 314 315 317 318 319 321 321 319 314 298 313 325 325 325 312 309 308 304 298 296 295 300 295 300 301 301 303 302 303 309 311 313 315 320 318 320 320 317
312 313 314 314 315 315 314 314 314 315 316 317 319 320 313 307 308 321 326 324 315 311 308 306 302 300 296 299 301 298 300 302 303 304 303 310 308 309 312 317 319 321 319 318 315
314 312 312 314 314 313 314 313 314 314 315 317 319 318 310 300 314 323 319 314 311 308 306 307 303 304 303 302 300 302 301 302 303 303 306 307 306 307 312 318 317 317 314 315 313
314 313 313 312 313 312 312 312 312 313 313 316 318 316 308 304 315 314 316 314 311 310 306 309 308 304 304 301 306 305 298 300 301 306 306 308 303 304 309 311 315 315 311 313 314
314 314 313 312 312 311 311 311 311 312 313 315 318 311 302 314 314 314 314 312 314 311 310 310 310 306 304 305 303 298 297 291 299 305 306 303 295 306 307 308 309 309 311 313 312
313 313 312 312 312 311 311 311 311 312 313 314 309 306 302 315 309 313 312 310 313 312 309 313 309 302 302 296 293 294 290 292 298 305 305 301 297 306 308 310 306 307 309 311 311
312 313 311 311 311 311 310 310 310 312 314 317 314 303 308 303 310 311 311 311 311 307 305 304 300 296 294 292 286 291 291 291 295 301 303 300 299 304 307 308 305 307 311 312 311
312 312 312 311 311 311 308 304 303 304 309 306 305 302 306 311 314 308 310 307 310 303 296 300 293 291 292 296 298 297 295 293 297 303 301 302 300 301 303 305 305 307 307 312 313
311 311 311 312 312 311 306 299 303 303 298 309 311 311 312 312 304 306 308 301 304 298 299 297 293 297 300 299 299 298 294 292 299 305 300 298 300 302 303 305 305 303 307 308 312
311 310 311 310 311 306 301 301 307 304 297 300 305 302 302 303 299 301 304 302 302 299 298 294 297 302 300 299 298 297 293 293 295 299 300 296 293 300 306 309 309 305 306 308 311
310 310 309 308 303 302 299 311 312 309 291 292 295 300 302 302 298 306 308 302 302 298 299 297 302 300 299 298 298 292 298 299 298 294 289 295 288 300 305 306 308 306 305 306 310
310 310 309 308 302 299 305 308 309 310 272 292 296 305 303 298 301 302 308 302 297 298 298 295 298 298 297 299 301 296 301 299 299 294 291 292 291 295 305 302 305 308 308 308 310
309 309 309 304 302 303 307 308 307 288 279 291 302 300 300 299 300 302 301 303 303 299 299 298 303 301 300 303 302 301 301 299 297 293 284 291 290 290 299 301 306 308 310 310 311
309 309 307 304 296 305 308 303 287 280 290 288 296 300 298 297 298 298 297 295 292 291 291 297 297 302 303 298 301 298 294 286 284 283 282 297 293 293 299 302 307 307 310 311 311
308 308 307 305 303 306 304 293 280 285 286 294 294 295 295 297 297 298 296 293 296 295 292 290 288 298 302 299 296 295 294 286 280 280 287 296 291 293 303 303 304 305 312 312 312
308 304 302 304 304 305 296 284 282 286 290 288 289 287 293 297 297 297 294 294 296 297 291 290 291 300 302 302 300 297 292 297 292 292 286 291 296 300 303 301 300 301 303 307 311
302 300 299 305 304 301 290 285 287 293 292 290 285 290 288 293 294 294 294 297 296 299 300 296 290 299 301 302 301 298 301 292 293 283 281 290 291 293 298 301 300 299 300 301 306
301 293 300 304 304 293 283 285 288 294 295 290 287 287 288 288 290 292 295 298 299 299 301 298 294 294 300 296 294 295 294 295 297 294 284 281 288 298 299 301 301 300 303 304 305
298 287 300 303 289 289 284 288 293 291 295 292 293 291 289 290 289 290 294 298 302 301 296 299 295 289 293 300 302 299 295 295 288 288 290 285 287 300 300 301 302 303 303 303 305
293 292 301 299 283 283 287 288 289 289 291 292 290 292 293 290 287 294 298 303 304 302 297 298 293 286 291 295 299 296 297 297 296 294 289 283 288 303 304 303 303 300 300 303 304
291 285 293 295 291 287 284 285 286 292 291 292 291 293 290 288 292 293 296 302 303 303 302 301 295 291 286 291 296 293 296 297 295 287 288 289 293 298 301 301 302 302 303 304 303
291 287 291 285 286 288 288 287 286 285 291 292 289 289 289 286 289 289 297 298 300 301 302 300 292 294 294 297 297 297 297 296 294 295 292 293 294 297 300 300 301 304 306 307 305
285 289 292 289 291 288 288 285 285 288 289 288 287 290 290 287 288 288 294 297 296 300 298 300 291 294 291 295 296 294 296 296 296 296 297 298 296 303 304 302 302 305 305 305 305
296 295 293 289 288 287 285 286 287 290 291 293 291 289 288 291 294 297 300 301 300 297 295 294 292 290 287 293 293 287 293 295 296 298 297 292 296 299 300 303 302 303 304 304 304

GFSSW_sfc_thetae_048.txt.gz
Theta_e
316 316 316 316 316 316 316 317 317 318 318 318 320 321 321 320 318 313 305 312 316 324 320 310 306 305 303 300 301 297 289 286 289 291 296 307 305 308 313 314 316 319 318 322 326
313 314 314 315 316 316 316 316 315 315 317 318 319 320 320 319 313 309 316 325 325 326 307 303 304 304 299 297 298 294 287 291 295 297 301 306 303 306 304 308 312 314 321 324 323
313 313 313 313 314 315 315 315 314 314 316 317 318 319 319 317 307 307 325 326 327 324 306 306 307 305 297 296 295 293 291 297 298 301 302 304 305 310 306 308 312 309 315 319 319
315 314 314 313 314 314 314 314 314 313 314 315 317 319 319 313 292 311 325 325 325 311 307 306 304 296 294 293 296 292 298 299 299 302 304 305 309 311 310 312 317 316 320 319 317
313 315 314 314 314 314 313 313 313 313 313 313 315 318 313 305 306 317 325 323 314 309 305 304 301 297 294 296 298 297 298 300 301 304 308 311 310 311 312 317 318 318 319 316 314
314 314 314 314 313 313 313 312 312 312 313 313 314 317 308 298 309 314 318 313 309 305 304 305 303 301 298 299 298 301 301 300 301 300 308 306 307 307 312 316 315 314 313 313 313
313 314 314 314 314 313 313 312 312 312 312 312 313 314 305 302 311 310 312 310 308 307 303 306 306 301 302 299 304 302 296 298 299 298 304 305 299 302 314 315 314 313 314 312 313
313 313 313 313 312 312 312 311 312 312 312 313 313 311 300 313 312 311 312 310 312 310 308 308 307 304 301 302 300 296 295 290 297 299 304 301 294 303 312 310 310 308 310 311 311
312 312 312 312 311 311 311 311 311 312 312 314 310 305 299 316 309 312 310 307 309 311 308 311 305 301 300 294 290 292 288 290 294 300 303 299 295 303 306 309 307 308 309 310 309
312 312 312 311 311 310 310 311 310 311 310 315 313 302 305 301 307 308 309 309 306 308 306 302 299 295 293 290 284 288 289 288 291 298 302 297 297 302 304 307 305 304 308 309 309
312 312 311 311 311 311 308 302 298 301 305 304 304 303 302 309 314 307 309 307 305 302 295 299 293 290 291 293 295 294 292 291 294 300 301 299 298 299 303 305 303 304 307 309 309
311 311 311 311 310 310 305 297 299 298 292 301 305 308 310 311 306 308 306 299 299 295 297 294 291 296 298 297 295 294 292 292 294 300 300 297 299 299 301 303 303 304 308 310 310
311 311 311 310 309 305 301 300 305 305 293 298 302 303 305 308 304 304 302 299 299 297 295 292 295 300 297 296 294 294 292 293 292 297 296 295 293 298 302 304 306 307 308 312 310
310 310 309 308 302 301 299 306 305 306 289 291 296 298 302 301 295 304 302 299 297 297 297 295 299 297 296 295 296 291 298 296 296 292 287 293 284 295 300 301 306 304 306 308 312
310 310 309 308 299 297 303 305 308 302 270 289 295 304 302 296 297 298 303 300 294 298 297 294 296 296 295 296 298 295 299 297 296 292 289 290 287 291 299 300 303 303 304 307 312
310 310 309 304 301 301 304 305 304 288 276 290 297 295 294 295 297 300 298 302 300 296 298 296 300 297 296 300 300 301 298 297 295 291 284 290 288 287 297 301 305 307 304 304 308
309 309 307 305 294 301 303 302 286 277 289 286 294 298 295 291 294 296 294 293 290 288 288 294 295 299 300 296 299 296 292 285 283 282 282 294 291 292 297 305 307 307 308 306 307
308 308 307 305 301 301 301 293 280 284 285 292 291 291 293 295 294 295 293 289 293 292 289 287 285 295 299 297 294 293 292 285 279 280 284 293 287 292 301 302 304 309 311 310 308
308 304 302 302 302 301 293 283 283 286 289 287 289 285 285 295 295 295 292 292 293 294 289 288 288 298 299 299 298 293 289 295 289 290 284 288 293 298 300 299 299 303 306 308 309
302 300 299 302 302 299 288 284 287 291 292 291 284 287 285 286 289 291 292 295 295 297 297 293 287 296 298 299 298 296 298 290 290 282 280 287 289 290 297 297 299 298 302 307 310
301 293 301 303 303 291 281 284 288 293 293 290 288 286 286 286 289 288 290 296 297 297 297 295 291 292 296 294 293 293 292 294 294 289 282 281 285 295 298 300 299 299 300 302 307
298 287 300 303 287 288 282 287 292 290 293 291 291 290 288 289 288 288 289 294 303 301 293 296 292 287 290 297 299 296 294 294 288 287 287 284 287 299 299 299 300 301 301 301 304
293 291 300 298 282 283 287 286 289 289 289 290 289 290 291 288 284 289 292 299 301 301 296 298 290 283 287 292 296 294 295 295 294 291 287 283 288 300 300 300 301 300 300 302 301
289 285 292 293 290 286 284 284 284 291 289 290 289 290 288 287 290 287 289 296 302 302 302 301 294 289 285 289 293 291 295 295 293 284 286 287 292 296 299 299 301 301 301 302 302
289 286 291 284 285 287 287 287 284 284 290 291 288 287 287 283 285 285 289 295 300 302 302 300 290 292 293 294 295 294 295 295 292 292 288 290 292 297 299 299 301 302 303 304 304
285 288 291 287 290 287 286 285 284 286 287 286 285 289 288 285 286 284 288 289 294 300 298 299 290 292 289 294 294 292 295 296 296 294 293 294 293 301 303 300 299 302 303 303 303
297 294 293 289 288 286 285 285 286 288 290 290 289 288 287 289 292 293 293 295 298 298 295 295 292 288 284 291 291 286 292 294 294 295 296 291 296 300 299 300 300 301 303 303 303

GFSSW_sfc_thetae_051.txt.gz
Theta_e
313 313 314 315 315 315 315 315 315 314 314 315 316 318 319 319 317 312 304 311 314 324 321 307 304 303 301 298 298 295 288 285 288 288 293 306 303 307 311 311 315 318 317 321 326
314 313 313 314 314 314 314 315 314 314 314 314 315 317 318 318 311 307 315 324 325 325 306 303 302 303 297 297 296 292 287 289 294 295 296 304 302 304 303 306 312 313 319 321 321
314 314 314 314 313 314 314 314 313 313 313 314 315 316 317 317 304 302 323 325 327 323 304 304 305 303 295 295 294 291 290 294 297 298 300 302 304 308 304 305 309 308 314 316 317
312 313 313 313 315 314 314 313 313 312 312 312 313 314 317 311 289 308 326 326 327 313 304 303 302 296 292 291 294 290 295 296 297 300 302 303 307 308 308 309 315 312 316 315 314
313 313 313 313 313 315 313 313 313 313 312 312 313 314 312 303 304 312 324 323 313 306 303 302 299 296 293 294 295 293 296 299 299 301 304 309 309 309 310 314 315 316 317 315 313
313 313 313 313 313 314 313 313 313 313 313 312 312 313 307 296 306 312 316 312 306 304 303 302 300 300 296 295 296 299 299 299 298 304 308 306 306 305 310 315 313 313 312 314 314
312 312 313 313 313 313 312 312 312 312 313 312 312 309 304 298 309 308 308 307 306 305 301 303 304 300 300 297 301 300 295 296 297 299 303 304 297 302 309 314 312 311 310 311 312
311 312 312 312 312 312 311 311 311 312 312 313 312 309 300 311 309 310 309 308 310 309 307 306 305 301 299 300 298 294 293 288 295 298 302 300 293 300 311 311 309 308 311 311 311
312 312 312 311 311 311 310 311 311 312 313 312 307 306 298 313 308 311 309 305 307 309 306 309 303 299 298 293 290 290 285 288 292 297 300 298 295 300 311 310 308 306 307 308 309
312 311 312 311 311 310 309 310 311 310 309 311 312 300 303 301 306 308 310 307 304 305 304 302 298 293 291 290 284 285 287 286 288 294 298 296 296 299 306 307 308 304 305 306 307
312 312 311 311 311 310 307 303 294 297 299 301 302 302 304 308 313 307 307 305 303 301 295 296 291 289 292 292 293 291 290 288 290 295 296 296 296 297 300 302 302 302 305 306 307
311 311 311 311 310 310 305 297 297 299 293 301 300 301 307 309 303 305 307 299 298 292 296 293 290 295 296 295 293 292 289 289 293 296 297 295 296 297 301 302 304 302 303 306 307
311 311 311 310 310 303 299 300 306 305 294 298 300 298 298 306 301 302 305 298 295 293 293 291 294 298 296 293 292 291 289 290 290 294 296 293 291 294 300 302 304 304 306 308 308
310 310 309 309 300 299 297 303 303 306 286 289 295 296 300 302 297 305 306 299 296 293 295 293 298 295 294 293 293 288 295 294 293 290 286 292 283 290 295 299 302 303 304 308 310
309 310 309 309 297 296 300 302 304 301 271 288 294 302 301 295 295 297 303 298 293 296 296 293 294 293 292 294 295 292 297 295 294 290 288 288 285 289 297 297 300 302 304 306 311
309 309 309 304 301 301 302 302 302 287 275 287 295 294 293 294 294 297 296 300 298 294 295 296 298 296 295 297 297 298 295 293 292 289 283 288 287 286 292 297 301 304 304 306 309
309 309 307 303 294 299 300 298 289 278 288 284 289 294 293 291 292 295 292 292 290 287 287 292 294 296 298 293 296 294 289 283 281 281 282 291 289 290 295 299 303 304 305 306 308
308 308 307 304 302 301 296 290 281 285 284 290 289 289 292 291 292 293 291 287 291 291 287 286 284 292 297 295 292 291 291 283 278 279 283 291 286 291 299 301 303 306 308 305 305
307 304 303 300 300 299 289 280 283 286 289 288 288 285 286 291 294 292 291 290 291 292 288 285 286 295 297 297 296 291 288 293 286 287 283 286 290 295 298 298 300 300 305 305 304
301 301 299 301 301 297 286 282 287 292 291 290 283 286 283 286 288 288 291 294 293 294 295 291 286 294 296 296 296 294 296 288 287 281 280 284 287 288 295 296 296 295 301 305 307
300 294 301 302 302 291 280 282 286 291 291 288 287 286 286 285 287 287 288 294 297 297 295 292 289 289 294 291 291 291 289 291 291 287 281 280 284 294 296 297 297 296 297 301 306
297 287 300 302 287 288 282 285 290 289 292 290 290 289 287 286 286 287 287 292 301 300 293 294 290 286 289 295 296 293 292 292 286 285 286 283 287 297 297 298 299 298 299 299 302
292 290 300 298 282 283 287 286 287 288 288 289 288 289 290 286 283 287 289 296 298 300 296 297 289 282 287 290 293 290 293 293 293 290 286 284 286 298 298 299 300 298 300 299 301
287 284 291 293 289 286 284 285 284 289 288 289 288 289 287 285 289 286 288 293 295 302 302 300 293 287 282 286 290 288 292 293 292 285 286 288 290 294 297 298 299 299 299 299 300
289 285 290 283 285 287 287 286 284 283 288 290 286 286 285 282 283 284 289 291 296 302 301 298 289 292 292 294 294 292 292 293 291 291 287 289 290 295 297 298 299 301 300 301 302
285 288 292 287 290 287 287 284 284 286 287 285 284 287 287 283 284 282 286 287 288 295 294 298 290 291 289 293 293 290 292 293 293 293 292 292 291 298 299 300 298 300 301 301 302
295 294 293 289 287 285 284 285 286 288 289 289 288 286 285 287 289 290 291 291 291 291 292 293 289 285 283 289 289 285 290 292 293 295 295 290 294 298 298 299 299 300 300 301 302

GFSSW_sfc_thetae_054.txt.gz
Theta_e
316 315 315 313 313 314 313 313 314 313 313 313 313 314 315 316 315 311 303 308 312 322 319 306 303 301 299 296 297 294 287 284 287 287 291 304 302 305 309 309 314 316 314 319 326
314 314 314 314 315 314 314 314 314 313 313 313 313 314 315 315 310 306 313 323 324 325 306 302 300 302 297 296 295 292 286 288 293 293 294 300 303 303 302 304 310 309 316 320 322
312 313 313 313 314 315 315 314 314 313 314 314 314 314 314 314 303 298 324 324 325 322 304 302 304 301 294 294 293 291 289 292 295 296 295 295 301 306 303 302 307 308 311 317 317
311 311 312 312 313 314 314 314 314 314 313 313 313 314 314 310 287 306 326 327 328 313 303 301 300 295 292 291 293 289 294 294 295 296 299 300 305 305 304 307 313 311 314 314 313
312 312 312 311 311 312 313 313 312 312 312 312 313 313 309 301 302 310 324 325 314 305 302 301 298 295 291 292 293 291 294 296 298 299 300 307 305 306 307 313 314 314 315 313 312
312 312 313 312 311 312 312 312 311 311 312 312 313 312 303 292 305 310 308 311 305 302 302 301 298 299 294 294 294 297 297 297 297 299 302 303 304 306 306 314 312 312 309 312 311
312 312 312 311 312 312 312 311 310 310 311 312 312 308 300 297 307 307 308 305 305 302 300 302 301 298 297 295 299 298 293 294 295 295 301 304 297 301 306 312 311 310 313 313 314
312 312 312 312 312 311 311 311 310 310 311 312 312 306 296 310 308 309 307 306 308 307 305 305 302 299 297 298 296 292 291 287 293 299 299 299 291 296 307 310 308 307 308 310 311
312 312 312 311 311 311 311 310 310 310 312 313 305 302 295 312 307 310 309 302 304 306 305 308 302 297 296 292 289 289 284 286 290 295 298 296 293 297 308 308 306 306 309 309 309
312 312 312 311 311 310 310 309 308 310 309 309 309 295 299 295 305 308 310 307 302 303 302 300 296 292 290 288 283 285 285 285 287 291 296 294 295 299 306 306 307 306 304 306 306
311 311 311 311 311 310 306 300 295 294 297 297 298 297 301 309 311 306 307 304 301 300 294 296 291 289 291 292 291 290 288 287 289 292 291 291 291 295 299 302 303 304 303 303 305
311 311 311 311 311 310 302 296 298 298 291 299 299 298 302 306 299 302 308 298 296 292 295 291 290 294 296 294 292 291 288 287 290 294 292 291 293 295 297 300 303 304 302 304 304
310 310 310 310 309 301 299 299 304 301 293 295 298 297 298 300 296 297 304 298 294 291 294 291 292 296 295 292 291 289 287 287 288 291 292 292 291 292 298 300 302 303 304 304 305
310 310 309 309 300 298 295 303 303 303 287 287 294 296 298 301 295 302 304 299 295 292 292 292 297 294 292 291 292 287 292 292 291 288 284 291 283 289 292 297 300 302 302 304 306
309 309 309 309 297 295 298 302 302 302 272 288 294 301 301 293 293 297 304 298 292 293 294 291 293 293 291 292 293 291 294 292 291 288 285 287 283 287 294 295 298 300 303 304 307
308 308 309 303 302 300 301 299 301 287 276 286 292 293 294 295 294 296 296 298 297 294 294 294 297 295 295 296 295 296 293 291 290 287 281 286 285 284 288 294 297 300 303 304 306
308 308 306 304 297 298 298 295 285 279 289 283 286 291 291 291 291 292 290 290 287 285 285 290 293 296 296 292 294 293 288 282 280 280 280 288 285 288 294 296 298 300 302 304 306
307 306 304 305 301 300 295 287 277 284 284 290 288 288 287 290 290 291 287 284 289 290 287 285 283 293 296 294 291 290 289 282 278 278 281 289 285 290 297 300 299 300 303 304 305
306 298 299 300 302 300 290 278 280 285 288 287 287 284 286 288 290 291 288 286 288 293 287 285 286 294 295 297 296 290 286 291 285 285 282 285 289 294 297 297 298 298 303 301 304
295 295 296 303 304 298 287 280 284 292 289 288 282 286 283 285 286 286 289 294 292 293 295 291 285 293 295 295 294 293 294 286 285 280 279 282 284 286 292 295 297 295 299 303 302
293 291 300 304 302 292 281 282 284 288 289 287 285 284 285 285 286 285 287 293 295 297 294 290 288 288 292 290 289 289 288 289 289 285 280 279 282 292 294 296 296 297 297 300 304
294 285 300 302 287 287 283 286 290 287 290 290 289 287 286 286 284 286 287 291 293 298 292 295 289 284 287 293 294 292 290 291 284 283 284 281 284 295 297 297 298 299 298 297 303
290 290 300 299 283 283 287 286 287 286 287 288 287 288 288 285 281 286 289 295 294 297 295 296 289 281 285 289 291 288 290 291 291 287 283 281 284 298 297 298 299 298 298 299 298
288 283 291 293 291 286 285 284 283 288 286 288 287 288 286 284 286 284 287 292 295 298 301 299 292 288 282 286 291 288 291 290 290 283 283 284 287 294 297 297 299 298 299 299 299
289 284 289 283 285 286 287 286 283 283 287 288 285 286 284 281 282 282 287 289 291 296 299 296 287 291 292 293 293 290 290 290 288 288 286 287 288 293 297 297 298 299 299 299 300
284 286 291 289 289 287 286 284 284 285 286 284 283 286 285 282 283 282 285 285 286 292 293 295 287 288 287 292 289 287 291 290 290 290 290 290 289 295 298 298 297 299 299 299 299
293 293 292 288 287 285 285 286 285 288 288 288 287 285 283 286 288 289 289 289 289 288 287 291 288 284 282 287 287 283 286 287 290 292 292 287 292 297 296 298 298 299 299 299 300

GFSSW_sfc_thetae_057.txt.gz
Theta_e
314 314 314 314 315 315 316 315 315 313 313 313 313 313 314 315 314 311 304 308 314 322 319 309 306 306 304 303 303 301 297 293 294 293 297 305 306 311 313 312 316 319 318 322 326
312 312 313 313 314 315 315 315 315 315 314 314 314 314 315 314 309 305 314 320 322 325 307 305 303 304 302 302 302 300 296 295 298 298 299 301 306 307 308 307 310 314 320 324 324
312 312 312 312 312 313 314 314 314 313 313 313 314 315 314 313 303 300 325 325 324 325 309 306 307 305 301 301 300 298 296 298 299 301 301 299 303 309 307 305 309 311 315 320 321
311 311 311 312 312 312 313 313 313 312 311 311 312 314 314 311 288 306 326 325 326 320 306 306 305 302 299 298 300 296 299 299 300 300 301 301 307 307 308 309 316 316 317 318 317
311 311 311 311 311 312 312 312 312 311 311 311 312 313 308 300 297 310 318 325 320 309 304 303 302 300 297 297 297 296 298 298 300 300 301 307 307 308 310 314 317 318 318 318 316
312 311 311 311 311 311 312 311 311 312 312 311 312 311 304 292 304 311 308 311 309 305 304 304 302 302 299 298 298 300 299 301 302 302 303 305 306 310 311 316 316 317 317 317 315
312 312 312 311 311 312 312 311 311 311 312 310 311 308 299 295 306 308 308 307 309 305 304 305 305 302 301 299 301 301 298 299 300 300 303 308 303 305 312 316 314 314 316 316 316
311 312 312 312 312 312 311 311 310 311 311 312 312 306 294 307 311 309 309 306 308 308 306 307 306 303 301 303 300 298 296 293 298 302 302 305 297 301 310 314 312 313 313 312 314
311 312 311 311 311 311 311 310 310 310 312 312 306 302 294 309 307 310 309 304 305 307 308 309 306 301 301 297 295 294 291 291 294 300 302 302 299 303 311 312 311 312 313 313 312
310 311 311 311 311 310 310 310 308 310 309 309 306 295 298 294 306 308 311 308 302 304 303 303 300 297 296 295 287 290 290 291 293 299 301 299 299 303 308 311 311 312 312 312 311
309 310 311 310 310 310 307 301 297 296 298 297 297 296 298 307 311 309 309 306 304 301 296 300 296 292 294 297 295 294 292 291 293 296 296 296 296 300 301 308 310 312 312 311 311
309 310 310 310 310 309 302 298 297 297 290 298 297 297 301 304 297 303 308 301 298 293 297 295 292 297 297 296 295 294 292 292 295 296 295 297 296 301 302 305 308 310 312 312 311
308 309 309 309 309 301 299 299 304 302 291 295 298 296 297 300 295 296 304 301 296 293 295 293 295 298 296 294 293 294 292 292 292 294 296 296 295 298 301 304 306 308 312 313 312
308 308 309 308 300 299 297 303 304 302 287 288 293 297 299 299 293 301 301 301 297 293 295 294 298 295 294 293 294 290 295 294 292 291 288 296 287 295 299 300 303 306 308 310 311
307 308 308 308 301 297 300 304 303 301 274 289 293 302 300 293 294 297 303 298 295 294 295 292 294 294 292 294 296 293 297 295 294 292 291 292 290 294 296 298 301 305 307 309 311
307 307 308 303 303 302 302 300 301 285 275 287 293 293 293 295 294 298 297 301 300 296 297 294 300 298 296 297 297 298 295 295 294 292 286 291 291 291 294 298 301 304 307 309 310
306 307 305 306 298 301 301 296 284 277 289 285 287 290 289 289 292 293 292 292 290 287 289 293 294 297 298 295 296 296 293 286 285 285 285 291 289 293 299 301 302 304 306 308 310
305 305 303 304 304 304 298 288 277 283 286 291 289 289 286 291 291 291 289 288 292 291 288 287 285 295 298 296 293 293 293 287 282 283 286 292 288 294 302 304 304 305 306 308 310
305 298 299 301 305 302 291 279 280 284 288 286 288 285 286 289 289 291 289 287 289 292 288 287 287 295 297 298 298 292 289 295 288 289 287 290 294 298 302 301 303 303 303 306 310
296 295 295 302 304 299 287 282 283 290 288 288 283 287 283 285 286 288 290 290 291 293 297 293 287 294 295 298 298 296 297 289 289 282 281 286 289 292 297 299 301 303 302 305 310
295 290 296 303 303 292 281 283 285 289 289 286 285 284 285 284 285 285 289 291 292 294 295 294 291 290 295 292 292 293 292 293 293 289 285 283 288 299 300 301 302 304 304 304 306
294 283 299 303 287 288 284 286 289 287 289 289 289 287 286 286 284 285 286 291 294 297 294 296 290 286 289 295 297 296 293 294 288 286 288 287 289 300 302 303 303 304 305 306 305
289 289 299 299 281 282 287 287 288 286 288 287 287 288 289 286 282 286 288 294 294 293 296 298 291 285 287 292 294 292 292 294 293 291 287 286 289 300 302 302 304 303 306 306 305
289 282 289 292 290 285 285 285 284 288 287 288 287 289 287 285 288 285 287 291 294 293 301 300 294 289 285 288 293 291 293 294 292 287 288 289 291 297 300 302 304 305 307 307 306
289 284 289 282 284 286 287 286 283 283 287 288 285 286 285 282 283 283 287 289 291 295 298 298 289 291 293 293 293 291 291 292 290 291 288 290 291 296 299 301 304 305 304 304 305
285 286 289 287 288 286 287 285 284 285 286 284 284 287 287 283 285 283 286 286 285 291 290 292 289 291 288 292 291 288 291 290 292 292 292 292 292 298 300 302 301 303 303 304 305
292 293 290 287 285 285 284 286 285 288 289 289 288 286 285 286 290 290 291 290 290 287 286 288 289 286 283 288 288 284 290 290 291 293 293 288 292 296 300 300 300 302 304 302 304

GFSSW_sfc_thetae_060.txt.gz
Theta_e
313 313 313 313 313 314 314 314 314 313 314 314 314 315 315 316 314 310 306 311 316 323 320 318 315 312 312 309 311 310 301 298 299 300 302 306 307 312 316 312 318 321 320 324 327
312 313 313 313 313 314 313 313 314 313 312 313 314 315 315 315 311 304 315 319 321 324 315 313 310 309 306 306 307 305 301 300 303 305 303 306 307 308 309 309 313 317 324 326 327
312 312 312 312 313 313 314 314 313 312 312 312 313 314 314 314 302 302 324 327 324 325 316 314 312 308 303 306 305 304 300 304 304 306 307 306 307 309 308 307 310 312 317 324 325
312 312 312 312 312 312 313 312 313 311 312 312 312 312 314 312 290 308 323 327 324 322 312 310 309 304 302 301 306 301 304 305 305 306 305 306 309 308 310 311 317 317 320 324 323
311 311 312 312 312 312 313 312 312 311 311 311 312 312 311 300 296 306 319 322 321 317 310 309 307 305 301 303 304 302 303 305 307 306 306 308 307 308 310 315 319 320 321 322 321
312 312 312 312 312 312 313 312 312 312 311 311 311 311 307 295 303 309 311 312 313 314 311 310 307 308 304 303 302 304 304 304 306 306 307 305 306 310 310 316 319 319 320 321 321
312 312 313 312 312 311 312 312 312 312 312 312 311 309 303 300 305 307 306 306 309 312 309 312 312 306 305 302 306 304 301 303 305 306 305 308 303 307 312 317 317 319 320 320 321
311 312 312 312 312 312 311 311 311 311 312 312 312 309 298 308 309 307 308 306 307 310 311 311 312 307 305 306 303 300 301 297 303 304 305 307 298 306 312 315 315 317 318 319 320
310 311 311 311 311 311 311 310 311 311 312 312 308 305 297 309 305 308 311 303 305 306 310 311 309 305 305 300 298 300 295 297 299 305 305 307 301 307 313 313 312 316 318 318 319
309 310 310 311 310 310 310 310 310 310 311 311 308 299 302 296 303 310 313 309 303 303 306 306 305 300 301 298 291 295 295 297 297 302 303 303 303 307 310 312 313 314 317 319 318
308 309 309 310 310 310 308 308 301 301 300 295 298 299 301 307 311 304 311 308 305 302 298 303 298 294 297 300 300 299 297 296 299 301 300 300 301 304 308 309 312 315 316 318 319
307 308 308 309 310 309 308 301 297 299 291 300 299 299 301 303 298 302 310 300 301 295 300 300 295 299 301 301 299 297 295 296 299 301 299 299 299 304 307 308 310 313 316 317 319
307 307 308 309 309 308 304 302 306 304 293 296 301 299 300 301 295 298 305 303 299 297 295 296 297 301 300 298 296 297 295 296 296 298 300 298 297 301 306 308 310 312 316 318 319
307 307 308 308 304 306 303 306 308 306 288 290 295 299 300 299 293 301 302 301 297 295 297 295 299 297 299 297 298 293 299 298 297 296 291 299 290 300 303 305 307 309 314 316 319
307 306 307 307 305 302 304 308 308 303 279 292 295 305 301 296 295 297 302 298 291 293 297 294 295 294 295 297 299 296 300 298 298 296 295 294 292 297 302 301 304 307 310 315 318
305 306 307 305 307 306 308 308 305 288 278 288 294 293 294 296 294 299 297 300 299 294 298 297 301 299 298 299 300 301 298 298 298 296 289 294 294 295 299 302 303 306 309 313 316
304 305 305 306 301 308 308 302 288 281 290 288 289 293 292 291 293 294 294 291 290 286 289 295 296 300 301 296 300 299 295 289 287 288 287 296 294 297 303 305 306 306 309 313 316
304 305 305 304 308 308 302 293 280 284 286 293 291 292 289 293 293 293 292 289 294 292 290 287 286 295 300 298 295 296 296 290 283 286 290 296 291 297 305 307 309 310 311 313 316
303 303 302 305 308 307 293 283 283 285 290 289 291 287 288 291 291 292 292 291 292 295 288 288 289 298 299 301 299 296 292 298 292 294 291 294 297 303 305 305 307 308 309 311 313
300 299 298 306 310 301 288 283 286 291 291 290 285 288 285 288 288 291 291 293 293 296 297 294 288 295 298 301 301 299 301 291 293 285 284 291 292 295 300 303 305 307 308 310 313
298 292 301 307 307 292 282 284 288 292 292 289 287 287 288 287 288 288 291 293 294 294 298 294 294 293 297 295 295 296 295 296 296 293 287 286 292 302 302 305 306 308 310 312 311
295 285 303 306 288 288 283 287 291 290 293 291 291 290 288 289 287 287 287 292 295 296 293 295 293 289 293 297 300 299 296 297 291 290 293 292 293 304 305 306 308 309 310 313 313
290 289 301 302 282 283 288 288 290 289 290 289 289 291 292 288 285 288 289 294 295 293 296 299 291 284 287 293 296 295 296 297 298 297 292 290 292 303 304 305 307 308 311 312 313
290 284 291 294 292 287 286 286 286 292 291 291 290 292 290 288 291 288 289 292 295 296 298 301 296 290 285 289 295 293 295 297 296 291 291 292 294 299 301 302 305 307 310 311 312
289 286 290 284 285 286 287 288 286 286 291 291 289 289 288 284 287 286 290 291 293 295 297 297 289 293 294 294 295 294 294 295 294 295 291 294 294 298 301 302 304 307 308 309 310
285 285 290 289 290 286 285 285 286 288 288 287 287 289 290 286 288 286 289 289 289 292 291 295 289 291 289 292 293 290 293 294 294 296 296 297 296 302 303 304 305 307 308 307 307
293 295 289 287 287 286 286 287 287 290 290 291 290 288 288 290 293 294 294 294 293 291 289 290 292 289 284 290 290 286 291 293 296 298 297 294 298 300 299 303 305 307 307 307 308

GFSSW_sfc_thetae_063.txt.gz
Theta_e
313 313 313 313 313 313 313 313 313 313 313 313 313 314 315 315 314 314 306 312 314 322 321 318 319 317 315 311 312 313 302 300 302 303 304 309 306 312 314 311 313 318 319 325 330
312 312 312 312 312 313 313 313 313 312 312 313 313 314 314 314 311 308 318 326 325 322 313 313 313 314 309 309 309 306 302 302 307 307 306 308 308 309 309 309 311 314 321 326 328
311 312 312 312 312 312 313 313 313 312 312 313 313 314 313 313 307 307 321 327 328 324 314 314 316 312 307 308 307 306 301 306 308 307 309 308 308 310 308 306 311 312 314 320 326
312 311 312 312 312 312 313 313 313 312 312 312 312 313 313 311 295 308 321 326 323 320 315 314 311 308 306 303 307 302 306 307 307 308 307 306 309 308 310 310 314 318 320 320 324
311 312 312 312 312 312 313 313 313 313 312 312 313 312 309 304 305 314 320 320 322 317 313 310 308 308 304 305 305 304 305 307 308 307 307 308 307 308 309 313 316 319 321 321 324
312 312 312 312 312 311 312 312 312 312 312 312 312 311 306 296 313 314 309 307 307 314 313 312 309 310 306 305 305 306 306 306 307 307 308 305 306 308 310 314 314 318 319 322 323
311 311 311 311 311 311 312 312 312 312 312 312 312 311 303 300 312 312 309 306 305 304 307 314 314 309 309 305 308 306 302 304 305 306 305 308 303 305 310 313 314 318 320 322 323
310 310 311 311 311 311 311 311 311 311 312 312 312 311 300 309 313 311 312 308 308 307 306 312 314 311 307 308 305 302 302 298 304 306 307 306 299 307 312 314 313 316 319 321 323
309 310 310 310 311 310 310 311 310 312 311 312 311 308 299 310 305 308 309 305 307 307 307 308 311 306 307 301 299 301 296 298 301 307 306 304 301 308 313 312 312 314 318 319 321
308 309 309 310 310 310 310 309 311 311 311 313 310 302 305 300 304 310 314 311 306 305 303 302 304 301 300 298 290 295 297 299 299 304 304 303 304 307 312 312 312 313 315 318 320
307 308 308 309 309 309 309 310 304 304 305 298 300 302 301 307 310 308 312 310 307 302 295 299 296 296 298 299 299 300 300 299 302 305 303 302 302 306 309 310 311 313 314 317 320
306 307 308 308 309 309 310 303 302 302 294 301 302 302 304 304 298 303 311 303 301 296 298 295 294 299 301 300 299 299 298 298 302 303 301 301 301 305 307 308 310 311 314 316 319
305 306 307 308 308 308 306 305 310 307 295 298 302 301 302 303 297 299 305 304 299 296 297 292 297 301 299 298 297 299 298 298 298 302 302 300 298 301 306 308 310 311 313 315 318
305 306 307 307 304 306 303 308 311 308 290 294 297 301 303 300 294 302 306 303 300 296 297 297 299 298 298 297 299 295 301 300 299 298 294 302 292 300 303 305 308 310 312 313 316
305 305 307 306 304 301 305 311 311 304 282 293 298 307 303 297 298 298 303 302 296 296 295 296 297 295 295 297 300 298 302 300 299 297 297 297 294 298 303 303 306 309 311 313 316
304 305 306 305 307 307 310 311 307 289 282 291 296 295 296 298 298 298 298 301 300 294 295 294 300 300 298 299 300 302 300 299 299 298 291 296 295 296 301 303 306 307 310 312 316
304 305 304 304 299 309 310 303 290 284 292 290 291 294 294 294 296 296 295 293 289 285 288 293 293 299 302 296 299 299 296 290 289 289 288 298 296 298 303 306 307 308 309 312 315
303 304 304 305 305 310 306 294 283 287 288 294 293 293 290 294 295 296 294 290 293 294 290 287 285 295 300 298 295 297 296 291 285 287 291 298 293 299 307 308 309 309 310 312 316
303 301 302 305 308 307 297 286 286 288 291 290 291 288 289 293 293 294 294 293 294 294 289 289 288 297 299 301 299 296 293 298 292 296 292 295 299 304 307 306 308 309 310 311 313
299 299 299 307 309 303 290 285 289 292 293 292 285 289 286 290 291 293 293 296 294 296 297 294 288 295 298 300 301 297 301 292 294 285 285 292 295 297 301 303 306 307 309 311 314
297 291 302 308 307 294 285 287 290 293 294 290 289 288 289 289 290 291 292 295 296 295 299 296 294 292 297 295 295 295 295 297 296 294 287 287 292 304 302 305 306 309 310 312 313
295 286 304 306 291 292 286 289 292 292 294 292 293 291 290 291 289 290 289 293 297 296 297 297 293 288 292 298 301 299 297 298 292 290 294 293 293 305 305 305 308 308 311 313 314
289 291 304 303 284 286 290 289 291 290 291 291 290 292 293 290 287 291 291 296 296 294 294 298 291 286 288 295 298 296 299 299 298 297 292 291 293 305 305 304 306 308 310 312 313
291 285 292 296 294 289 287 287 287 292 291 293 291 293 291 290 292 289 291 294 296 294 297 298 296 290 285 290 295 292 296 297 296 291 293 294 296 300 303 302 304 307 310 311 312
292 287 291 285 288 289 289 289 286 286 292 292 290 290 289 287 288 288 292 293 295 295 295 295 290 294 294 296 297 295 294 295 294 295 291 295 295 299 302 303 304 306 309 310 311
288 288 292 290 291 288 288 286 286 289 290 288 288 290 291 288 289 287 291 292 291 294 293 296 288 291 291 294 295 293 296 297 297 297 297 297 297 304 305 304 304 307 308 308 310
295 295 292 288 288 287 287 287 287 290 292 293 291 290 289 291 294 296 297 296 295 292 291 292 290 288 284 291 290 287 293 294 295 298 298 293 299 303 301 302 304 305 308 308 309

GFSSW_sfc_thetae_066.txt.gz
Theta_e
312 312 313 313 313 313 313 313 313 312 313 313 313 314 314 315 313 310 306 311 313 323 319 312 315 315 316 311 311 311 300 297 299 301 303 309 307 311 312 310 311 313 315 324 331
312 312 312 312 312 313 313 314 314 313 313 313 313 314 315 314 308 307 318 327 327 325 311 306 308 313 309 308 308 304 300 299 305 306 305 307 307 308 308 308 310 311 318 327 326
312 312 312 312 312 313 314 314 314 313 313 313 314 314 314 312 304 307 320 326 326 326 317 309 310 311 307 308 306 304 300 304 305 308 308 306 307 309 307 305 308 311 314 321 326
311 311 312 313 313 313 313 313 313 312 312 312 313 314 314 309 295 308 322 326 323 322 317 309 306 305 305 303 306 301 304 305 306 307 307 304 307 306 307 309 313 314 317 318 322
311 312 312 312 312 312 312 312 313 312 312 312 312 313 309 299 301 312 321 321 318 318 311 308 305 305 301 304 305 302 303 305 307 307 306 307 305 305 307 311 313 314 318 319 321
311 311 311 311 311 311 312 312 312 312 312 312 312 312 305 294 308 312 313 309 307 309 313 311 307 308 304 304 303 305 304 304 306 306 307 304 304 306 307 311 311 314 317 320 321
310 310 310 311 310 310 311 311 311 311 312 312 312 310 303 299 308 308 308 306 307 305 302 310 313 308 307 303 307 305 301 303 304 305 304 306 301 303 308 310 309 312 316 319 323
310 309 310 310 310 310 310 310 310 311 312 312 313 310 299 310 311 308 310 308 311 309 305 305 309 308 306 308 305 301 301 295 302 304 305 304 297 304 309 309 308 312 315 318 321
308 308 309 310 310 309 309 309 309 311 312 313 309 307 300 313 306 308 309 305 307 308 307 306 304 303 304 300 297 298 292 295 297 305 304 303 299 305 309 310 310 312 314 317 320
307 307 308 309 309 308 308 308 310 312 312 312 311 302 306 301 307 309 313 310 304 305 304 302 299 296 299 296 289 292 293 296 297 302 304 302 301 305 309 310 311 311 312 316 318
306 307 307 308 308 308 306 307 302 303 307 301 301 301 302 306 307 305 310 309 307 304 297 300 293 289 296 298 299 297 295 295 299 304 303 301 301 303 307 308 310 310 312 313 317
306 306 306 308 308 308 307 304 302 303 294 301 301 301 303 305 298 301 309 302 302 296 299 296 290 296 298 299 298 296 294 295 300 304 302 301 300 304 306 307 309 310 312 313 316
305 305 305 307 308 306 307 304 310 308 294 298 302 301 302 303 298 298 303 303 299 296 296 293 294 297 296 297 296 296 294 295 296 301 302 300 297 300 304 306 308 309 312 313 315
305 305 306 307 302 306 302 308 310 309 288 296 298 302 304 301 296 303 303 301 299 295 297 295 300 296 295 296 297 292 298 298 298 297 292 301 290 299 303 303 305 308 310 311 312
304 304 306 305 301 299 305 309 310 305 281 295 298 308 304 298 299 299 303 300 296 296 296 293 296 293 292 295 299 295 301 299 298 296 295 295 293 297 302 300 303 307 310 311 313
304 304 305 302 303 305 309 309 306 287 281 291 297 297 297 299 299 299 297 301 302 297 297 295 299 297 296 298 300 301 298 298 298 296 288 293 293 294 299 301 304 308 310 311 313
303 303 303 303 297 306 308 302 288 282 293 290 292 294 294 293 296 297 294 291 289 287 287 292 293 298 298 294 298 297 293 286 286 287 286 296 294 297 303 305 307 307 308 312 315
304 304 302 302 304 307 303 292 281 288 291 295 293 293 289 292 295 296 293 290 292 291 288 286 285 294 298 295 293 293 292 288 282 285 288 296 291 296 306 308 309 309 311 312 313
303 300 300 303 307 306 293 283 284 288 292 291 292 287 288 292 293 294 294 293 295 293 286 287 287 297 298 299 298 293 289 296 291 292 288 294 297 303 306 306 306 307 309 310 313
298 296 296 307 309 301 288 284 289 294 293 293 286 288 287 290 290 292 293 296 294 297 297 292 285 294 296 299 298 297 298 289 291 283 283 292 294 295 301 303 306 306 309 312 313
296 290 299 307 304 293 281 285 290 295 294 290 289 287 289 289 290 290 292 296 297 295 297 295 291 290 296 293 293 294 292 294 294 291 287 286 291 305 303 306 306 308 310 313 314
294 285 302 307 290 289 284 289 293 292 295 292 292 291 290 290 289 289 290 293 297 296 293 297 293 287 290 298 299 297 294 295 288 288 292 291 292 306 305 305 306 308 310 312 314
290 290 300 302 283 286 289 289 291 290 291 290 290 291 293 290 286 290 292 296 296 294 291 292 290 284 286 293 297 294 296 296 296 294 289 289 291 305 305 304 305 306 309 310 312
289 284 290 296 294 288 286 287 287 292 290 292 291 292 290 288 291 288 290 295 296 296 296 295 291 289 284 287 293 292 294 296 296 290 291 291 296 299 302 303 304 305 308 309 311
289 286 290 284 287 288 289 289 286 286 292 292 289 290 289 286 288 288 291 292 294 296 295 293 288 291 292 295 295 292 293 295 293 294 290 294 295 299 302 303 304 307 307 309 310
286 287 290 286 289 288 288 286 286 288 289 288 288 290 290 287 288 286 290 290 290 295 293 294 288 290 288 294 295 292 294 295 296 296 295 295 295 302 305 306 305 306 308 307 308
293 293 291 287 287 286 287 287 287 289 291 293 291 290 289 291 294 295 296 295 294 292 291 290 289 287 284 290 290 288 293 294 295 297 297 291 297 301 302 301 303 306 306 306 306

GFSSW_sfc_thetae_069.txt.gz
Theta_e
312 312 313 312 312 313 313 313 314 313 313 313 314 314 315 315 314 306 301 309 313 321 319 309 306 308 308 305 306 303 294 291 292 295 298 304 301 305 307 305 308 309 309 323 329
311 312 312 312 313 314 313 313 314 313 313 314 313 314 315 314 307 302 311 323 323 323 310 303 300 302 302 302 303 299 292 293 299 300 300 303 301 304 302 304 306 306 323 328 326
310 311 312 312 313 313 313 313 313 312 312 313 313 314 314 312 301 303 321 323 323 325 316 312 307 300 301 303 301 298 294 299 300 303 303 301 300 303 302 301 304 305 318 321 320
311 312 312 311 311 312 313 312 312 312 312 312 312 313 313 307 288 302 321 324 325 320 317 311 303 295 295 298 303 296 300 301 302 304 302 300 301 300 301 304 308 308 315 320 320
310 311 311 311 311 311 311 311 311 311 311 312 312 312 306 297 297 306 320 322 319 316 310 307 300 297 295 298 301 299 300 302 303 303 303 303 300 300 301 304 307 309 315 313 317
310 311 310 310 310 310 310 310 311 311 310 311 312 311 302 290 303 305 305 304 306 302 306 306 305 302 300 300 298 302 302 302 303 302 302 301 300 298 303 304 305 306 313 314 316
309 309 309 309 309 309 309 310 309 310 310 311 312 308 300 296 305 305 305 303 303 301 298 301 300 301 303 299 303 302 297 300 301 300 300 302 297 298 302 304 303 304 312 314 317
308 308 309 309 309 309 309 309 309 309 310 311 312 307 296 308 307 307 305 303 305 304 303 303 302 299 301 304 302 298 297 291 298 301 302 298 293 299 302 302 301 302 309 313 316
308 308 308 308 308 309 309 308 308 309 311 313 306 303 297 313 305 308 306 302 303 305 304 307 300 296 299 295 292 295 288 291 295 301 300 296 295 301 302 302 301 302 306 311 316
306 307 308 308 307 307 307 307 308 310 310 310 308 300 304 302 304 305 306 309 302 300 301 298 295 291 293 291 284 288 290 290 292 297 299 296 296 301 303 302 304 304 305 309 315
305 306 306 307 307 307 304 299 297 297 299 298 300 300 302 305 304 301 303 307 305 297 292 296 290 286 290 294 296 295 294 292 294 299 297 297 297 297 303 300 301 303 304 304 313
305 305 305 306 307 307 302 297 300 299 291 299 299 299 301 301 296 300 302 296 299 292 295 293 288 294 297 297 293 295 292 291 296 300 298 297 297 297 300 299 301 303 303 304 311
306 305 305 306 306 302 300 301 308 303 290 294 299 298 299 302 296 297 298 299 296 293 294 292 294 298 296 293 291 293 292 292 293 297 298 296 294 295 301 302 302 304 307 308 311
305 305 305 306 299 298 296 306 307 305 286 290 296 299 302 301 294 301 300 297 295 293 296 295 299 296 293 291 293 289 298 297 295 293 287 297 286 293 298 300 302 301 301 307 309
305 305 305 305 296 293 299 306 306 300 274 297 297 306 303 296 297 296 300 297 291 295 295 292 295 295 293 293 295 293 299 296 295 292 291 292 287 290 297 297 299 301 300 303 305
305 305 305 299 297 298 302 303 302 286 276 290 297 295 295 296 297 296 295 297 298 296 296 295 299 297 296 297 298 299 296 296 295 292 284 291 288 288 293 298 301 302 303 305 304
305 304 301 300 292 300 300 298 283 277 292 289 291 295 294 292 294 294 290 288 287 284 286 292 293 296 298 293 297 296 291 285 284 282 281 293 290 292 298 302 303 302 302 303 305
304 304 301 299 298 299 297 290 277 286 288 295 293 292 288 291 291 293 289 284 288 288 284 284 283 292 296 293 291 292 291 285 280 281 285 294 287 292 301 304 306 304 303 305 306
303 295 294 297 299 297 291 279 280 285 290 290 291 287 286 289 291 292 290 289 289 289 283 284 286 295 298 298 296 292 288 294 286 288 284 289 294 299 302 302 303 303 304 302 305
292 291 292 298 300 294 286 280 284 290 291 291 285 288 284 288 289 288 290 295 294 294 293 290 284 293 296 298 298 295 297 286 286 281 280 288 291 291 298 300 302 302 301 303 305
291 286 293 298 300 290 279 281 285 290 291 289 288 287 287 287 288 287 292 295 295 293 295 292 289 288 294 292 291 292 290 291 291 289 283 283 289 300 298 301 302 304 305 305 306
290 282 294 302 285 286 280 285 290 288 292 290 290 289 287 288 287 288 288 293 296 294 290 292 289 285 288 295 298 296 293 292 286 286 289 285 287 302 300 301 303 303 305 306 308
287 285 294 296 280 281 285 285 287 286 287 289 288 290 290 286 284 288 290 296 295 293 290 291 287 283 285 291 295 292 294 295 294 292 288 285 288 303 303 302 303 302 304 307 308
287 280 285 288 287 285 284 283 285 290 289 290 288 290 288 286 289 286 288 294 295 294 297 295 289 286 282 287 292 288 292 295 293 287 288 290 293 299 301 302 301 303 305 307 307
287 280 285 275 279 283 285 286 285 284 290 290 286 287 286 283 286 285 289 290 293 297 294 293 285 289 289 290 292 293 290 293 291 292 289 293 293 298 301 302 303 304 305 306 307
284 280 285 283 286 283 283 283 284 285 287 287 286 288 288 285 285 284 289 289 289 293 291 293 285 288 286 291 292 291 293 293 294 295 294 295 294 301 305 305 304 303 304 304 305
288 291 286 282 284 282 283 285 285 287 289 290 290 288 287 290 291 292 292 292 292 290 288 289 287 285 281 288 288 284 291 293 295 297 295 291 297 303 301 302 302 301 303 303 304

GFSSW_sfc_thetae_072.txt.gz
Theta_e
311 312 312 312 312 313 313 313 313 312 312 313 313 313 314 315 313 307 298 306 310 320 321 307 305 306 306 302 303 300 290 286 289 292 295 301 297 303 306 307 307 308 310 318 326
310 311 312 312 312 313 312 312 312 311 311 312 312 312 314 314 306 301 311 317 322 323 307 302 299 299 299 299 300 297 291 292 297 297 297 300 297 300 301 301 304 308 323 325 326
311 311 312 312 311 311 312 312 311 311 311 311 312 312 313 311 300 299 318 320 324 324 307 308 305 298 294 299 298 295 295 297 298 301 300 297 298 303 300 299 303 306 319 323 324
310 310 310 311 311 310 311 311 310 310 310 310 311 312 313 306 283 299 323 324 324 320 315 310 306 295 292 294 300 294 299 300 300 301 300 299 301 299 299 302 306 309 323 322 320
309 310 310 310 310 310 310 310 310 309 309 309 310 312 306 296 296 304 317 313 318 315 311 308 302 295 291 294 296 297 299 302 303 302 301 302 299 299 300 303 304 312 320 319 318
308 309 309 309 309 308 309 309 309 309 308 309 310 311 301 289 300 303 303 304 305 305 302 306 303 300 295 296 294 298 300 301 302 300 301 299 299 297 301 302 302 310 315 316 317
308 308 308 308 307 307 308 308 308 309 308 309 310 307 298 293 302 300 303 302 301 300 296 299 299 294 297 297 302 300 295 297 298 298 298 299 295 296 302 301 301 301 309 311 317
308 308 308 308 308 308 308 307 307 308 308 309 310 305 295 306 304 304 303 302 304 303 300 301 301 296 295 300 299 296 295 290 297 298 300 296 291 299 301 299 299 299 303 310 313
307 307 308 308 308 307 307 307 307 309 310 310 306 301 294 312 305 307 305 302 302 303 301 305 299 293 295 292 290 292 287 289 292 298 298 295 293 299 302 299 299 298 299 309 311
307 306 307 307 307 306 306 306 307 310 309 310 307 299 302 300 304 302 302 303 302 299 299 296 293 288 288 288 283 287 288 287 288 295 297 295 294 300 301 298 300 298 297 308 312
306 305 306 307 307 306 303 298 297 295 298 297 298 299 301 305 304 299 302 299 303 295 290 294 287 284 287 289 292 292 290 289 292 298 295 294 294 298 300 301 298 299 299 307 312
306 305 305 306 306 306 302 297 299 299 290 298 298 298 301 301 295 299 301 293 296 291 292 291 286 291 294 294 293 292 289 288 294 298 295 293 293 297 299 299 299 301 301 303 312
306 305 305 306 306 301 295 299 305 303 289 293 296 296 297 298 293 294 298 294 294 292 292 288 292 296 294 293 291 290 289 290 291 296 295 292 290 294 299 299 299 301 303 303 312
306 306 305 305 297 296 295 301 302 303 284 288 293 298 299 299 293 300 299 295 294 291 294 293 297 295 292 291 293 287 294 295 294 292 285 293 283 292 297 297 298 298 299 301 311
305 306 305 304 295 292 298 300 301 299 273 293 295 304 301 295 295 295 298 295 290 294 294 290 293 293 292 292 294 290 296 295 295 290 288 290 286 290 296 295 297 299 298 300 311
304 305 304 297 293 296 298 298 298 283 274 289 296 294 294 295 296 294 293 295 295 295 295 293 298 296 294 298 298 296 295 295 294 290 282 289 289 288 292 295 298 301 301 300 311
304 304 301 299 289 296 297 294 280 276 289 288 290 294 293 292 293 291 288 287 286 283 285 289 292 294 298 292 296 295 291 284 283 282 280 292 289 291 297 299 300 301 302 301 311
303 303 300 298 296 294 293 286 275 283 285 291 290 292 289 291 291 290 286 283 287 287 282 281 280 291 296 293 291 292 291 285 278 279 283 293 285 291 300 303 303 303 302 301 311
302 293 292 294 296 294 289 277 278 283 288 286 288 286 286 289 289 290 286 285 286 288 282 281 284 293 295 296 294 290 287 294 286 287 283 288 292 298 301 302 302 301 301 302 310
290 288 289 296 295 294 285 277 281 287 288 286 282 288 283 286 286 288 288 293 291 290 290 287 282 290 295 298 297 294 296 286 287 280 279 286 289 291 297 300 301 301 302 303 305
288 283 290 294 295 289 277 279 284 288 289 286 284 284 285 285 285 286 290 294 293 292 294 290 287 286 293 291 290 292 290 291 290 288 283 281 288 298 298 299 300 301 304 304 306
286 278 291 299 283 285 280 283 288 285 289 287 288 287 285 287 285 286 288 292 295 294 289 290 287 283 287 295 297 295 292 291 287 285 287 285 287 300 302 303 302 303 305 306 308
286 285 291 292 279 279 283 284 286 285 285 285 286 288 288 285 282 287 290 295 294 291 288 290 286 280 284 290 293 291 293 293 292 291 287 284 286 302 304 304 303 304 305 307 308
286 276 281 285 283 280 282 282 282 289 287 287 287 289 286 285 287 284 288 294 295 293 297 293 287 284 280 286 290 289 291 293 292 286 286 288 292 297 300 302 303 303 305 306 308
287 279 281 273 282 283 282 282 281 281 288 290 286 287 285 282 283 283 289 290 294 296 293 290 282 286 289 289 289 291 291 292 290 291 287 291 292 297 301 302 304 303 304 305 305
282 278 282 281 283 281 281 280 279 283 286 285 285 287 288 284 285 283 288 288 288 292 290 291 283 285 284 290 290 287 291 293 291 293 292 293 293 301 304 305 303 303 302 303 302
289 287 283 281 279 276 281 282 282 284 288 288 287 286 285 288 291 290 291 291 291 288 287 287 285 282 279 286 286 283 289 292 292 295 294 290 296 301 301 302 301 300 301 300 299

GFSSW_sfc_thetae_075.txt.gz
Theta_e
311 311 311 312 312 312 312 312 311 311 311 311 311 312 313 313 312 305 298 304 307 317 320 306 305 306 304 301 302 297 288 283 287 290 292 298 294 299 301 300 304 307 314 317 324
311 311 311 311 311 311 311 311 311 310 310 310 310 311 312 313 304 299 307 316 318 323 307 301 297 299 297 297 299 295 288 288 293 296 295 296 293 298 298 299 300 302 320 322 324
310 310 310 310 311 311 310 310 310 310 309 309 309 310 312 310 296 293 317 319 320 322 307 303 302 296 291 296 297 295 292 294 296 299 298 294 296 298 298 297 300 300 312 320 322
309 309 310 310 310 310 310 310 309 309 309 309 309 310 311 304 283 299 323 322 322 318 310 310 305 294 290 290 296 293 296 299 298 299 296 295 297 297 296 300 303 302 315 320 320
308 308 309 309 309 309 309 309 308 308 308 308 309 309 305 295 294 302 315 310 307 314 310 308 301 295 289 291 293 294 297 300 300 300 298 299 297 298 299 302 303 302 320 320 320
308 309 309 309 308 307 308 309 309 308 307 308 308 309 300 288 300 301 301 301 301 308 306 306 302 300 295 293 291 295 296 297 299 299 299 298 298 295 300 303 300 302 318 319 319
308 308 308 307 307 307 307 308 308 308 307 308 309 306 298 294 302 301 302 300 300 299 295 297 298 293 294 292 298 298 294 296 296 296 295 298 294 294 300 301 299 300 313 317 318
308 308 308 307 307 307 308 307 307 308 309 309 309 304 294 306 304 303 302 301 303 302 299 299 299 295 292 295 297 294 293 288 295 296 297 295 290 297 299 298 297 298 303 313 314
307 307 307 307 307 307 306 306 308 309 311 309 305 301 293 309 305 307 304 301 301 301 300 303 298 293 292 288 287 289 286 288 291 297 295 293 291 296 298 298 296 297 296 307 310
307 307 307 307 307 306 306 307 308 308 309 309 307 297 300 298 304 304 302 303 299 298 298 295 291 287 286 286 281 284 286 285 287 291 294 291 291 296 300 298 298 296 296 302 308
306 306 306 307 306 306 303 300 298 296 298 296 298 298 300 304 304 299 301 298 300 294 288 292 286 283 285 287 290 290 288 286 288 294 293 292 292 294 296 296 295 298 300 297 307
306 305 305 306 306 306 298 296 295 296 290 298 297 297 302 303 295 298 301 294 293 290 290 288 285 290 291 290 290 290 287 287 291 295 295 290 290 295 297 296 298 299 300 298 305
305 305 305 305 305 297 293 296 300 297 289 292 296 295 296 298 293 294 297 294 292 290 289 286 289 295 292 290 289 289 287 288 289 294 295 291 290 292 297 298 299 299 300 301 308
305 305 306 305 294 294 292 298 297 297 282 286 292 295 297 297 291 297 298 294 292 290 291 290 294 294 291 290 291 286 292 292 292 290 284 291 282 290 293 295 297 298 298 300 308
304 304 305 303 292 290 295 297 298 297 272 289 295 303 299 294 294 295 298 294 290 293 293 289 292 291 290 291 293 289 295 293 293 290 289 288 284 288 294 294 297 298 298 299 306
304 304 305 296 292 293 295 296 295 280 272 286 295 294 293 295 295 293 293 295 294 293 293 291 296 295 293 295 295 296 294 293 292 290 283 287 286 285 289 294 297 299 300 298 301
303 303 301 299 288 293 294 291 278 275 286 286 287 290 292 291 292 290 288 287 285 283 283 288 290 293 296 290 294 295 290 282 281 281 280 289 286 288 294 298 300 301 302 301 302
302 302 298 297 294 293 290 284 273 280 283 289 288 287 287 291 291 289 286 283 286 286 282 280 278 290 295 291 290 291 289 283 277 278 280 291 284 290 298 301 302 303 301 301 300
300 291 290 292 294 292 287 273 276 281 286 283 286 286 286 288 287 287 285 284 285 287 282 280 281 291 294 295 294 291 286 292 286 287 281 285 291 296 301 300 301 302 301 299 301
289 287 287 293 294 294 283 276 279 286 286 285 281 285 281 284 284 284 285 290 288 288 288 285 280 288 292 295 295 293 296 285 287 279 277 284 288 289 295 297 300 301 302 303 306
287 281 288 293 294 288 277 277 282 287 286 283 282 282 283 283 285 284 287 292 292 291 290 289 284 284 292 289 289 291 290 290 290 287 282 280 287 297 297 300 299 301 304 306 305
284 273 288 293 284 280 276 282 287 285 287 285 286 285 284 284 284 285 286 291 296 294 289 290 287 282 285 292 295 294 291 291 285 283 285 285 286 300 301 302 301 302 306 306 309
282 281 291 294 274 277 281 282 285 283 284 285 283 285 288 284 281 286 289 295 294 291 289 291 285 279 282 288 292 290 292 293 292 290 285 282 286 301 302 303 304 303 304 303 303
285 270 278 283 282 277 275 278 280 287 285 286 285 287 285 283 286 284 285 291 295 293 297 293 285 282 277 283 289 286 290 293 291 286 286 287 291 295 297 299 302 302 302 301 300
287 277 280 270 281 282 283 282 278 279 285 287 284 285 284 281 283 282 288 290 293 295 292 288 281 285 287 288 288 287 287 290 288 290 287 289 290 296 298 299 301 303 302 298 297
283 280 283 280 282 279 281 279 279 282 282 282 283 285 286 284 285 282 287 287 287 290 288 289 282 284 282 287 287 284 287 288 290 292 291 291 290 300 303 304 303 302 299 296 294
290 290 283 280 279 274 273 280 280 283 285 287 286 285 283 285 290 290 289 290 288 286 286 286 284 281 277 282 282 280 286 286 289 294 292 288 294 301 301 301 301 299 296 293 292

GFSSW_sfc_thetae_078.txt.gz
Theta_e
310 310 310 310 311 311 311 311 310 310 310 310 310 310 311 312 312 304 296 300 306 316 319 305 304 305 303 299 299 294 286 282 285 288 291 296 292 296 299 297 299 303 309 315 323
310 310 310 310 310 310 310 310 309 309 309 309 309 309 310 312 303 298 305 311 316 319 305 300 295 299 296 297 297 293 286 286 291 293 293 294 292 296 296 296 299 299 310 320 323
309 309 309 309 309 309 309 309 308 309 308 308 309 309 310 309 293 290 319 314 319 320 307 301 299 295 290 294 295 294 289 291 294 297 295 293 295 297 296 295 298 299 300 317 320
308 308 309 309 309 308 308 309 308 308 308 308 308 309 310 302 282 298 318 321 321 317 306 308 302 293 288 288 293 290 295 296 295 298 296 295 294 296 296 299 303 301 301 314 318
308 308 309 309 308 307 307 308 307 307 307 308 308 308 303 293 292 300 310 306 308 311 306 306 299 295 289 290 290 291 293 297 298 298 297 298 296 297 297 300 302 301 301 311 316
308 308 308 308 307 306 306 308 308 307 307 308 308 308 299 288 300 299 301 301 299 308 306 306 301 300 295 292 290 292 292 293 295 296 298 297 298 296 298 300 300 299 299 309 316
308 308 308 307 306 306 306 307 307 308 308 309 309 305 298 293 303 302 303 300 298 298 297 298 300 294 292 289 294 295 292 294 294 294 295 298 293 294 299 299 298 298 297 307 317
307 307 307 307 306 307 307 307 307 309 310 311 309 303 294 306 305 303 302 301 302 301 299 299 297 294 291 293 293 291 290 286 292 294 295 294 289 295 297 296 296 296 295 304 316
307 307 307 307 307 307 306 306 308 310 310 310 303 300 293 309 303 307 304 300 301 299 298 302 297 292 291 286 283 286 282 286 289 296 294 291 291 294 297 295 295 295 295 296 308
307 306 306 307 307 306 305 306 307 308 308 308 306 296 299 297 305 304 303 303 299 298 297 294 290 286 286 284 277 281 284 284 284 290 291 290 290 294 297 295 296 296 296 295 299
306 305 305 306 306 305 302 299 293 292 295 292 295 297 298 303 305 300 301 299 299 295 288 291 285 283 284 287 287 288 286 285 286 292 291 291 290 292 294 294 294 295 295 295 298
305 305 304 305 305 304 295 294 292 292 285 295 296 296 300 301 295 299 301 293 294 290 290 288 284 288 289 288 287 286 284 285 289 293 292 290 290 295 295 294 296 297 297 297 297
304 304 304 304 303 294 291 293 296 295 286 291 295 294 296 297 292 293 296 294 290 288 289 285 288 293 290 289 287 287 285 286 286 291 293 290 289 291 295 295 296 297 298 298 298
305 304 304 305 293 292 291 296 295 294 281 284 291 295 297 297 290 298 298 294 291 288 291 289 293 291 290 289 289 284 291 290 289 288 282 289 281 288 292 295 296 297 297 297 298
304 303 304 302 291 288 293 295 295 293 269 286 293 301 297 292 294 293 298 294 288 292 292 288 292 291 289 290 292 288 293 292 291 287 286 287 283 286 291 290 293 297 298 298 299
303 303 303 295 292 292 293 293 293 277 270 283 293 291 291 294 293 292 293 295 296 294 293 291 295 294 292 294 294 294 292 291 290 287 281 285 284 283 288 292 294 297 299 299 297
302 302 299 297 288 292 292 290 275 272 284 283 284 287 287 288 291 290 288 286 285 282 283 287 290 293 295 289 293 292 289 280 280 280 279 288 285 287 294 296 297 298 299 300 299
302 301 296 296 292 292 289 281 271 278 281 286 284 285 284 288 289 289 285 283 286 286 282 281 278 290 294 291 288 289 288 280 276 278 280 289 282 288 299 301 301 302 302 303 299
300 289 288 291 292 291 283 271 274 279 283 281 282 283 283 286 285 285 284 283 285 287 282 279 280 291 293 293 293 290 287 291 285 286 283 284 288 296 301 301 301 302 304 304 306
287 285 285 292 292 289 277 276 278 284 284 284 278 284 280 282 282 282 283 287 286 288 289 285 280 288 291 294 293 293 295 286 286 278 277 282 285 288 295 297 300 301 302 304 307
285 280 287 292 291 282 269 276 280 285 286 282 280 279 280 280 283 282 286 290 292 289 288 287 284 284 291 288 287 290 289 289 289 287 279 278 283 297 297 300 299 301 302 303 307
282 272 288 291 278 281 273 281 286 284 286 284 284 282 281 284 282 283 284 289 295 293 288 290 287 281 284 291 294 294 289 289 285 282 285 284 283 300 301 300 302 300 301 303 304
280 279 288 289 270 275 281 282 284 282 283 283 283 284 285 283 280 284 286 292 293 291 290 289 285 279 281 286 292 289 291 291 291 289 283 282 284 301 301 299 301 299 299 300 300
283 271 278 285 282 279 275 278 279 285 284 285 284 285 283 282 285 283 284 289 292 294 297 292 285 281 277 280 287 284 287 289 289 284 285 285 288 295 297 297 299 300 297 297 297
285 277 279 270 279 280 280 280 277 278 284 284 282 283 282 279 282 281 285 287 291 295 293 288 282 284 284 286 286 286 285 286 285 288 285 287 289 294 297 298 300 300 296 294 292
281 278 280 279 281 278 280 278 278 281 282 280 282 283 283 281 283 281 286 285 285 290 289 288 282 283 281 284 283 281 282 284 285 287 289 290 290 298 302 303 301 299 295 291 290
286 290 282 280 279 273 271 278 279 281 281 284 283 281 281 284 287 288 291 291 289 287 285 286 283 280 277 281 281 276 282 283 285 288 290 286 292 299 299 301 299 296 294 291 289

GFSSW_sfc_thetae_081.txt.gz
Theta_e
310 310 310 310 310 311 310 310 310 309 310 309 309 310 310 310 311 305 297 302 307 315 317 310 310 309 308 304 303 300 294 290 291 291 294 300 299 303 304 303 304 307 310 317 326
310 310 310 309 309 310 309 309 309 308 309 309 309 309 309 310 304 299 306 310 314 317 307 303 301 305 302 302 302 299 293 293 296 297 297 299 299 301 301 302 302 304 308 323 327
309 309 309 309 309 309 309 308 308 308 308 308 308 309 309 310 294 292 321 315 317 319 308 305 301 301 296 300 300 299 293 296 297 299 300 299 300 302 300 299 303 303 306 313 322
309 309 309 309 309 308 308 308 307 307 308 308 308 309 310 303 285 302 315 319 320 316 309 305 302 296 293 292 298 294 298 299 299 301 300 298 301 299 301 302 307 307 308 307 311
309 309 309 308 308 308 308 308 307 307 307 308 308 308 304 294 293 302 308 307 313 313 305 307 302 297 294 294 294 294 296 298 300 300 301 302 300 300 301 305 307 307 305 307 308
308 308 308 308 308 307 307 308 308 307 308 308 309 307 300 289 301 301 303 303 303 310 307 308 305 303 299 296 294 296 296 296 297 299 300 297 298 300 302 305 305 304 306 307 307
308 307 308 307 307 306 307 308 308 308 309 310 309 305 298 295 305 305 304 302 302 304 304 308 307 301 298 292 297 296 292 295 298 298 298 300 295 296 303 305 304 305 306 306 307
308 307 307 307 306 306 307 307 307 309 311 311 310 303 295 306 308 305 304 303 305 305 301 302 300 299 295 297 294 292 293 288 296 297 299 298 291 298 303 302 302 303 304 304 305
307 306 306 307 307 307 306 307 307 310 311 310 303 300 293 309 303 308 306 302 302 302 302 303 299 295 294 290 288 289 285 288 292 299 298 296 293 299 302 301 300 302 303 304 305
305 305 305 305 306 306 306 305 306 309 308 308 304 295 298 297 305 305 306 304 300 298 298 297 295 291 289 288 281 284 286 288 289 294 296 294 294 298 301 301 301 302 304 304 305
304 304 304 304 305 305 300 298 292 293 294 290 293 296 296 301 305 302 303 300 300 297 291 294 289 286 288 289 289 288 287 286 290 294 292 292 293 296 300 301 301 302 303 305 306
304 305 304 304 304 303 298 292 290 291 285 294 293 294 297 299 293 298 303 296 296 291 292 291 287 291 292 290 289 288 286 286 290 294 293 292 292 296 299 300 302 302 304 305 306
304 304 304 304 301 295 293 292 297 295 287 290 295 294 295 298 292 293 298 295 291 291 290 288 290 293 290 289 287 288 287 288 288 292 294 292 290 293 297 300 302 303 304 305 305
304 304 303 303 294 293 292 296 296 295 282 283 291 295 297 297 291 298 299 295 292 288 291 290 294 292 291 290 291 287 293 291 290 289 285 294 283 291 295 297 299 302 304 305 306
303 303 303 301 293 290 293 296 296 294 271 285 293 301 298 292 294 293 299 295 289 290 292 288 293 292 289 290 293 290 294 292 292 290 289 288 286 290 295 294 298 302 303 305 307
302 302 302 296 293 294 294 294 295 279 271 282 291 287 288 292 294 293 294 296 296 293 295 291 298 296 295 296 296 296 293 292 292 289 282 288 287 288 292 295 298 301 303 305 306
302 302 299 298 288 294 294 291 276 272 284 281 282 285 285 287 289 291 289 289 287 285 285 290 292 296 297 292 295 294 289 282 280 281 281 290 286 290 296 302 302 303 306 308 310
301 299 295 295 294 294 291 283 271 278 279 285 283 285 285 287 287 287 287 285 288 288 285 283 280 291 296 292 289 291 290 283 276 280 283 290 285 291 302 304 305 307 307 308 310
297 290 290 292 294 293 286 274 275 279 282 281 282 283 283 285 285 286 285 285 288 290 284 282 282 293 295 295 295 290 287 292 285 287 283 287 291 298 302 302 304 304 305 305 308
289 286 288 292 294 289 279 277 278 284 284 283 277 282 277 279 281 283 284 290 290 290 291 287 281 290 293 296 296 294 295 286 287 278 278 285 287 289 295 298 300 301 301 303 306
286 283 291 293 294 283 274 276 280 285 286 281 279 278 278 279 282 282 284 290 291 292 291 289 287 286 292 290 289 291 289 290 289 287 281 280 286 298 297 298 299 298 300 301 302
284 276 290 295 282 281 278 281 285 284 287 284 284 282 281 282 282 282 283 286 291 290 289 292 288 283 287 293 296 294 291 290 284 282 286 284 286 301 300 299 300 297 297 299 301
281 282 290 292 276 277 281 281 283 282 283 283 282 284 285 281 278 283 286 291 290 290 289 291 287 282 283 289 293 290 291 292 291 288 283 282 286 301 300 298 300 296 296 295 297
282 274 281 286 284 281 278 278 280 285 283 285 284 285 283 282 285 282 284 288 290 289 295 293 287 283 280 283 287 285 288 289 288 283 284 284 288 294 298 298 300 296 295 293 293
285 278 281 275 280 281 281 279 278 278 284 285 282 283 280 279 281 282 285 287 289 290 293 289 282 286 286 287 287 287 285 286 284 286 283 285 287 292 296 300 300 296 294 292 291
281 280 282 281 282 279 279 278 277 280 281 279 279 282 281 278 279 278 282 284 285 289 288 291 283 285 282 286 284 282 283 283 285 286 287 288 288 296 299 303 301 295 293 290 289
287 289 283 280 280 277 276 278 278 280 281 282 282 280 280 282 287 288 289 289 288 287 286 287 285 282 278 283 282 278 283 283 286 291 290 286 292 297 298 301 299 295 292 289 287

GFSSW_sfc_thetae_084.txt.gz
Theta_e
309 310 310 310 309 310 310 309 309 309 309 309 310 310 310 310 311 309 302 306 310 314 314 316 315 313 311 308 309 308 299 297 298 297 300 304 302 306 308 306 308 310 311 314 322
309 309 309 310 309 309 309 309 308 308 308 309 309 310 310 311 308 302 312 311 314 317 308 309 307 311 307 306 307 303 298 299 304 303 301 303 304 305 304 305 306 308 312 313 320
308 309 309 310 309 309 309 308 308 308 308 308 309 310 311 311 301 300 318 317 314 316 311 308 308 308 303 306 305 303 298 303 302 303 304 303 303 305 303 301 305 305 308 311 315
309 309 309 309 309 309 308 308 308 308 308 308 309 310 310 307 290 308 312 316 317 317 310 306 304 301 299 298 303 299 302 302 303 304 303 301 305 303 304 305 309 310 310 311 311
308 308 308 309 308 308 308 308 307 307 308 309 309 309 308 299 297 304 307 307 314 313 308 305 301 300 297 299 300 298 300 301 303 302 303 303 302 302 304 308 310 310 310 311 311
308 308 308 308 308 307 307 308 307 307 308 309 310 309 304 294 305 305 305 306 308 310 307 309 305 305 301 301 299 301 300 301 302 302 303 301 302 303 304 308 308 308 309 311 311
308 308 308 307 307 306 306 307 308 308 309 311 311 308 302 298 307 308 308 305 305 307 304 308 310 304 302 299 302 300 296 298 299 300 300 303 299 300 305 306 306 307 310 311 312
307 307 306 306 306 306 306 307 307 308 311 311 311 307 299 308 311 309 310 307 307 306 304 307 309 304 301 301 297 293 295 291 298 301 302 302 294 301 305 306 306 307 309 310 311
305 305 305 306 306 306 307 307 307 310 311 311 307 304 297 309 305 311 311 305 306 307 306 305 303 299 299 294 291 292 287 290 294 301 300 300 296 302 306 306 305 307 308 309 311
304 304 305 305 306 306 306 305 307 310 310 310 308 298 303 300 307 308 311 308 303 303 300 299 299 295 295 292 284 287 288 291 291 296 297 296 296 301 304 305 306 307 308 309 310
304 304 305 304 304 305 305 305 299 298 298 294 295 296 296 302 305 303 306 304 303 301 292 296 292 289 291 292 293 292 289 287 291 295 294 294 296 299 303 304 305 306 308 309 310
304 305 304 304 304 302 304 296 293 295 291 296 297 296 299 301 294 298 306 298 298 294 297 293 289 294 294 293 291 291 289 290 293 296 295 295 296 300 302 303 304 306 307 309 310
304 304 304 303 302 302 299 295 300 300 291 293 297 297 298 300 296 297 300 300 296 294 295 292 293 296 294 293 290 290 289 290 291 296 298 296 295 298 301 304 304 305 307 309 310
303 303 303 303 298 299 297 299 301 302 289 287 295 298 299 300 295 302 301 298 296 292 294 294 297 294 292 291 292 288 295 294 293 292 288 297 287 296 300 301 303 305 307 308 309
302 302 303 301 297 296 296 301 302 300 277 290 295 303 297 295 297 297 302 297 291 293 293 290 292 292 290 291 295 291 296 294 294 292 292 292 290 295 299 298 302 305 307 309 310
301 302 302 300 300 298 301 302 302 285 276 285 292 289 291 295 296 297 296 299 297 293 294 293 298 298 296 297 296 297 294 294 295 292 285 291 291 294 298 300 304 307 310 311 313
301 301 300 301 295 302 302 300 284 278 286 283 284 287 289 290 292 294 293 292 291 285 287 291 292 296 299 294 298 296 290 284 284 283 284 292 291 294 301 304 306 308 310 313 315
300 297 297 299 302 302 300 288 277 280 281 286 285 286 285 289 289 292 291 290 294 292 289 286 284 293 298 295 291 293 291 285 279 282 287 293 288 295 304 307 309 309 310 311 313
297 300 301 301 303 302 292 281 280 281 284 283 284 281 283 286 284 288 290 289 292 293 287 286 285 295 297 297 296 292 289 295 288 289 285 289 294 301 303 304 305 305 307 307 309
297 296 296 302 304 297 288 280 282 285 285 284 278 282 279 281 281 283 286 292 289 293 295 291 285 293 296 298 298 295 297 287 290 281 280 288 290 292 298 300 302 303 304 304 304
296 291 297 302 301 293 283 281 282 286 287 283 281 280 281 281 283 283 284 291 290 291 293 294 290 289 294 291 291 292 290 291 291 289 284 283 290 301 298 299 300 303 301 301 300
294 287 297 301 289 290 284 284 286 285 287 286 286 285 283 284 283 283 284 288 292 290 287 294 291 286 288 295 298 296 293 293 287 285 288 287 289 304 302 302 303 299 300 299 298
290 289 299 298 283 283 285 283 285 284 284 284 283 285 287 284 280 283 286 291 292 289 286 287 289 283 285 291 295 292 293 293 291 291 286 284 289 303 303 303 302 300 299 296 295
291 284 290 293 290 284 280 280 281 286 285 286 285 287 285 283 286 283 284 288 291 292 291 289 289 287 283 286 292 289 291 293 291 287 287 288 290 295 297 298 301 300 298 295 292
291 285 287 282 284 284 284 281 274 279 285 287 284 284 282 279 282 282 286 286 288 291 287 290 286 288 288 288 289 289 288 289 288 289 285 288 288 293 298 300 301 299 296 292 290
287 287 289 285 285 283 282 281 279 281 281 281 281 283 284 281 281 280 284 285 284 289 286 288 285 286 283 288 287 284 286 286 287 287 288 291 291 299 302 302 300 298 294 290 288
292 293 291 283 283 283 282 279 280 282 283 285 284 283 282 284 288 289 290 288 286 285 285 287 286 283 279 285 284 281 285 287 289 292 292 289 294 300 300 300 296 294 292 289 287

GFSSW_sfc_thetae_087.txt.gz
Theta_e
309 309 309 310 309 309 310 310 309 309 309 310 310 310 311 311 312 310 305 311 311 317 313 315 317 311 312 310 312 312 301 298 301 302 303 307 305 310 311 308 309 311 311 315 320
309 309 309 310 310 310 310 309 309 309 309 309 309 310 311 312 309 306 316 313 312 317 308 309 309 312 308 307 308 305 300 300 306 307 305 306 306 307 306 306 307 308 312 315 317
308 309 310 310 309 309 309 309 309 309 309 309 310 310 311 311 304 304 318 318 314 316 312 308 310 309 306 307 307 305 300 305 306 308 307 306 306 308 305 303 307 307 310 313 314
309 309 309 309 309 309 309 309 308 308 308 309 310 311 311 310 293 310 314 317 317 314 312 307 306 303 303 302 306 302 305 306 306 307 306 304 307 305 306 307 311 311 312 313 312
309 309 309 309 309 309 308 308 307 307 308 309 310 311 309 302 302 310 310 311 312 313 311 306 303 302 300 301 302 301 302 304 306 305 304 305 303 304 304 308 310 311 311 312 312
309 308 308 308 308 307 307 308 307 307 308 309 310 310 306 297 307 307 306 308 309 311 310 309 305 306 302 302 300 303 303 302 304 304 304 302 303 304 306 309 308 309 310 312 313
308 308 307 307 307 307 306 307 307 307 309 310 312 310 304 301 310 309 308 306 307 309 307 309 310 306 305 301 304 302 298 300 301 302 301 303 299 300 306 308 307 308 310 311 312
306 306 306 306 306 305 305 307 307 308 311 313 312 311 300 309 312 308 310 308 308 307 306 310 310 307 304 304 300 296 296 292 299 301 302 302 294 303 307 307 306 307 308 310 312
304 304 305 305 306 306 306 307 307 311 311 311 311 308 300 308 306 311 312 307 306 305 306 306 305 302 302 296 293 295 289 292 294 300 300 301 298 303 307 306 306 308 309 310 311
304 304 305 305 306 306 306 306 309 310 311 312 310 303 306 301 306 309 312 310 306 305 302 300 299 295 296 294 286 289 291 293 293 298 299 298 298 300 304 304 305 306 308 309 310
304 304 305 304 305 305 305 307 304 304 304 298 298 298 298 303 306 303 308 306 305 303 296 298 293 291 293 295 295 293 292 291 294 297 295 295 296 298 301 302 303 305 306 309 311
304 304 304 304 304 304 306 301 298 299 293 298 299 300 303 304 298 301 305 299 300 295 299 296 291 296 297 296 293 292 291 291 294 297 296 296 297 301 302 302 304 305 307 308 311
304 304 304 304 304 304 301 299 303 303 295 295 301 300 301 303 299 300 302 300 296 295 296 294 296 299 295 294 292 292 290 291 292 295 298 297 295 297 303 306 306 307 308 309 310
303 303 303 303 299 302 301 301 304 305 293 291 298 299 300 301 298 304 304 300 297 294 296 296 299 296 294 293 294 290 295 293 292 292 288 299 288 296 300 301 304 306 308 309 309
302 302 302 303 301 300 299 303 306 303 281 292 297 305 299 297 298 300 304 300 294 295 295 292 295 294 293 294 295 291 297 295 295 293 293 292 290 294 301 299 303 307 309 311 312
302 302 303 303 304 302 304 305 305 291 279 288 294 291 292 295 297 299 299 301 300 294 295 295 300 297 296 297 297 297 295 295 294 293 286 290 291 291 297 301 303 308 310 313 315
301 301 300 302 300 305 305 302 289 281 288 286 287 289 289 290 292 294 293 294 292 289 289 292 293 297 298 295 298 295 291 284 284 284 283 293 291 294 302 304 306 306 309 311 313
301 299 299 303 305 306 303 293 281 284 285 289 288 288 285 289 290 290 290 290 295 294 290 288 286 294 297 295 293 293 292 285 278 281 285 293 287 294 305 306 307 309 310 312 312
299 302 304 305 307 305 296 285 284 285 286 285 286 284 285 288 286 287 288 290 293 295 288 288 288 296 297 299 297 292 289 295 288 289 286 289 293 303 305 304 305 306 308 309 310
300 300 299 305 307 301 292 284 285 288 287 286 281 284 282 284 283 285 285 293 292 295 295 293 287 295 297 300 299 295 297 288 290 281 280 287 290 293 298 300 303 304 306 307 309
298 295 300 305 305 295 287 285 285 288 288 285 283 282 283 283 284 284 285 291 293 292 293 293 291 290 296 293 291 292 291 292 292 290 284 283 289 302 300 302 302 303 305 305 305
298 292 301 303 294 293 289 286 286 287 289 287 288 286 285 285 284 284 284 288 294 293 286 290 289 287 290 296 298 296 293 293 287 286 290 289 291 304 303 304 305 304 305 304 303
294 293 301 301 288 289 287 286 287 286 286 286 285 286 288 285 281 285 286 291 293 291 288 288 286 283 287 292 296 292 295 295 294 293 288 285 289 302 302 301 304 304 304 303 301
295 289 294 297 294 288 283 284 283 288 286 287 286 288 286 284 287 284 286 290 293 291 292 289 286 284 283 287 292 290 292 294 293 288 288 289 292 296 297 299 303 304 303 301 298
295 290 292 286 289 288 286 284 282 282 286 288 285 286 284 281 283 283 286 287 290 292 290 289 281 285 290 291 292 291 291 292 290 292 288 290 290 293 299 300 305 304 300 297 294
290 292 291 288 286 286 282 283 281 283 284 283 283 285 286 282 283 282 285 286 285 289 287 288 283 283 288 290 290 287 290 290 289 289 288 289 291 300 303 305 302 298 295 292 290
297 298 294 286 287 286 286 283 282 284 285 286 285 285 283 286 288 290 291 291 289 286 285 284 284 284 283 287 286 283 287 288 289 292 293 289 295 299 293 289 289 291 289 288 287

GFSSW_sfc_thetae_090.txt.gz
Theta_e
311 311 310 310 311 311 311 310 310 310 310 310 310 310 311 312 312 309 303 311 312 317 313 307 313 310 308 307 310 312 300 297 299 300 302 308 306 310 311 307 308 310 310 314 323
310 310 311 311 311 310 310 310 310 309 310 310 310 310 311 312 307 305 316 317 317 316 306 301 305 310 303 304 305 303 300 299 304 305 304 307 307 307 306 306 306 308 312 315 318
310 310 311 310 310 310 310 310 309 309 309 309 309 311 312 311 304 307 319 317 317 317 305 304 307 308 304 305 304 302 298 303 304 306 306 305 306 308 305 303 307 307 310 312 313
310 309 310 310 310 310 310 310 309 309 308 308 310 311 312 309 293 309 319 317 315 311 309 308 303 301 301 301 305 299 303 304 304 306 306 303 307 305 306 307 310 310 312 311 312
309 309 310 310 309 309 309 309 308 308 308 309 310 311 308 302 303 310 318 318 313 309 309 307 302 301 297 300 302 301 302 304 305 305 305 305 302 303 304 308 310 310 311 311 311
310 309 309 309 308 308 307 308 308 307 308 309 310 310 305 294 309 309 307 307 308 309 307 308 304 304 300 299 299 301 301 301 302 303 302 301 301 302 304 307 307 308 308 310 311
309 309 308 307 306 306 306 306 307 307 308 310 311 311 303 300 309 311 308 305 306 306 305 309 308 304 304 300 303 302 297 300 301 302 301 303 298 299 305 306 305 306 307 309 311
308 306 305 305 306 306 306 307 307 308 310 313 314 311 298 310 311 308 308 306 308 307 305 307 309 305 303 305 301 297 296 291 297 299 300 299 292 299 304 304 305 306 308 308 310
305 305 305 305 306 306 307 307 307 309 313 312 310 307 298 310 305 309 312 307 308 307 305 305 303 300 301 296 293 294 288 290 293 299 299 298 294 301 305 305 304 306 307 308 309
305 305 305 305 306 306 306 306 309 310 311 312 310 303 305 302 306 308 311 309 306 304 300 299 297 293 294 292 286 289 290 291 291 296 297 295 296 300 303 303 302 302 306 307 308
305 304 305 305 305 305 304 307 303 303 307 302 301 301 302 303 307 303 304 305 305 302 296 298 292 288 292 294 294 293 292 291 294 297 294 294 294 296 300 301 300 301 301 303 306
304 304 304 304 304 305 304 301 298 299 292 301 299 299 303 305 300 304 305 298 298 294 298 296 290 295 297 296 295 293 291 290 293 296 295 293 293 298 300 302 303 302 303 305 306
304 303 304 303 304 302 301 299 303 303 293 297 301 301 301 304 300 301 302 299 295 293 294 292 295 299 296 294 293 292 290 289 289 293 295 294 291 295 300 302 304 305 305 306 306
302 303 303 303 299 301 301 302 305 305 291 292 296 300 302 301 298 306 305 301 297 293 294 293 298 296 295 293 294 289 295 294 292 290 284 294 285 294 297 299 303 305 308 309 309
302 302 302 303 300 299 300 303 305 304 281 293 297 305 299 296 298 300 305 301 294 294 295 292 294 293 293 294 296 292 296 293 293 291 290 290 288 291 296 296 300 307 309 313 314
302 302 302 302 303 303 304 305 303 290 280 289 295 293 291 295 296 299 299 303 301 295 295 293 298 297 296 297 297 297 293 293 293 291 284 288 288 289 292 300 304 307 309 311 313
301 301 299 301 300 305 306 301 289 283 290 287 289 290 289 288 291 293 293 293 291 288 289 293 292 296 298 293 297 296 291 282 281 282 282 291 289 291 300 305 305 305 307 310 312
301 300 303 303 306 307 303 294 282 286 286 291 289 289 285 288 289 291 289 287 292 294 290 286 285 294 297 294 291 292 291 283 277 280 283 291 286 292 304 306 307 308 308 310 310
300 301 303 306 307 305 296 286 285 287 288 286 286 284 285 288 288 287 287 286 292 295 288 287 287 297 298 297 295 291 288 293 287 288 284 286 292 297 304 303 304 305 306 306 308
298 299 299 304 306 302 292 286 286 289 288 287 281 285 282 285 284 285 285 290 292 295 295 290 284 292 295 297 297 294 296 287 288 279 278 284 287 289 294 299 302 302 303 304 305
297 294 300 304 305 296 288 287 287 290 289 285 284 283 284 283 285 284 285 289 293 292 293 291 288 287 292 291 291 291 290 291 291 288 281 281 287 298 297 300 300 302 303 302 302
298 291 301 304 293 292 288 288 286 288 289 287 288 286 285 285 284 284 283 287 292 292 287 290 286 282 286 294 297 293 292 292 284 284 287 286 287 300 300 302 303 303 303 301 300
293 293 299 300 288 288 289 287 287 286 287 286 285 287 288 284 281 285 286 291 293 290 287 289 284 279 284 289 293 291 294 293 293 291 286 284 287 298 299 301 304 302 302 300 298
295 290 293 295 293 289 286 284 284 289 286 287 287 288 286 285 287 284 285 289 292 291 292 290 284 281 278 283 287 285 291 294 291 286 286 287 289 293 298 300 302 301 299 297 294
295 291 292 287 288 288 287 285 283 282 287 288 286 286 285 281 283 283 285 287 289 291 290 287 281 284 286 287 287 287 289 291 290 290 286 289 288 294 296 296 296 298 296 293 291
291 291 291 290 288 287 283 285 283 284 284 284 284 286 286 282 283 281 284 285 284 288 288 288 280 283 281 286 287 286 291 290 289 290 290 290 291 296 294 292 292 291 290 288 287
295 297 294 287 288 286 286 285 284 285 287 287 286 285 283 285 288 288 289 288 287 286 285 285 282 281 278 284 287 283 288 290 290 293 292 287 291 296 292 287 285 287 286 284 284

GFSSW_sfc_thetae_093.txt.gz
Theta_e
312 311 311 311 311 312 311 311 311 311 311 310 310 311 311 312 313 307 300 307 311 319 316 307 304 304 301 298 301 303 296 293 295 295 298 304 301 304 305 302 304 305 303 316 322
311 311 311 311 311 311 311 311 311 310 310 310 310 310 311 313 306 302 311 321 322 317 303 300 296 299 296 296 297 295 292 295 299 301 300 303 298 301 302 301 303 303 307 311 317
311 310 310 311 311 311 311 311 310 310 310 309 309 310 312 311 301 303 320 321 319 318 302 301 299 297 297 296 295 294 292 297 300 304 303 300 300 302 301 299 302 303 304 306 309
310 310 310 311 311 311 311 311 310 309 309 309 309 311 312 306 289 304 320 320 320 311 305 301 299 293 292 295 299 293 298 299 300 302 301 300 300 301 300 302 306 305 305 306 306
310 310 310 310 310 310 310 310 308 308 308 308 309 311 306 299 301 312 322 320 310 306 303 302 300 297 292 295 297 296 298 301 301 302 301 302 300 299 299 302 303 305 306 304 305
311 310 310 310 309 308 308 308 308 307 307 308 310 310 302 293 304 310 309 308 305 306 305 305 303 302 297 295 293 296 297 297 298 298 298 298 297 297 300 301 302 303 303 305 304
310 310 309 308 307 306 306 307 308 307 308 309 311 308 302 297 305 304 305 301 301 301 299 302 305 300 299 296 301 299 293 295 295 296 296 298 295 296 301 301 301 302 303 304 305
310 309 308 306 305 306 306 307 307 307 308 310 314 307 298 308 305 305 304 302 304 303 302 301 301 298 298 299 298 293 292 287 293 295 297 294 289 297 300 299 299 300 301 303 304
309 307 306 306 306 307 306 307 307 307 309 313 306 304 297 311 304 306 303 302 304 304 301 304 298 293 296 290 287 289 284 286 290 295 295 292 290 295 297 298 298 298 298 299 301
307 305 305 306 307 307 306 306 306 307 310 310 308 300 304 301 303 305 305 307 304 302 298 295 291 287 287 285 280 283 285 285 285 289 291 290 289 294 297 298 297 296 297 299 301
306 305 305 305 306 306 304 300 298 297 302 300 301 299 301 301 304 301 303 300 300 299 291 293 285 282 285 288 289 288 287 286 288 292 290 290 290 292 294 295 296 297 298 300 300
305 304 304 305 305 305 301 296 295 294 288 299 304 302 300 301 298 302 303 294 293 291 294 291 285 291 292 292 290 289 287 286 289 293 290 289 289 292 294 295 298 299 299 300 300
304 304 304 304 304 301 297 296 301 301 289 295 297 298 300 303 298 299 300 296 292 289 290 287 292 296 293 291 290 289 287 286 287 289 290 288 287 290 295 297 300 301 301 303 301
303 303 303 304 298 299 297 299 302 302 287 292 293 298 300 301 296 304 304 299 295 289 291 290 293 293 292 291 292 286 292 292 290 287 281 287 280 288 294 296 299 301 301 299 308
302 302 303 302 295 295 297 300 300 299 278 292 295 304 299 295 296 299 304 298 292 291 291 288 290 290 289 290 293 290 295 292 290 286 286 287 283 287 294 293 296 304 306 306 308
301 302 302 299 298 300 301 300 298 286 278 288 295 293 291 293 293 298 298 299 298 293 292 290 294 292 291 294 294 295 292 291 288 285 280 285 285 285 288 292 301 306 307 308 308
301 302 299 299 295 301 300 296 285 280 291 286 288 290 289 287 288 289 291 288 287 282 283 290 291 294 294 289 293 291 286 278 276 277 278 289 286 288 296 301 304 304 305 306 308
301 301 300 298 302 302 299 289 280 287 285 290 287 287 284 286 286 288 286 282 286 290 286 283 281 290 296 290 288 288 287 280 274 275 279 290 283 289 300 299 302 306 305 306 305
300 295 297 302 302 301 292 282 281 285 286 284 285 283 283 287 286 285 284 283 290 290 284 284 284 293 294 295 293 288 285 292 285 285 280 284 288 295 298 297 298 302 301 301 302
293 295 296 300 301 296 286 284 285 288 287 287 280 284 281 282 282 282 283 288 290 291 291 287 280 289 292 296 295 291 292 282 285 278 276 282 284 287 294 294 299 298 298 298 299
292 290 296 299 300 291 280 284 287 289 288 284 283 282 282 282 282 282 283 287 289 289 289 287 285 283 288 287 288 290 287 289 289 285 277 278 285 295 293 295 298 297 297 296 296
291 285 297 298 288 289 283 287 288 287 289 287 287 286 284 284 282 282 282 286 292 290 284 288 283 278 281 288 290 293 290 288 281 281 285 283 284 295 296 298 300 297 296 294 293
289 288 295 295 280 282 287 286 287 286 286 286 285 287 286 283 279 283 285 291 292 289 285 287 280 274 276 283 289 287 288 288 287 290 283 281 285 295 298 297 296 293 293 292 291
289 282 287 290 288 285 283 284 284 289 286 286 285 286 284 283 285 283 284 289 291 290 292 288 282 278 273 278 284 282 285 287 286 283 285 286 287 293 294 292 293 292 290 289 288
290 285 288 280 283 285 285 285 283 282 287 287 284 286 284 279 281 280 284 285 288 292 288 284 278 281 282 283 284 284 284 286 285 288 284 286 287 290 290 291 290 290 289 287 286
285 286 286 284 286 284 282 283 283 284 284 282 282 284 283 279 280 278 281 281 281 285 284 285 278 279 278 282 284 282 285 287 287 288 288 289 288 291 290 289 288 287 286 284 284
289 292 289 286 283 280 280 283 284 285 287 286 285 283 281 283 285 286 285 285 285 282 277 280 277 275 272 282 281 279 287 287 288 290 289 286 288 291 286 284 284 284 284 283 283

GFSSW_sfc_thetae_096.txt.gz
Theta_e
313 313 312 312 312 312 312 312 311 311 311 311 311 311 311 312 312 306 298 303 307 316 319 307 303 300 299 294 298 299 290 289 291 295 297 304 299 301 303 300 303 303 302 313 321
313 312 312 311 311 311 311 311 311 311 310 310 310 310 311 312 306 301 309 316 318 321 302 300 296 295 295 292 295 293 288 292 298 299 299 301 297 299 299 299 301 302 307 318 319
313 312 312 311 311 311 311 311 311 311 310 310 309 310 312 311 300 301 319 319 320 321 301 300 299 295 293 293 293 292 290 294 296 300 300 298 299 300 299 297 300 301 303 306 312
313 312 311 311 311 311 311 311 310 310 309 309 309 310 311 305 286 303 322 320 320 310 303 298 295 290 289 291 295 290 295 296 297 299 298 297 300 298 298 301 304 303 303 304 305
313 312 311 311 311 311 311 310 309 309 308 308 308 310 305 298 298 307 321 319 312 306 301 300 297 295 290 291 292 293 296 298 299 300 299 300 297 298 299 301 302 301 302 302 303
312 312 311 311 311 310 309 309 308 307 307 308 309 309 300 289 301 306 313 311 307 301 302 302 302 301 297 295 290 294 295 294 295 296 296 295 295 295 298 300 300 301 301 301 301
312 312 311 310 310 308 307 308 308 308 307 308 309 307 300 295 302 302 306 301 303 303 300 300 301 296 296 294 298 297 292 293 293 293 293 294 293 293 298 299 298 300 300 301 303
311 311 311 309 307 306 306 307 307 307 307 309 311 306 296 307 306 305 303 301 301 300 299 300 298 295 295 297 295 291 290 285 292 294 295 292 288 293 296 295 296 299 300 301 300
311 311 309 307 307 307 307 307 306 306 307 310 305 303 296 312 305 308 305 300 301 301 300 303 298 292 292 288 285 287 283 285 288 293 292 290 289 292 295 295 294 295 295 297 298
310 309 307 307 307 307 307 305 306 305 305 309 307 299 301 300 302 304 303 305 302 301 297 294 289 285 285 283 279 282 283 283 284 288 289 287 287 292 294 293 294 293 294 295 297
310 307 306 306 306 306 303 297 298 296 298 297 297 297 301 301 301 300 302 299 297 296 289 291 284 281 283 285 287 287 285 284 286 289 288 288 288 290 291 291 291 293 294 294 297
308 306 305 305 305 304 300 293 294 293 286 298 302 302 305 304 296 300 302 293 291 286 292 288 283 288 290 289 287 286 284 284 288 290 289 287 287 291 292 291 294 295 296 297 299
306 305 304 303 304 299 296 295 300 298 286 292 295 297 300 300 296 298 298 294 289 287 289 286 290 295 291 289 288 287 285 285 286 288 287 286 285 289 293 294 295 297 298 300 300
306 304 303 303 297 296 296 299 301 299 282 289 293 296 299 301 296 302 302 297 292 288 288 287 291 290 289 289 290 285 290 290 289 285 281 287 279 288 291 292 295 297 298 304 306
304 303 302 302 293 295 298 298 298 297 274 291 293 303 300 295 294 298 303 298 291 290 290 287 288 288 287 288 290 288 292 291 289 284 282 285 280 286 290 290 293 296 305 305 306
302 301 301 298 296 298 298 299 298 283 274 289 295 293 291 293 292 297 297 298 296 291 290 289 292 290 288 291 291 292 290 288 287 284 279 285 281 283 286 290 296 302 305 306 306
301 300 299 299 294 300 299 296 284 280 291 285 287 290 288 287 287 287 288 287 284 280 280 286 287 290 293 288 290 288 284 278 276 275 277 285 282 285 292 298 298 299 303 303 302
299 299 298 297 298 300 298 288 280 285 284 288 286 286 283 285 285 286 284 280 288 288 284 282 280 288 292 289 286 285 287 280 274 275 277 286 280 286 298 301 302 300 302 300 299
299 294 293 299 299 299 291 282 281 284 286 284 285 281 283 285 285 284 283 285 288 287 282 281 282 289 291 291 292 287 282 288 283 284 280 282 286 293 298 298 299 298 299 296 295
292 293 295 301 299 296 287 284 283 287 287 286 280 283 279 281 281 282 282 288 287 288 288 285 279 287 289 289 290 291 292 281 281 276 274 280 282 284 291 293 296 297 294 293 293
291 289 295 299 299 290 280 283 285 288 288 284 282 281 281 281 282 281 282 286 288 288 289 285 282 282 285 283 282 283 284 287 287 284 277 276 280 293 293 294 295 296 293 291 289
290 284 296 298 288 287 283 287 289 287 289 287 286 285 283 283 281 281 281 286 291 289 283 286 281 278 279 285 287 284 284 288 282 281 283 280 282 295 294 296 295 292 291 290 288
288 287 294 296 280 280 286 286 287 286 286 285 284 286 285 281 278 282 284 291 290 287 283 285 278 274 275 279 286 283 285 287 286 285 281 278 282 293 294 290 290 289 288 288 288
288 281 286 288 288 284 283 284 283 287 285 286 285 285 282 282 284 281 282 288 289 290 292 287 281 277 273 276 281 279 282 285 284 279 281 283 286 291 289 290 290 289 288 286 286
288 283 287 279 282 284 285 284 282 282 286 286 283 283 281 279 279 279 282 283 285 291 286 283 276 279 281 281 281 280 280 281 281 284 281 285 286 286 288 288 287 288 287 285 284
283 283 286 283 286 282 283 282 282 283 283 281 280 283 281 278 279 277 280 279 279 283 282 285 273 278 277 280 280 280 282 283 284 287 287 289 286 288 288 288 285 285 284 282 282
289 291 286 283 282 281 280 283 283 284 285 285 284 281 280 282 284 284 284 284 283 281 276 279 276 275 271 279 279 274 280 283 287 287 288 284 287 288 284 282 282 282 282 281 281

GFSSW_sfc_thetae_099.txt.gz
Theta_e
316 315 314 313 312 312 312 312 312 312 311 311 311 311 311 312 312 305 297 300 306 314 317 304 301 299 297 292 295 298 289 285 289 291 294 301 297 299 301 299 301 302 300 311 323
316 315 314 313 313 312 312 312 312 311 311 311 310 310 310 312 305 300 307 312 315 318 303 299 295 295 294 291 293 291 286 289 296 297 297 300 296 300 298 299 300 300 305 307 317
315 315 314 313 312 312 312 312 311 311 310 310 309 309 311 310 296 295 319 318 317 320 307 299 298 294 289 291 291 289 288 292 294 297 296 295 297 299 297 297 299 299 301 303 305
316 315 314 313 312 312 312 312 311 310 309 309 309 309 311 304 286 301 321 322 321 310 300 298 294 289 286 289 293 289 293 294 293 296 295 295 298 297 297 298 302 302 303 301 303
315 315 313 312 312 311 312 311 309 308 308 308 308 310 304 295 295 301 320 319 312 304 300 298 293 290 287 288 289 289 292 295 297 297 296 298 295 296 297 300 301 301 300 300 301
315 314 313 311 312 311 311 310 308 307 307 307 308 309 300 286 297 303 309 310 304 301 300 299 298 299 296 294 290 292 292 292 293 293 294 294 294 292 296 299 298 299 299 300 300
314 313 313 311 311 311 309 307 307 307 307 307 308 306 298 294 300 301 308 304 303 303 299 302 302 296 294 291 296 295 291 292 293 293 292 294 290 291 296 297 295 296 296 298 300
314 313 312 311 311 309 307 307 307 307 307 307 309 306 294 305 304 303 303 302 302 301 302 299 298 294 292 294 293 289 289 284 291 292 293 290 287 292 295 292 293 294 295 296 297
313 312 311 310 308 307 307 306 306 306 307 307 305 301 293 309 305 308 303 300 300 299 298 301 296 290 291 287 284 285 282 284 287 292 291 289 287 291 294 294 293 293 293 294 295
312 312 311 308 306 307 307 306 305 304 305 308 306 295 298 298 302 302 304 302 299 299 296 293 288 285 283 283 278 281 282 280 282 287 286 286 287 291 292 292 292 292 293 294 295
312 311 309 306 306 306 301 296 295 294 296 295 296 295 297 304 300 297 299 299 297 294 288 289 283 281 282 284 286 285 283 282 283 288 285 286 287 290 292 288 288 290 291 293 294
311 310 307 306 305 304 298 292 295 294 286 297 300 298 301 302 298 297 300 293 290 285 289 287 282 287 288 287 285 284 282 281 285 288 286 285 285 290 290 289 290 292 293 294 295
311 308 306 306 303 299 295 296 301 296 284 288 295 298 300 303 297 295 298 293 288 285 285 284 289 293 289 287 285 285 282 283 283 287 287 285 285 288 291 292 294 295 294 296 301
308 307 306 304 294 296 294 300 301 296 277 284 290 293 298 298 293 300 299 294 289 285 286 285 290 288 286 286 288 283 289 288 287 283 279 286 279 287 289 289 293 295 296 302 303
307 305 304 301 295 294 297 297 301 296 272 289 290 300 299 294 293 295 301 296 289 289 288 285 288 287 285 287 289 286 290 288 287 283 281 284 279 284 290 288 291 298 303 302 302
305 303 302 299 296 297 299 300 297 283 275 287 293 292 291 293 292 295 295 296 295 290 289 288 291 290 289 291 289 291 287 287 284 282 277 283 280 282 284 288 295 299 299 299 299
303 302 299 299 294 299 298 294 284 278 289 285 289 292 288 286 286 288 287 287 284 280 280 286 286 288 292 287 290 287 282 276 275 274 276 284 280 282 293 297 297 297 297 297 296
301 300 298 298 297 298 296 288 279 284 283 287 286 286 283 283 284 285 283 283 288 287 283 280 278 286 289 288 285 285 283 276 274 275 276 284 278 283 296 298 298 298 298 296 294
299 294 293 297 297 296 290 282 282 283 285 284 285 281 282 285 284 284 283 285 285 286 281 280 281 288 289 288 285 284 281 287 281 281 278 280 283 292 296 295 298 297 295 293 291
292 292 294 300 299 295 288 284 283 287 287 286 280 283 279 281 281 281 282 286 285 287 287 284 277 285 287 287 287 286 288 279 282 274 274 278 279 281 289 293 296 294 292 291 290
293 289 295 299 299 291 281 283 284 288 288 284 282 280 281 280 280 280 281 285 286 286 287 283 281 280 283 281 279 280 279 283 284 282 278 275 278 293 291 294 296 291 290 289 288
290 284 295 299 288 287 282 286 289 286 289 287 286 284 282 281 279 279 280 284 289 287 281 285 281 276 278 284 285 282 283 284 271 275 279 279 280 294 292 291 291 288 288 288 287
288 286 294 296 281 281 285 285 287 286 285 284 284 285 284 281 277 281 283 290 289 286 282 283 277 273 275 278 282 281 282 284 284 283 277 277 281 293 292 290 289 288 287 286 286
288 280 285 289 288 284 283 283 283 287 285 285 284 285 282 281 282 280 281 286 288 288 292 287 280 277 272 276 279 277 279 281 280 273 276 278 281 290 289 288 287 286 286 285 285
288 283 287 281 282 284 284 285 282 281 285 285 282 282 280 278 278 278 280 281 284 289 285 282 276 279 280 280 281 279 278 279 278 279 275 279 283 286 287 286 285 285 285 283 283
285 284 284 283 285 283 283 282 281 282 282 280 280 282 280 277 278 277 279 279 279 284 281 282 272 278 277 279 279 277 279 280 281 282 282 283 284 288 287 285 283 283 282 281 281
289 289 285 283 282 281 279 282 282 283 284 284 282 280 279 280 282 283 283 283 282 280 277 278 276 274 270 278 277 273 278 280 281 286 286 283 285 286 283 281 280 281 281 280 280

GFSSW_sfc_thetae_102.txt.gz
Theta_e
318 317 316 315 314 313 312 312 312 312 312 311 311 311 311 311 312 304 295 300 306 312 316 303 300 299 296 291 294 296 287 283 286 289 291 298 296 299 301 299 300 301 298 304 320
318 317 316 315 315 313 312 312 312 311 311 310 310 310 310 312 304 299 306 311 316 317 303 299 294 296 292 291 290 291 285 287 293 294 294 297 294 298 297 297 299 300 304 304 319
319 318 316 315 315 313 312 312 311 311 310 309 309 309 311 310 293 293 318 315 316 315 304 299 297 293 289 290 289 288 287 291 294 298 294 293 294 296 296 294 298 298 300 301 302
319 318 317 315 314 313 313 312 311 310 309 308 308 309 310 303 286 298 320 321 319 314 302 297 294 289 286 287 292 287 291 293 293 296 293 292 294 294 295 297 301 300 301 300 300
318 317 317 315 314 313 313 312 310 309 308 307 308 309 302 291 293 299 319 322 314 303 298 296 292 289 286 288 289 289 291 293 295 295 294 295 293 295 294 298 299 299 299 299 299
317 316 316 315 314 313 312 311 309 307 307 307 307 308 297 284 295 303 303 308 304 300 298 298 295 294 293 293 290 292 291 292 292 292 292 292 291 292 295 296 296 297 297 298 298
317 316 315 314 313 312 311 310 307 307 307 307 307 305 297 290 298 299 302 304 303 300 298 300 301 293 292 289 294 294 289 291 292 292 292 292 287 290 295 294 293 293 294 295 297
317 315 314 313 312 312 310 307 307 307 307 307 309 304 292 304 302 302 301 301 301 300 301 300 298 293 290 292 291 288 287 283 290 290 292 290 284 290 294 290 292 294 294 294 295
317 314 313 311 311 309 306 306 306 306 306 307 304 299 290 305 301 306 303 299 297 299 298 301 295 290 289 285 282 283 280 282 286 291 290 288 284 288 293 292 291 292 292 292 293
316 314 312 311 309 306 306 305 304 304 304 306 305 291 295 293 302 301 302 300 297 297 294 291 288 284 283 282 276 279 280 279 281 286 287 285 285 288 290 290 291 291 291 291 293
315 313 312 310 307 305 301 297 297 295 295 292 293 290 294 302 304 295 300 298 296 293 287 287 283 281 284 283 284 284 282 281 282 286 284 284 285 286 288 288 288 289 289 290 292
314 313 311 308 306 305 300 292 296 295 286 296 297 297 299 301 295 300 298 293 289 286 289 286 281 286 286 285 284 283 281 280 283 286 284 283 285 289 288 289 289 290 290 290 296
313 311 309 307 305 301 295 293 301 297 285 287 294 295 297 300 295 296 296 291 287 285 285 283 287 291 287 285 284 282 280 281 282 285 285 283 283 285 289 289 291 293 295 302 302
311 310 307 305 297 295 290 296 297 296 279 281 287 293 298 300 294 301 297 293 287 285 284 283 288 288 286 285 285 281 287 286 285 282 277 283 277 284 287 288 290 300 299 298 298
310 308 305 302 295 294 297 301 301 297 271 285 289 297 298 292 291 293 298 293 287 286 286 283 286 285 284 286 287 284 289 287 285 281 279 280 278 282 288 286 294 296 297 296 296
308 306 303 299 296 298 299 302 299 283 272 285 290 289 290 292 290 294 294 295 293 288 287 286 289 289 287 289 288 289 286 285 284 282 276 281 280 281 282 289 294 297 297 296 294
306 304 299 299 292 299 299 295 280 274 287 286 287 290 289 288 288 289 288 286 284 280 279 285 285 288 290 287 289 286 282 277 274 274 275 283 279 283 289 295 296 296 294 293 292
303 301 299 298 298 299 296 288 274 281 282 286 285 286 282 283 284 284 285 283 287 286 283 279 277 285 289 286 282 283 282 277 273 274 275 282 276 281 294 296 296 296 294 292 290
299 294 294 295 296 297 291 278 276 282 284 283 285 281 281 284 284 284 284 284 285 286 281 281 281 288 288 287 284 282 281 285 280 280 277 278 281 290 295 294 297 295 292 290 288
291 291 292 299 298 296 286 281 284 286 286 286 281 283 279 281 281 281 282 285 285 287 287 284 276 284 286 285 285 283 284 276 278 272 273 276 278 279 288 291 294 291 289 288 288
293 286 295 299 299 291 280 284 285 288 288 285 282 281 282 281 281 280 282 285 286 286 286 282 279 279 281 280 277 279 277 280 282 278 273 274 278 291 290 291 290 289 288 287 286
291 283 296 298 286 287 283 287 289 286 289 287 287 284 282 282 280 280 281 284 288 286 280 283 280 275 277 282 284 281 281 282 269 271 276 274 277 293 291 290 290 288 288 286 286
287 287 295 294 281 282 286 285 286 285 285 285 284 285 285 281 278 282 284 288 288 285 282 283 277 273 274 278 281 279 280 282 281 280 275 269 275 292 292 290 289 287 285 285 285
285 280 286 290 289 285 283 283 282 287 285 285 284 285 282 281 282 280 281 284 286 287 291 286 279 276 271 275 279 277 279 280 277 267 273 276 278 283 288 286 285 285 285 284 283
286 280 285 281 283 283 284 284 281 281 284 285 282 282 281 278 278 277 279 280 282 288 284 281 276 278 279 279 280 279 278 278 276 277 273 276 276 281 286 284 283 283 283 282 282
285 284 285 283 285 283 282 282 281 282 282 280 280 281 280 278 278 276 279 279 278 283 280 281 272 277 276 279 279 276 277 278 278 278 278 279 278 288 285 284 282 281 281 280 280
288 289 285 282 281 280 280 282 282 283 284 284 282 280 279 280 281 281 282 282 281 279 277 278 275 273 268 276 276 271 276 278 280 283 280 275 281 284 281 280 279 279 280 279 279

GFSSW_sfc_thetae_105.txt.gz
Theta_e
320 320 318 317 316 314 313 313 312 312 312 312 311 311 311 311 312 306 298 303 308 314 315 306 305 304 302 300 303 301 293 290 292 293 296 302 301 305 306 305 305 307 306 310 312
321 320 318 318 317 315 313 312 312 312 311 311 311 310 310 312 305 300 307 311 319 318 305 301 298 301 300 297 298 299 292 291 296 298 298 300 300 301 301 302 303 304 308 310 310
321 321 320 319 317 316 314 313 312 311 311 310 309 309 311 310 295 296 319 315 315 315 305 304 300 298 294 297 295 295 291 295 298 300 301 300 299 301 300 298 302 302 305 307 308
321 320 320 319 317 316 314 313 311 311 309 309 309 309 311 304 293 302 321 319 317 315 305 300 298 294 292 292 296 291 295 296 297 300 300 298 301 298 299 301 305 306 306 305 306
320 319 319 319 317 316 314 313 311 310 308 308 308 309 304 291 292 302 319 322 315 311 302 298 296 293 290 290 292 292 295 297 298 298 298 298 297 298 298 302 304 304 303 304 305
319 319 318 318 317 315 314 312 310 308 307 307 307 308 300 285 299 305 305 312 309 304 301 299 296 296 294 295 293 295 294 295 296 296 296 295 297 297 299 302 301 301 302 303 303
319 318 317 317 316 314 313 312 308 307 307 307 307 305 298 290 301 302 303 307 305 303 300 301 302 299 297 292 296 296 292 295 296 297 296 297 293 293 300 300 298 298 300 301 303
320 318 316 316 314 313 311 309 306 306 307 307 307 304 292 303 306 304 303 302 303 304 302 303 303 299 294 296 293 291 291 288 294 295 296 296 290 296 297 296 297 299 300 300 302
319 318 316 314 312 311 309 306 306 306 306 306 303 300 291 305 298 304 303 298 300 301 301 302 299 295 294 289 287 288 285 287 290 295 294 293 290 295 298 297 295 298 299 300 300
318 318 315 313 311 310 307 304 303 305 305 305 304 293 296 294 301 305 305 303 298 297 296 295 294 290 289 287 282 283 285 287 287 292 292 290 289 292 295 295 295 297 299 299 299
318 317 314 312 310 306 301 299 297 295 298 293 294 291 293 302 305 299 303 301 299 297 290 292 288 285 288 288 288 288 286 285 288 291 288 289 290 292 295 294 295 296 297 297 299
317 316 314 311 308 305 298 291 297 296 289 296 296 296 299 302 296 299 302 297 294 290 292 289 285 290 291 289 287 286 284 285 288 290 288 289 289 293 294 294 296 296 298 305 306
316 315 312 309 306 300 296 293 299 301 288 290 294 294 295 298 292 296 297 295 292 289 289 288 290 292 289 287 286 286 285 286 286 290 291 288 288 290 294 294 300 305 305 304 302
316 313 309 306 299 297 294 298 299 298 281 286 287 293 297 298 291 298 299 295 290 288 287 288 292 290 288 288 289 284 289 288 287 286 282 289 281 289 292 293 299 302 301 300 300
313 309 306 307 295 293 297 298 296 297 274 288 288 299 299 293 293 294 299 295 289 288 288 286 287 286 286 287 289 287 290 288 288 286 285 285 283 287 290 290 296 300 300 300 298
311 307 305 299 299 300 302 305 299 281 274 284 291 289 291 294 293 295 295 298 295 289 290 289 293 291 290 291 291 291 289 288 287 286 280 285 284 285 288 290 297 300 299 296 296
308 305 302 301 294 301 301 296 279 276 287 286 287 290 289 288 290 291 290 289 287 284 284 287 287 291 292 289 290 289 286 280 278 279 278 285 283 286 292 298 298 297 296 295 294
305 302 300 301 301 302 296 285 275 281 282 288 288 289 286 285 285 285 288 286 289 288 284 280 279 287 290 287 284 285 286 281 274 276 279 285 281 286 297 298 298 296 295 294 294
301 296 296 297 301 300 290 279 281 282 285 284 285 283 282 284 285 287 286 285 286 287 283 281 281 288 288 288 287 285 284 287 281 283 279 282 285 293 296 295 296 294 292 290 290
293 291 293 298 298 296 286 281 283 286 286 286 282 284 280 282 282 284 285 287 285 288 289 285 279 285 287 287 287 285 286 279 283 274 273 279 281 284 289 291 293 291 289 288 289
292 287 292 300 298 289 281 282 286 288 288 285 283 282 282 281 282 281 283 285 287 287 288 285 282 281 284 282 280 281 280 282 284 282 275 274 279 291 291 289 289 288 287 286 287
289 281 295 299 286 287 283 286 289 286 289 287 287 285 284 285 281 281 282 285 289 288 283 285 282 277 278 284 286 284 283 283 277 274 279 279 278 293 291 290 289 287 287 287 287
286 285 296 295 281 282 287 286 287 285 285 285 285 286 285 282 279 283 285 288 289 287 285 286 280 274 276 281 283 282 283 284 283 281 276 274 278 293 292 289 287 286 286 286 286
288 282 288 291 290 285 284 283 282 287 285 286 284 285 284 282 283 281 283 284 287 289 291 288 281 277 273 277 281 278 280 282 280 275 276 277 280 285 287 287 286 285 285 284 284
287 283 287 281 284 285 286 285 282 281 285 285 282 283 282 279 279 279 281 282 285 290 286 285 278 280 280 281 281 280 280 280 279 279 275 278 278 282 285 286 284 284 284 283 282
285 285 286 285 287 284 284 282 281 281 283 281 281 281 282 279 280 278 280 281 280 286 284 284 278 279 277 280 280 277 279 279 279 279 279 279 279 286 286 285 283 282 282 281 280
289 290 288 285 283 282 282 283 282 284 285 284 283 282 281 281 284 284 285 285 284 283 281 281 279 276 271 277 276 272 277 279 280 283 281 276 282 286 282 281 281 280 280 280 280

GFSSW_sfc_thetae_108.txt.gz
Theta_e
322 322 321 319 318 316 314 313 313 312 312 312 312 311 311 312 312 308 303 307 309 313 315 311 310 308 309 306 307 306 299 298 299 300 302 306 304 309 310 308 309 311 311 314 316
322 322 321 320 319 317 315 313 313 312 312 312 311 310 310 312 307 303 312 310 318 319 308 306 304 306 303 303 304 301 298 299 303 303 302 303 304 305 304 305 306 308 312 314 315
323 322 322 321 319 318 316 314 313 312 312 310 310 310 311 311 302 302 316 316 319 316 308 307 303 302 299 302 301 301 297 303 301 302 303 302 302 305 303 301 305 305 308 311 312
323 322 321 321 320 318 316 314 313 311 311 309 309 309 311 306 300 309 321 317 317 314 308 306 303 299 297 297 302 296 299 300 301 302 302 301 303 300 302 303 307 307 309 309 310
321 321 321 321 320 318 316 314 313 311 309 308 308 309 306 298 301 312 323 319 315 311 306 303 301 300 296 297 298 296 298 299 301 300 300 301 299 300 301 304 307 308 308 308 309
320 320 320 320 320 318 315 314 312 309 307 307 308 308 302 294 305 306 306 312 308 308 304 304 301 303 298 296 296 298 299 299 301 301 301 299 300 302 302 305 305 306 306 307 307
320 320 319 319 319 317 315 313 310 307 307 307 307 306 300 299 306 307 306 308 308 308 303 305 304 300 301 298 301 300 295 298 299 300 299 302 297 298 303 305 304 304 305 306 307
318 319 318 318 317 316 313 311 308 306 307 307 307 306 297 306 309 306 306 305 308 309 306 307 307 305 301 301 298 295 297 292 298 299 300 300 294 301 304 303 302 303 305 305 307
316 316 318 316 315 313 312 308 307 305 305 306 304 302 298 307 302 305 307 301 303 307 307 304 304 300 299 295 294 295 291 293 295 300 299 298 295 300 303 302 301 302 304 305 306
315 315 316 316 314 311 309 306 303 304 305 305 304 297 303 302 303 307 310 303 299 303 301 300 299 296 296 293 288 292 292 293 292 297 297 296 295 299 301 300 301 302 303 305 305
316 315 316 316 312 308 304 302 298 298 299 300 300 301 298 303 308 306 308 305 300 297 291 297 292 290 293 295 295 293 291 290 294 297 294 293 295 298 301 301 301 302 303 303 307
315 315 315 315 311 307 303 300 301 299 295 301 301 301 305 304 299 304 307 300 298 292 294 293 289 294 296 295 293 291 290 290 294 296 294 295 295 298 300 301 302 302 302 307 309
314 315 316 313 308 303 300 298 304 302 292 299 301 301 302 302 298 301 303 301 297 294 294 291 294 297 294 293 291 292 290 290 290 294 296 294 292 295 298 300 301 305 308 308 307
314 314 313 308 302 299 296 300 301 300 284 295 295 298 301 301 296 305 306 301 297 294 295 293 298 294 293 291 293 288 294 292 291 290 286 293 285 292 296 297 301 305 306 307 306
314 314 308 308 299 297 303 303 301 298 277 293 293 301 300 296 297 299 305 301 295 294 295 292 291 291 291 291 294 290 294 292 292 290 290 290 287 291 295 294 298 304 305 304 304
314 310 307 301 302 303 301 302 301 285 279 290 293 292 293 295 295 298 297 301 300 294 293 293 296 294 293 294 294 295 292 292 292 290 283 288 288 289 292 294 299 303 302 302 303
310 308 308 303 300 303 302 297 283 280 291 288 289 291 292 290 292 294 292 292 290 286 286 290 291 294 295 292 294 292 290 283 282 282 281 289 287 291 296 299 301 300 301 302 302
308 307 304 303 304 304 299 289 280 288 289 291 291 292 289 290 291 292 290 287 292 291 287 285 283 291 293 291 290 290 290 283 277 279 283 288 284 291 300 300 300 298 298 298 299
303 300 299 302 303 303 293 283 286 289 291 288 289 288 288 288 289 291 290 288 291 293 286 285 284 290 290 290 289 288 286 290 285 286 282 285 289 296 297 297 298 297 297 296 296
298 295 295 302 303 298 289 287 290 292 290 289 285 289 286 287 286 288 289 291 289 291 295 288 281 288 289 289 289 288 290 283 285 276 275 282 284 288 292 293 294 293 293 295 296
295 288 292 300 300 290 285 286 289 290 290 287 287 286 287 285 287 286 287 288 292 288 292 290 286 283 286 285 285 284 283 284 286 284 278 277 282 295 291 292 291 293 294 294 294
290 283 295 300 286 288 285 289 290 287 290 289 289 288 287 287 285 284 285 288 291 291 286 288 286 281 282 287 288 287 284 284 280 278 282 282 282 296 295 294 293 293 292 294 294
286 285 294 295 284 285 289 288 289 288 289 289 288 289 288 287 283 285 286 289 291 289 288 288 284 278 278 283 286 284 286 286 285 284 280 279 283 296 293 292 292 291 292 292 291
289 283 286 288 289 288 285 285 285 289 288 288 289 290 289 286 287 284 285 286 290 291 291 290 284 281 277 280 284 281 283 285 283 279 280 281 283 288 291 290 291 291 290 290 290
293 289 291 283 286 288 288 287 285 285 288 289 286 288 287 283 284 284 286 285 289 291 290 288 280 282 283 283 283 282 282 283 282 282 279 281 281 285 288 289 289 289 288 288 287
290 289 291 289 289 287 287 287 285 285 286 285 285 286 287 284 285 283 286 286 284 288 287 287 281 281 279 283 282 280 282 283 283 282 282 282 281 288 291 289 288 286 286 285 284
296 294 291 287 288 286 287 287 287 287 287 288 288 286 285 285 288 289 289 289 287 286 285 285 282 279 275 279 279 276 280 281 282 284 283 279 286 290 287 286 286 284 284 282 282

GFSSW_sfc_thetae_111.txt.gz
Theta_e
324 323 322 321 320 318 316 315 314 314 313 313 313 312 312 313 312 312 310 311 312 312 314 312 311 309 308 308 310 310 300 300 303 304 306 310 307 312 312 310 312 314 314 316 318
324 324 323 322 320 319 318 316 314 313 313 313 312 311 312 312 310 310 314 315 316 317 308 308 307 308 306 306 308 304 301 302 308 307 305 308 307 308 308 308 309 310 314 316 316
325 324 323 323 321 319 318 316 315 313 313 312 311 310 312 311 308 308 317 320 318 316 312 311 308 307 304 307 306 305 300 306 306 308 306 305 305 308 305 304 307 307 310 312 313
324 323 323 323 322 320 318 316 314 313 312 311 310 310 312 310 303 314 320 318 321 317 310 307 305 302 301 301 306 301 304 304 305 306 305 303 306 305 306 306 309 309 310 310 311
321 322 322 322 322 320 317 315 315 313 311 309 309 309 309 308 309 319 322 318 314 312 308 307 305 304 301 304 304 301 303 304 305 304 303 304 302 302 303 307 308 308 309 309 309
318 320 321 321 321 320 318 315 314 313 309 308 308 307 307 303 315 311 311 315 312 311 309 308 306 307 303 302 302 304 303 303 304 304 304 302 302 303 305 307 307 307 307 308 309
316 317 319 320 320 319 317 314 313 310 307 307 308 306 303 306 317 314 310 309 312 310 307 309 308 304 304 301 305 303 300 302 304 304 303 304 300 301 306 308 306 306 307 308 309
316 316 316 318 318 318 316 313 311 308 306 307 307 305 300 316 316 312 312 309 311 312 309 311 309 305 304 306 303 298 299 295 303 305 304 303 296 304 307 306 305 306 307 308 309
315 315 315 315 316 316 314 311 308 307 305 306 303 304 303 311 307 311 312 307 308 309 310 307 307 303 304 299 297 299 293 297 301 305 302 301 298 304 306 305 304 306 307 307 309
313 314 315 314 315 313 310 309 306 304 304 304 303 299 306 308 313 308 311 308 304 304 304 303 301 298 299 297 290 295 296 299 297 302 302 299 299 303 305 304 304 305 306 307 308
312 313 315 315 315 310 306 304 300 300 300 303 306 306 308 310 309 308 310 305 303 300 296 301 295 293 297 299 299 297 296 296 298 302 299 298 298 300 303 304 303 304 305 306 308
312 312 313 315 313 310 312 303 307 308 302 307 308 309 311 313 305 309 312 303 301 295 299 297 293 298 300 300 297 296 294 294 297 299 298 297 296 300 302 303 304 304 305 306 308
311 312 313 314 312 308 308 308 309 310 298 303 307 306 307 309 304 305 310 305 301 298 298 295 296 300 297 296 294 294 293 293 293 297 299 296 294 297 301 303 304 305 306 310 309
311 312 312 313 305 305 303 305 306 309 288 296 301 304 307 307 301 308 309 306 301 296 299 296 301 297 297 295 296 291 297 295 294 292 288 296 287 296 298 298 300 304 308 309 308
311 311 312 310 305 301 304 303 304 304 280 297 300 305 303 300 302 302 309 306 299 298 298 295 297 296 294 294 297 293 297 294 294 292 291 291 289 293 299 296 300 304 307 307 307
311 312 311 309 307 307 305 304 305 288 281 293 297 295 296 299 299 301 300 305 305 299 299 298 301 299 296 297 297 297 294 293 293 290 284 290 290 291 294 296 300 305 305 305 306
312 313 309 307 299 310 303 300 286 284 295 292 294 296 295 295 296 296 295 295 293 289 290 294 294 298 297 292 294 293 290 283 281 282 282 292 289 292 297 302 304 304 304 304 305
313 310 310 310 306 304 301 292 282 291 292 296 296 295 292 295 294 294 294 291 295 295 290 286 284 292 296 293 290 290 288 282 276 279 283 291 286 291 302 304 303 303 302 302 302
310 305 302 304 303 303 297 285 288 292 296 294 294 291 292 294 292 293 293 293 295 296 287 286 286 295 294 294 292 290 287 292 286 288 284 288 291 298 300 299 300 299 299 300 300
301 298 296 304 304 300 292 288 292 299 298 296 290 293 290 293 290 291 291 295 293 295 297 292 285 292 292 293 293 290 292 285 286 278 277 283 285 286 294 294 296 296 296 297 299
300 290 294 304 303 293 285 290 294 299 296 293 292 291 292 291 292 290 290 293 295 294 297 294 290 288 290 288 287 287 285 286 286 285 278 278 283 297 294 295 295 296 296 296 297
294 286 296 302 286 287 287 292 296 295 294 293 293 293 291 292 289 289 288 291 296 297 290 292 289 283 286 291 291 290 287 287 282 280 284 282 282 298 297 297 295 294 295 296 297
288 286 293 296 284 286 291 291 293 292 292 292 290 291 292 291 286 288 289 292 294 294 291 291 285 281 282 286 288 286 287 287 287 286 281 281 283 297 296 295 296 294 295 295 295
289 283 286 288 291 290 289 290 289 295 294 294 292 293 291 290 291 288 288 290 292 292 291 293 287 284 280 282 286 283 285 287 286 282 282 282 284 291 293 292 293 294 294 294 293
293 289 292 284 287 289 291 289 287 286 291 292 290 290 289 287 288 286 289 288 291 291 291 290 283 285 286 286 285 284 284 285 284 285 281 283 284 287 290 291 292 293 293 292 290
289 292 292 290 291 289 289 287 288 287 289 287 288 291 292 288 289 287 289 288 288 292 290 290 283 284 282 285 285 282 284 284 284 285 285 285 284 291 292 294 292 290 290 288 287
298 300 294 289 289 287 287 289 290 291 290 293 291 290 289 289 291 293 294 292 291 289 288 287 284 281 277 282 281 278 282 283 285 286 286 281 286 292 291 290 289 287 287 284 284

GFSSW_sfc_thetae_114.txt.gz
Theta_e
325 324 324 323 322 320 319 318 316 315 314 314 314 314 313 314 311 311 311 313 312 314 312 308 312 311 309 304 308 309 299 296 299 302 305 310 307 311 313 309 311 313 313 316 319
325 325 325 324 322 321 319 319 317 315 314 314 314 313 313 313 307 310 316 320 318 320 305 307 307 309 306 305 306 303 299 300 306 307 306 307 306 307 306 307 308 310 315 317 317
326 325 325 324 322 321 319 318 317 315 314 313 313 312 312 311 309 308 319 320 318 316 308 311 310 307 304 306 305 304 299 304 306 308 308 306 305 308 305 303 307 307 310 313 314
321 323 324 324 323 322 319 317 317 315 314 313 311 311 312 309 302 313 320 322 320 313 313 310 307 303 302 302 306 301 305 305 306 307 305 303 305 304 305 306 310 310 310 310 310
317 318 320 322 323 322 319 317 316 315 313 311 310 310 308 310 310 318 322 318 313 310 308 308 306 305 301 304 305 303 304 306 306 306 305 305 302 302 303 307 308 309 309 308 309
317 317 317 319 321 321 320 317 315 315 312 308 308 308 305 302 320 318 313 314 310 310 309 309 306 307 304 303 301 304 304 304 305 304 304 303 302 304 305 308 307 307 307 307 308
316 316 316 317 318 319 320 317 314 313 309 307 308 304 303 305 320 321 314 311 313 312 309 310 310 305 304 301 306 304 299 301 302 304 303 305 300 301 306 308 306 307 308 308 310
315 315 315 315 315 316 318 315 314 311 308 307 307 303 301 318 320 317 319 317 313 312 311 311 311 306 303 305 302 298 299 295 301 304 305 303 295 303 307 307 306 306 307 308 309
314 314 314 314 314 314 316 314 311 308 306 306 303 304 301 317 312 316 315 310 312 311 310 311 308 303 303 297 295 297 292 295 298 305 304 302 297 303 307 306 304 305 306 307 308
313 313 313 313 314 314 312 310 308 305 304 305 304 300 306 306 313 313 311 310 307 306 304 303 301 297 298 295 289 293 293 296 296 302 303 300 299 302 305 305 304 304 306 307 307
312 312 313 313 314 310 307 305 301 301 301 303 303 303 307 313 312 309 311 307 305 302 295 300 295 292 296 298 298 297 295 294 297 301 299 299 298 301 303 304 303 305 305 305 306
311 312 312 313 314 310 311 303 307 310 300 305 307 307 309 310 304 308 313 303 302 295 299 296 293 299 300 299 297 296 294 294 297 300 298 297 296 300 302 302 303 304 305 305 306
311 311 312 312 312 308 308 307 315 310 299 302 305 305 306 309 303 304 308 306 301 297 297 294 297 301 298 296 294 294 292 293 293 296 298 296 293 296 300 303 304 305 306 307 308
310 310 311 311 307 308 305 313 308 313 292 294 299 304 306 306 301 309 310 305 301 297 298 296 299 297 296 295 296 290 297 296 294 292 287 296 285 294 298 299 302 303 307 308 307
309 309 310 311 309 304 307 305 309 308 279 295 298 308 305 303 303 302 310 305 297 297 298 295 296 295 295 296 298 294 298 295 294 290 290 290 287 291 297 296 298 303 306 306 307
309 309 310 309 309 309 305 306 307 288 280 292 299 298 298 300 301 302 302 304 304 298 298 297 302 299 297 300 299 297 293 294 294 290 282 288 287 287 292 296 298 304 304 305 305
308 310 309 312 304 307 305 303 287 282 295 291 293 297 295 295 297 298 297 295 292 289 291 295 295 299 300 295 296 294 289 281 280 280 280 289 286 289 298 302 302 302 303 303 303
308 308 311 311 310 306 304 293 282 289 291 297 295 296 293 296 296 296 294 291 296 294 290 287 286 294 298 295 291 291 289 281 275 277 281 289 284 290 300 302 302 302 301 301 300
308 309 308 307 307 305 297 284 286 291 294 293 294 291 291 294 294 294 293 292 295 296 288 287 287 296 296 298 295 290 286 292 284 285 282 285 290 297 299 298 298 298 298 297 298
303 299 297 306 305 302 292 287 292 296 297 296 290 293 289 291 292 293 292 295 294 297 298 293 285 293 295 294 294 290 292 284 285 277 276 283 285 285 293 294 296 295 295 296 296
301 292 297 304 303 294 286 290 294 299 299 296 293 292 293 291 293 292 291 294 296 296 296 294 290 288 292 288 287 288 286 287 287 283 278 277 282 295 294 295 294 294 295 295 295
296 287 298 302 287 287 287 292 296 297 300 298 297 295 293 293 291 291 291 293 297 296 290 292 290 284 286 292 293 291 289 288 281 280 283 281 281 298 297 297 296 294 295 295 295
287 286 296 297 284 286 291 292 295 295 296 296 293 294 295 292 288 291 291 294 295 295 292 292 286 281 283 288 290 286 288 288 288 287 281 278 281 297 296 294 296 295 295 295 294
290 283 286 288 291 290 288 289 290 297 296 295 293 295 293 291 293 289 289 291 294 294 294 295 288 284 280 282 286 284 286 287 286 281 281 282 283 289 293 292 293 293 294 293 292
292 287 292 282 284 289 291 291 290 290 293 295 291 293 291 287 289 288 291 290 291 292 291 290 283 286 286 287 286 285 284 285 284 285 281 284 284 288 290 291 292 293 292 291 288
287 290 292 291 290 288 290 290 290 291 292 290 290 292 291 289 290 288 290 290 288 291 290 291 283 284 282 285 285 282 284 284 284 284 284 285 284 291 292 294 293 291 290 287 285
295 298 294 290 288 287 288 291 291 292 292 293 292 291 290 292 295 294 296 295 293 290 289 288 285 281 277 283 282 278 282 283 284 286 285 281 287 290 290 288 286 287 285 284 283

GFSSW_sfc_thetae_117.txt.gz
Theta_e
325 325 324 324 323 322 321 320 318 318 317 316 315 315 315 315 311 309 306 311 311 320 315 303 303 306 305 298 297 297 289 288 290 294 298 305 300 304 306 305 307 308 307 311 314
326 326 326 325 323 322 321 320 319 318 317 316 316 315 314 313 305 305 317 319 319 319 302 301 303 304 298 297 296 293 289 291 298 300 301 303 299 301 301 301 304 306 310 312 312
320 322 325 325 324 322 321 320 319 318 317 316 315 314 313 311 304 306 319 320 319 316 303 305 307 303 297 298 297 295 293 298 301 304 303 299 300 302 300 299 302 302 305 307 307
317 318 319 321 323 323 321 319 319 318 316 315 314 312 312 306 299 308 321 321 319 312 309 308 305 298 296 294 299 294 299 300 301 303 302 301 300 299 299 301 304 303 305 305 304
317 317 317 317 319 320 320 319 318 317 316 314 312 311 304 304 307 316 322 320 314 309 305 304 302 300 297 299 299 297 299 301 302 302 300 301 298 299 300 301 303 304 304 303 303
315 316 317 317 317 318 319 319 318 316 314 311 310 310 301 297 315 319 314 311 308 306 305 305 303 304 299 298 297 300 300 300 301 301 302 300 300 299 301 302 302 303 302 302 302
315 315 315 316 316 316 316 318 317 315 313 309 309 305 299 301 316 316 316 313 310 310 306 309 307 302 301 297 301 300 294 297 297 298 298 301 297 298 303 303 303 303 302 302 304
315 315 314 314 314 314 314 316 316 314 311 308 308 302 295 313 313 311 312 312 315 309 307 307 308 303 300 301 299 294 294 289 296 299 301 297 292 298 302 301 300 301 302 302 303
314 314 313 313 313 313 314 315 313 311 308 308 301 298 296 314 310 313 314 311 311 314 307 310 304 300 298 293 289 291 285 289 293 300 300 297 295 301 302 301 299 299 297 300 301
313 313 312 312 312 312 311 311 310 307 306 306 303 296 300 302 310 312 314 311 307 306 303 300 296 291 290 288 283 286 287 289 290 294 297 295 294 298 300 299 299 298 299 300 299
312 312 312 312 312 310 307 305 299 295 300 297 298 297 303 309 310 309 308 306 304 301 293 296 289 285 289 292 294 293 291 290 293 297 295 293 294 296 298 297 296 296 297 298 305
311 311 311 312 312 310 309 303 303 305 296 301 303 303 304 307 301 305 309 300 297 291 294 291 287 294 297 296 295 293 290 289 293 296 295 293 292 294 297 297 297 296 296 298 306
311 311 311 311 311 308 306 306 312 307 294 299 303 302 303 307 301 301 305 302 297 294 294 289 292 297 295 294 293 292 290 290 289 293 294 291 289 291 296 299 299 300 300 300 307
310 309 309 310 305 306 303 310 310 307 286 292 297 301 304 305 298 306 307 301 298 294 296 294 298 296 294 292 293 288 295 295 293 289 283 290 281 290 294 295 298 299 302 303 304
309 309 309 310 306 302 304 310 307 305 273 293 297 307 306 299 300 301 306 302 295 295 295 292 294 294 293 294 295 291 297 292 291 289 288 287 281 287 292 291 296 300 301 302 302
308 309 309 306 305 308 310 306 306 286 276 291 298 297 297 299 300 301 300 303 302 296 296 294 299 297 295 298 297 298 293 290 288 286 280 286 284 284 287 293 298 301 301 300 300
308 308 307 307 302 307 305 303 286 278 292 288 291 296 295 294 295 296 295 293 288 284 285 291 293 297 299 294 295 293 286 279 276 277 277 288 285 286 295 298 299 297 297 298 298
307 307 305 307 310 305 304 292 280 286 287 294 293 293 290 293 293 294 292 289 293 291 286 284 281 291 296 293 290 290 286 279 275 275 278 287 281 286 296 297 297 297 297 296 295
306 300 305 309 309 305 297 283 282 287 291 290 291 288 288 292 293 291 290 290 292 292 287 284 285 294 295 295 293 289 284 290 283 283 279 281 287 291 294 294 295 294 295 295 295
296 298 299 304 306 303 291 285 288 293 293 293 287 290 287 289 289 289 289 293 292 294 294 290 284 292 294 292 291 290 291 283 282 276 275 279 282 285 290 291 293 292 292 292 292
297 293 298 304 304 296 285 287 291 296 296 293 290 289 291 289 291 289 290 294 296 293 293 291 286 286 291 287 284 286 284 285 286 282 276 275 279 293 292 292 292 292 292 291 290
296 286 298 304 288 287 286 290 295 294 297 294 295 293 291 291 290 289 289 292 295 293 288 289 287 281 286 292 292 289 287 287 278 277 279 278 278 296 296 296 295 292 292 290 290
289 287 296 296 284 284 290 291 294 293 294 294 294 295 295 289 285 289 290 294 295 293 289 290 282 278 281 287 290 287 287 288 286 285 279 276 278 296 297 294 294 291 289 289 289
288 282 286 289 292 288 287 288 289 295 294 296 295 294 291 288 291 287 289 292 294 292 295 293 285 282 279 282 286 282 285 286 284 277 279 280 282 288 292 292 291 289 287 287 286
290 285 286 280 284 288 290 289 288 288 295 295 292 290 289 286 287 287 290 288 291 293 291 287 280 285 286 287 287 285 284 284 283 283 279 281 283 286 289 288 288 289 287 285 284
286 287 291 286 288 286 288 288 287 289 292 290 288 291 291 288 289 287 290 288 287 289 287 288 281 281 280 284 284 282 283 283 284 284 283 283 282 289 289 288 286 286 284 283 283
294 296 292 288 287 284 284 288 289 292 294 294 292 291 290 291 294 293 291 293 291 287 284 285 281 279 275 281 280 275 280 283 283 286 285 274 283 286 282 282 283 282 282 281 281

GFSSW_sfc_thetae_120.txt.gz
Theta_e
325 325 325 324 323 322 322 321 320 319 318 317 317 317 316 315 312 308 304 311 312 319 314 302 301 302 302 297 296 295 288 285 288 291 294 302 298 302 304 301 303 306 305 309 313
321 323 326 325 324 323 322 321 320 319 318 318 317 316 315 314 305 304 315 319 318 318 301 300 301 302 297 295 295 291 286 289 295 296 297 300 296 298 298 299 301 302 308 309 308
317 318 319 321 323 323 322 321 320 320 318 317 317 315 314 311 304 307 319 319 319 314 302 303 305 302 295 294 295 291 289 293 297 300 300 299 299 301 298 296 300 301 303 305 305
316 317 317 317 318 319 319 319 320 320 319 317 315 314 313 306 296 304 320 320 321 310 308 306 304 296 294 293 296 291 296 296 298 300 298 297 299 299 297 300 303 303 303 302 303
316 316 316 316 317 317 317 318 319 319 318 316 314 312 304 302 305 314 323 320 310 307 303 302 300 298 295 297 297 295 296 298 300 300 299 300 297 297 298 302 301 301 302 301 301
314 315 315 315 316 316 316 316 317 318 317 315 311 310 300 295 311 315 316 310 306 304 302 303 301 302 298 297 295 298 298 297 298 298 299 298 298 297 300 302 302 301 300 301 301
315 314 314 314 314 314 315 315 316 317 316 313 309 305 298 299 311 311 311 310 311 307 304 307 306 301 299 297 301 298 293 295 295 296 296 299 294 296 301 301 301 302 302 301 303
315 314 313 313 313 313 313 314 314 316 315 311 308 302 296 310 309 308 308 308 312 313 308 307 306 302 299 300 297 293 292 286 295 297 298 295 291 298 301 299 300 301 300 300 300
313 313 312 312 312 312 314 314 315 315 311 309 301 298 294 310 304 312 311 308 311 312 307 309 305 299 298 291 287 289 284 286 290 297 295 293 292 296 300 299 298 297 297 298 298
312 312 312 312 312 312 312 312 311 309 307 307 303 295 299 301 308 312 312 311 309 306 303 301 295 291 290 288 280 284 285 284 286 291 294 292 292 297 297 297 297 296 296 298 299
311 312 311 311 312 311 306 302 296 295 300 295 295 297 300 306 308 307 310 308 304 300 292 295 288 284 289 289 291 290 288 288 290 294 292 291 291 294 295 293 293 295 295 297 306
311 311 311 311 311 311 308 298 301 304 294 300 302 300 303 304 299 303 306 299 296 290 293 290 285 291 293 292 291 290 288 288 292 295 293 290 288 291 293 294 295 296 296 303 306
310 310 310 310 310 309 305 302 308 305 292 297 301 300 302 304 298 299 303 299 295 291 290 287 290 295 293 291 290 290 289 289 289 292 291 289 288 290 295 297 298 299 299 305 304
309 309 309 309 302 302 301 307 307 306 287 289 296 299 303 304 298 305 305 300 296 292 293 291 296 294 293 291 292 287 292 292 291 286 281 289 281 288 293 293 295 299 300 301 300
309 308 308 310 302 301 301 305 305 302 268 290 296 307 304 299 299 299 305 300 293 293 293 290 291 291 291 292 295 291 296 293 290 285 283 286 281 286 291 290 294 296 297 297 297
309 308 308 303 303 303 307 306 303 278 271 288 297 296 296 297 298 299 299 302 300 294 294 293 298 295 294 296 296 297 293 289 286 284 278 284 283 282 287 292 294 296 296 296 295
309 309 305 304 298 305 304 303 284 274 289 287 290 295 295 293 294 296 294 292 289 285 286 291 292 294 296 291 294 292 287 280 276 276 276 286 282 284 292 293 293 292 293 295 295
308 307 304 303 304 304 303 292 276 283 285 292 291 290 289 292 292 294 290 287 291 289 284 282 280 289 294 291 289 290 288 280 274 275 276 285 278 284 293 293 295 295 294 295 294
307 298 298 303 305 303 296 282 279 284 289 289 289 286 285 289 290 290 290 289 291 291 285 282 283 292 292 293 293 288 282 288 283 281 278 279 284 291 294 292 291 292 292 292 293
297 292 293 306 307 300 290 285 285 291 292 291 285 289 285 287 287 287 287 292 291 294 294 288 282 290 292 291 290 289 290 280 282 276 274 278 279 281 289 288 292 290 290 291 292
297 288 293 302 304 294 284 284 288 293 294 291 288 287 288 288 289 288 289 293 293 292 293 290 286 285 290 286 283 284 282 283 286 283 275 274 276 290 291 292 291 291 291 289 288
294 285 294 304 289 289 286 288 293 292 294 291 291 290 288 290 288 288 289 292 295 293 288 291 285 280 284 291 290 287 284 286 279 277 279 276 277 294 293 294 293 288 288 287 286
286 285 297 297 283 284 289 289 291 290 292 292 291 293 292 289 284 288 291 294 295 293 290 290 283 278 280 284 288 286 287 288 287 284 279 275 277 295 294 293 290 287 287 286 285
288 282 286 290 292 287 285 286 288 293 292 293 292 294 291 288 290 287 287 291 293 292 297 293 285 281 278 281 285 281 285 287 285 280 279 279 281 286 290 289 287 286 285 284 283
289 285 285 281 284 287 289 287 286 286 293 294 290 290 289 284 285 285 287 287 290 294 290 287 280 283 285 287 287 285 285 285 283 283 279 281 281 284 286 285 285 285 285 283 282
286 286 290 284 286 286 287 286 286 288 289 289 288 290 291 287 287 286 287 285 285 290 286 287 280 280 279 284 284 283 284 283 282 283 283 283 280 285 285 284 283 283 283 281 281
291 295 291 287 286 284 284 286 287 290 291 292 291 290 288 290 293 293 294 292 292 287 284 283 281 278 275 281 279 276 279 281 282 285 284 276 283 283 281 283 281 279 280 280 280

GFSSW_sfc_thetae_123.txt.gz
Theta_e
326 326 325 325 324 323 323 322 321 320 320 319 318 317 317 316 313 308 306 311 311 318 314 300 301 302 300 297 295 293 287 284 287 289 293 299 296 300 302 299 301 303 302 306 310
320 321 322 323 324 323 323 322 321 320 320 319 317 317 316 315 306 304 315 319 319 316 300 300 300 301 295 293 293 290 285 287 292 294 295 297 294 298 298 298 300 300 304 307 306
317 317 318 318 319 319 320 321 321 320 320 318 317 316 314 311 303 306 321 320 320 313 300 302 303 301 293 292 292 289 287 291 295 297 297 295 295 298 296 295 299 300 301 303 303
316 316 316 317 317 317 317 317 318 320 320 318 316 314 314 305 289 304 321 321 320 307 305 303 301 295 292 291 292 289 294 294 296 297 296 295 297 296 297 300 302 301 302 301 301
315 315 315 315 316 316 316 315 317 319 319 318 314 313 305 300 302 312 324 320 308 305 301 300 298 296 293 295 296 293 294 297 298 297 296 297 295 296 298 302 301 300 300 300 300
314 314 314 313 313 314 315 315 315 317 318 316 311 310 299 294 306 312 310 309 305 302 300 300 298 300 297 295 293 296 295 295 297 297 297 296 295 294 299 300 300 301 300 300 300
314 313 313 312 312 313 313 314 314 316 317 314 310 306 299 298 307 306 307 306 308 307 303 304 303 298 298 295 298 297 292 294 295 297 295 296 293 295 299 299 298 299 300 300 301
313 312 311 312 312 312 313 313 314 314 315 311 309 303 297 309 306 306 306 306 309 309 309 309 304 299 297 298 296 292 291 287 294 296 297 293 288 296 299 299 296 297 298 299 299
312 312 311 311 312 312 313 314 314 315 312 309 300 300 295 309 302 307 309 307 310 310 310 311 303 296 296 291 287 288 283 285 289 296 294 291 290 295 298 297 296 295 295 297 297
311 311 311 311 311 311 310 311 311 309 308 307 304 294 298 298 305 310 310 310 308 307 303 301 294 289 288 287 281 284 284 282 285 292 294 291 291 295 295 293 294 293 294 294 302
310 310 311 311 311 310 305 299 295 294 300 293 294 296 298 304 307 303 310 308 305 300 293 295 289 285 289 289 289 288 286 285 287 292 290 290 290 293 292 292 292 292 294 301 302
310 310 310 310 310 310 302 295 297 302 293 299 300 298 301 302 297 301 305 300 296 291 293 289 285 291 292 291 289 288 286 285 289 293 291 289 289 291 291 293 294 294 294 301 300
309 309 309 309 309 306 297 298 304 305 291 295 300 298 299 302 296 296 301 298 293 290 290 287 290 294 292 289 288 288 286 287 287 290 290 288 287 288 293 295 297 299 299 302 299
309 309 308 308 300 299 297 303 303 307 286 287 295 299 302 302 295 303 303 298 295 291 291 289 293 291 289 289 289 284 291 290 290 286 282 287 281 289 290 292 294 294 293 294 294
309 308 308 309 300 296 299 304 305 299 269 288 295 305 303 298 298 299 304 298 291 292 292 289 290 290 289 290 293 289 294 292 291 285 282 284 280 283 292 290 290 291 292 292 293
309 308 308 300 301 301 304 306 301 275 270 285 296 295 295 297 296 299 299 301 299 293 292 291 295 293 292 294 294 295 291 289 286 283 279 284 282 280 287 291 290 291 292 293 293
309 309 305 302 296 302 303 302 282 271 286 284 289 294 293 292 293 295 293 292 288 285 285 289 290 293 296 290 292 290 286 281 277 276 276 284 280 282 291 292 291 290 290 292 294
308 307 303 301 300 301 303 291 275 281 282 290 288 289 290 292 292 292 289 287 291 288 283 282 280 288 292 290 287 288 286 278 274 275 276 283 278 283 293 293 293 293 293 294 293
306 296 298 299 303 300 296 282 279 282 288 286 287 283 282 288 289 290 289 288 289 290 284 281 282 290 292 293 292 286 283 288 281 281 277 279 283 289 292 291 292 292 293 293 293
295 295 292 301 302 299 289 283 285 290 290 290 283 286 282 285 285 285 286 290 290 292 292 287 281 288 291 290 289 288 290 280 280 275 274 277 278 278 288 289 291 292 292 292 293
294 285 291 301 303 293 282 282 286 291 292 289 286 285 286 286 287 286 287 291 292 290 290 287 284 284 288 285 284 283 282 283 284 280 275 274 277 288 289 291 291 292 290 289 286
291 283 291 303 288 288 283 286 291 289 292 290 290 287 286 287 286 287 287 290 293 292 289 291 287 280 285 289 288 285 283 283 278 277 279 276 277 290 292 292 294 290 287 285 284
286 286 293 298 282 284 287 287 288 288 289 290 289 290 291 287 283 287 289 293 295 291 287 289 281 278 282 283 287 284 286 286 285 282 279 276 277 294 294 292 290 285 285 284 283
288 281 286 291 290 285 284 285 285 291 289 290 290 292 289 288 289 286 286 290 292 292 297 293 283 281 278 280 284 282 285 286 285 278 279 280 280 286 289 286 286 284 282 282 282
289 285 287 281 283 286 287 285 283 285 291 292 288 288 287 284 284 284 288 288 289 293 289 287 281 282 284 286 287 285 285 286 283 283 279 281 281 282 285 285 283 283 283 282 281
285 284 289 286 284 283 285 285 283 285 286 286 287 288 288 285 286 284 287 284 286 288 285 286 280 281 280 284 285 283 284 284 285 285 283 282 280 283 284 284 283 283 282 281 280
289 289 287 284 285 282 282 284 285 288 290 290 289 288 287 289 292 292 292 291 290 287 284 284 282 280 278 281 280 275 281 283 284 284 282 275 281 283 281 281 280 280 281 280 280

GFSSW_sfc_thetae_126.txt.gz
Theta_e
326 326 326 325 324 324 324 323 322 321 321 321 319 318 317 317 314 307 302 310 310 319 314 300 302 302 298 296 294 292 287 285 286 288 291 297 295 298 300 298 299 301 300 305 308
320 320 320 320 320 321 322 322 321 321 321 320 319 318 316 316 304 302 314 321 318 317 298 299 300 301 294 293 292 289 285 287 291 292 292 295 291 296 296 297 298 298 303 305 305
317 317 317 317 318 317 317 317 318 319 320 320 318 316 316 311 300 302 320 320 318 312 300 301 303 299 292 291 291 286 286 289 293 295 293 291 294 296 295 294 297 298 300 301 302
315 315 315 316 316 316 316 315 316 319 320 319 317 315 315 304 285 304 320 319 319 306 301 300 299 294 291 289 291 287 292 292 294 295 294 293 293 294 296 299 301 301 300 300 300
314 314 313 313 313 314 314 315 315 316 318 317 314 312 305 299 297 310 318 318 308 303 299 299 296 294 291 293 294 291 292 295 296 296 295 296 294 294 296 300 300 299 300 299 300
313 313 312 312 312 312 313 313 314 315 317 315 312 311 301 290 303 310 307 307 305 301 299 298 297 298 295 293 292 294 294 294 295 296 296 294 294 294 298 299 300 298 298 299 299
313 312 311 311 311 312 312 313 314 314 315 313 311 304 298 296 306 305 306 303 306 306 302 303 301 297 296 294 297 295 291 293 294 293 293 294 291 293 297 298 297 297 297 298 299
312 311 310 311 311 312 312 313 313 314 314 311 309 301 294 307 306 305 304 305 307 307 307 307 305 298 295 296 294 291 289 285 293 294 294 294 286 295 297 298 297 297 296 296 304
311 311 310 310 311 312 312 313 314 313 312 310 299 297 292 308 300 304 307 305 307 307 308 311 302 295 294 289 286 286 283 283 288 294 293 292 287 294 297 295 295 293 294 296 302
310 310 310 310 311 310 310 311 311 308 307 306 303 292 295 295 304 308 308 309 306 306 303 301 293 288 288 286 280 283 283 282 283 289 292 289 289 293 295 293 294 293 293 300 299
308 309 309 310 310 310 303 298 293 291 295 291 293 293 296 301 305 302 309 306 303 299 293 295 289 286 291 288 289 287 285 284 286 290 288 288 289 290 292 291 291 293 292 297 296
308 308 308 309 309 309 300 293 297 300 290 298 298 297 300 301 295 298 303 298 296 291 293 289 285 292 292 291 289 287 284 283 287 291 290 288 288 290 291 291 294 295 296 295 294
308 308 308 308 309 303 295 296 303 303 288 293 298 297 298 300 293 294 299 297 292 290 290 287 291 294 291 289 287 286 285 285 285 289 288 287 285 287 292 293 294 293 293 292 291
308 308 307 307 298 296 294 301 301 301 279 284 293 297 300 300 293 301 299 296 293 289 289 288 292 291 289 288 288 283 289 289 287 285 281 286 279 285 289 289 290 290 290 290 291
308 308 307 305 296 294 299 301 301 292 268 287 294 304 302 296 296 297 301 296 290 291 291 288 290 289 287 288 290 287 293 290 289 285 281 282 279 281 290 286 287 288 290 291 292
309 308 307 300 300 299 302 305 296 275 269 283 295 294 293 296 295 297 297 298 296 291 291 290 292 292 291 293 293 294 290 288 284 283 278 283 281 278 284 287 287 289 291 292 293
309 309 304 301 294 300 302 301 279 269 283 282 289 293 291 290 291 293 292 290 287 284 284 287 289 292 294 289 292 290 285 278 275 275 277 282 280 283 289 291 289 289 291 293 294
308 307 303 301 300 300 303 291 271 279 279 287 286 290 288 291 291 291 289 287 291 287 282 280 280 288 291 290 287 286 285 279 274 274 275 282 277 281 292 292 293 293 293 293 291
306 299 299 298 301 299 295 281 277 280 285 286 284 281 281 286 290 288 287 286 289 290 284 281 281 289 292 291 291 286 283 287 281 280 278 278 281 289 292 291 291 292 293 293 293
297 294 293 299 301 298 290 282 283 288 289 288 280 285 280 283 283 283 284 288 289 291 291 287 280 287 289 289 288 287 289 280 279 274 273 276 277 279 286 288 291 291 292 294 293
294 285 290 300 299 290 282 282 285 290 290 287 285 284 285 285 286 285 286 289 291 290 290 287 285 284 288 285 283 283 283 283 283 280 275 273 277 285 288 290 290 291 293 292 288
291 282 292 300 286 282 283 285 290 287 291 288 288 287 285 286 285 285 286 290 293 291 287 289 284 279 283 290 288 286 286 286 280 277 279 276 278 289 290 291 293 292 286 284 282
287 284 292 297 279 280 283 284 287 285 286 287 287 288 288 284 280 285 286 292 294 292 288 289 283 280 281 282 286 284 285 286 285 282 279 276 278 292 292 292 293 284 284 282 281
287 280 285 291 288 285 283 282 283 288 287 288 287 289 288 286 287 285 286 290 292 293 296 293 284 282 278 280 283 282 284 285 284 275 279 280 281 287 290 288 285 283 282 281 281
288 283 283 281 283 286 287 284 282 282 288 289 285 285 284 282 283 283 286 288 289 293 292 288 281 283 283 285 285 283 284 285 283 283 280 282 281 284 287 287 284 282 282 281 281
285 284 287 283 283 283 285 282 283 283 285 284 285 286 286 283 284 282 285 284 284 286 284 286 282 281 280 284 284 282 283 284 285 285 283 283 282 284 283 282 282 282 282 281 281
290 289 286 283 282 281 280 282 283 286 287 288 286 285 285 287 289 291 290 290 290 287 284 282 281 281 279 281 281 278 281 283 285 284 282 276 281 281 281 282 280 281 282 281 280